GFSMW_500_spd_000.txt.gz
Wind_Speed
30 30 31 33 32 30 28 28 28 28 28 30 30 29 30 33 34 36 36 37 38 39 41 42 43 43 43 44 45 46 44 44 47 47 46 44 42 42 43 43 42 41 43
23 24 24 25 26 28 28 29 30 31 31 32 32 32 34 36 38 40 40 41 42 42 44 46 47 47 46 46 47 47 46 45 47 48 49 47 45 44 45 45 43 43 44
20 20 21 23 26 28 30 31 32 33 34 35 34 35 36 39 42 43 45 47 47 47 48 50 51 53 53 52 52 53 52 51 49 50 50 49 48 47 47 46 44 44 44
19 19 19 21 22 23 26 28 30 32 35 36 36 37 40 42 45 48 50 51 51 52 54 54 55 57 58 57 56 56 56 55 53 54 54 53 50 48 49 47 48 46 45
19 19 20 22 23 24 25 25 26 27 28 30 33 36 39 43 47 49 52 54 55 57 59 59 60 60 61 60 60 59 60 60 59 57 55 54 53 50 49 47 47 45 46
21 23 24 26 27 29 30 31 32 32 33 35 37 39 41 45 48 51 53 56 59 60 60 62 62 61 62 62 63 64 63 63 61 60 59 56 57 53 51 50 49 46 42
26 28 30 32 33 35 36 37 38 41 42 43 43 44 46 49 52 54 56 58 59 60 61 62 63 63 63 64 66 67 66 65 65 62 63 61 62 58 52 50 49 47 43
34 35 36 38 40 41 41 42 43 44 46 47 49 51 54 56 57 58 58 59 61 61 63 66 68 69 69 70 71 72 71 74 74 70 64 61 59 53 51 47 51 46 47
39 39 40 40 41 41 41 41 43 44 47 48 50 52 52 53 55 57 60 61 61 62 63 65 67 69 70 73 76 76 75 74 73 73 74 66 53 46 48 48 51 46 47
39 38 37 38 40 40 41 43 44 46 47 49 51 52 53 55 55 56 57 59 61 64 66 67 70 72 74 76 77 73 71 69 66 68 66 64 51 45 45 49 47 47 42
41 42 43 44 48 49 50 52 54 54 54 53 52 51 52 53 55 56 57 59 62 65 67 70 72 75 75 76 76 72 70 68 66 65 63 49 38 40 44 48 45 45 42
48 50 50 53 54 55 55 54 52 47 46 48 50 51 53 56 58 59 60 62 63 66 68 71 73 73 72 75 75 74 69 64 60 62 60 50 43 44 44 42 43 40 42
54 56 55 54 53 51 47 45 47 50 53 55 55 56 57 59 61 63 65 67 71 70 69 72 74 75 73 72 71 72 67 65 61 55 56 51 48 46 46 52 48 42 40
50 47 47 47 48 48 49 52 55 56 57 58 58 58 59 61 64 66 69 71 72 72 74 77 77 77 75 74 71 69 69 69 69 56 57 54 49 47 51 44 44 43 41
50 50 50 52 52 52 53 54 56 57 57 58 59 59 59 59 61 65 68 70 72 74 76 78 77 77 76 73 71 69 66 69 69 67 60 55 48 47 52 46 49 45 42
56 56 55 56 56 54 53 54 53 54 53 53 53 54 55 58 60 62 65 68 70 73 77 77 76 75 73 71 66 66 65 68 70 70 60 60 50 46 49 49 51 46 46
59 60 61 59 59 60 58 57 55 53 53 53 53 54 57 58 59 61 62 64 67 70 73 74 76 75 70 67 66 69 70 68 64 60 60 59 51 48 48 47 51 43 46
57 58 58 59 61 62 62 61 61 60 58 57 57 57 58 58 59 60 61 62 63 65 66 69 72 72 68 65 67 67 68 70 67 60 56 57 51 47 46 46 49 44 42
59 60 61 62 63 62 62 61 61 61 61 59 58 59 61 61 61 61 62 62 63 63 63 65 67 67 65 61 62 63 65 64 61 58 51 51 50 44 42 44 45 46 41
58 60 62 63 63 62 61 61 62 63 62 61 61 62 62 63 64 64 64 63 64 64 64 63 67 67 63 57 57 54 62 57 53 51 44 39 44 39 38 44 43 41 43
61 62 61 61 62 64 64 63 62 62 63 64 64 65 65 66 67 67 67 65 65 64 64 63 64 61 57 61 45 48 53 56 55 46 39 33 33 37 34 40 41 42 45
65 66 66 66 66 66 65 64 64 64 64 64 65 67 69 70 70 69 67 67 67 67 66 64 62 58 51 50 53 48 43 49 51 43 37 31 37 35 36 39 41 42 43
67 67 68 67 64 63 62 63 64 65 66 68 70 71 73 74 73 71 67 66 67 68 66 63 59 51 45 45 47 53 46 39 44 44 44 39 36 37 38 35 40 42 40
69 68 65 64 63 63 64 67 69 71 72 74 76 78 76 75 72 69 65 63 63 65 61 56 53 47 41 44 41 44 48 50 38 37 39 40 30 33 37 33 36 41 37
69 65 62 62 62 65 68 72 76 79 80 81 79 77 74 71 68 65 62 59 60 58 52 47 47 42 38 42 42 40 44 46 40 36 38 39 29 30 29 31 36 36 34
61 60 61 64 67 71 74 78 80 83 83 78 75 73 72 70 68 64 61 61 57 55 50 46 44 38 37 38 42 42 41 40 43 40 35 34 26 31 32 34 39 38 33

GFSMW_500_spd_003.txt.gz
Wind_Speed
31 32 33 33 33 34 35 33 30 30 29 28 29 31 32 33 35 37 39 39 42 43 44 44 45 47 47 48 49 51 52 52 52 54 53 52 51 52 52 54 54 52 52
30 29 29 28 27 28 28 29 30 31 31 33 34 35 37 37 38 40 41 44 47 47 47 48 49 52 51 52 53 55 55 55 56 56 56 55 54 54 56 55 57 55 55
27 26 24 24 24 25 26 28 31 33 36 38 38 39 39 39 40 43 44 47 49 50 52 52 53 55 56 56 57 57 57 57 57 57 59 58 58 59 57 57 58 57 57
25 24 23 22 21 22 24 25 27 28 30 31 32 35 36 37 41 44 46 47 50 52 55 57 57 57 58 59 58 59 59 60 61 63 61 61 62 63 62 59 58 59 63
23 22 22 23 24 25 27 28 30 31 33 35 36 36 36 36 37 39 43 47 50 54 57 58 60 59 61 61 63 65 66 66 66 64 66 65 63 63 66 67 65 65 65
22 22 23 25 27 29 31 33 35 37 39 41 42 42 43 44 45 47 49 51 54 57 58 60 62 63 66 66 67 68 67 67 67 66 66 67 67 70 71 71 70 68 64
27 28 30 32 34 35 37 38 40 42 44 46 48 49 50 50 51 52 54 57 59 61 62 62 64 66 67 68 69 70 69 68 70 69 68 70 73 72 69 66 65 67 64
34 36 38 39 41 42 43 44 45 46 47 49 51 52 53 53 54 55 56 57 59 59 60 61 63 65 66 68 69 70 70 72 74 74 74 75 75 70 67 66 66 67 62
38 39 40 41 40 38 36 37 39 42 43 45 48 51 53 55 57 58 59 60 60 62 64 65 65 65 66 69 71 71 72 74 77 77 75 72 69 69 66 64 63 63 60
41 40 40 40 42 44 45 46 48 49 52 54 56 57 59 60 61 61 61 60 61 62 63 64 65 65 67 70 73 73 74 78 78 79 78 72 66 67 65 63 59 54 51
41 43 44 46 49 51 53 54 54 55 55 56 57 57 57 57 56 57 59 61 62 64 67 67 68 69 71 73 76 76 77 78 79 80 78 73 66 61 61 61 59 55 52
49 49 50 51 52 51 52 52 53 52 52 52 52 52 53 57 61 62 64 65 69 71 72 72 72 73 74 75 78 79 78 79 81 83 81 76 68 64 62 61 62 56 54
51 54 54 52 51 51 51 50 51 52 54 55 56 58 61 63 65 65 67 68 73 74 76 77 77 79 80 81 83 84 84 85 84 81 78 78 74 67 63 61 64 63 55
52 51 51 52 52 52 52 53 54 55 57 59 61 63 65 67 67 67 68 71 74 76 77 79 80 81 83 83 84 86 88 89 87 83 80 79 70 65 59 63 65 63 58
49 51 52 53 56 58 60 60 61 62 63 64 65 64 65 66 68 69 70 70 71 73 77 81 81 81 83 83 82 84 86 86 85 82 80 76 64 60 61 61 63 63 56
57 59 60 62 63 63 63 64 64 64 64 62 63 64 64 64 64 64 64 67 68 70 73 78 80 81 84 83 82 81 84 83 81 78 75 69 64 64 68 68 62 60 56
63 66 68 68 69 71 70 70 70 69 68 66 66 67 67 66 65 66 66 67 68 70 74 76 77 77 79 80 80 79 79 80 76 68 66 66 63 61 57 64 67 61 55
71 72 73 74 75 75 72 70 69 68 67 67 65 66 68 70 70 69 68 67 67 68 69 70 72 74 74 75 76 77 78 76 76 72 66 64 59 63 64 62 59 59 57
71 71 71 71 71 71 72 70 67 67 67 67 66 68 69 69 69 67 66 67 68 67 67 68 70 71 71 71 73 75 76 75 72 72 64 59 54 53 54 57 47 54 54
73 71 72 69 68 66 66 65 65 67 69 69 69 70 69 68 66 66 65 65 66 66 68 68 69 70 70 71 72 74 73 70 64 55 53 48 46 47 50 49 48 45 47
72 70 68 70 72 73 73 74 76 74 72 68 65 62 63 64 65 66 67 69 72 73 73 74 73 73 73 71 70 69 66 64 58 49 43 46 49 49 49 44 44 44 40
72 70 71 71 72 72 71 72 72 70 68 66 66 65 64 66 69 71 74 77 81 81 80 79 76 73 71 69 66 63 55 53 51 42 43 44 45 41 42 42 41 32 30
70 71 72 73 72 71 71 69 66 64 64 64 65 67 70 74 78 82 84 85 85 85 80 78 74 69 62 60 57 51 47 47 46 44 44 47 42 39 39 40 33 30 31
68 69 69 69 68 67 63 61 62 63 65 68 72 76 79 82 84 85 85 83 79 77 74 71 65 60 53 50 45 43 45 46 47 46 45 46 36 36 34 36 36 32 28
67 67 66 62 59 58 58 60 64 67 71 75 77 80 83 84 83 80 77 74 71 70 67 65 63 58 49 44 40 41 41 43 45 44 44 40 41 38 32 33 34 25 26
68 63 59 59 58 59 63 68 71 75 78 80 82 83 83 82 80 76 71 68 67 65 64 63 62 57 51 41 37 38 38 41 41 40 42 42 40 35 30 27 28 18 18

GFSMW_500_spd_006.txt.gz
Wind_Speed
20 23 25 29 31 33 33 33 32 30 28 26 27 29 31 33 35 36 37 38 40 42 42 44 47 48 47 49 51 52 51 52 54 55 55 55 55 53 54 56 54 54 55
25 27 29 30 31 31 29 28 28 29 28 29 31 32 34 36 38 40 40 41 43 44 46 47 48 49 52 51 53 57 57 54 56 57 58 58 56 57 57 57 56 55 57
29 29 29 27 27 27 28 28 27 28 29 30 30 33 35 36 38 40 40 41 42 43 45 47 49 50 52 53 54 55 57 58 58 59 60 63 63 61 56 55 55 56 57
28 26 25 25 26 26 25 26 27 28 29 31 31 33 34 35 38 39 41 41 42 42 44 47 50 52 55 55 57 58 59 63 64 64 63 64 63 63 64 61 60 62 63
23 23 24 25 25 26 27 29 30 32 34 36 38 39 41 43 45 46 48 49 50 50 51 53 57 59 60 60 61 62 64 66 67 67 67 66 63 61 65 66 63 67 64
22 24 26 27 28 29 31 34 36 38 40 42 44 45 47 49 51 53 54 55 56 57 58 59 61 62 64 65 65 66 65 66 67 67 67 67 67 65 66 68 67 71 65
24 27 29 31 33 35 37 39 41 43 45 48 50 52 53 54 55 56 56 56 57 59 60 61 62 62 63 64 65 67 68 66 69 68 68 68 69 70 73 71 69 69 64
30 32 34 36 38 40 42 44 45 46 47 47 47 49 51 52 53 55 57 60 62 64 65 66 67 65 66 68 68 69 69 67 69 71 70 71 71 73 74 72 70 70 66
37 38 40 41 41 41 42 44 44 46 48 50 51 53 55 58 60 62 64 66 68 68 69 69 69 68 68 67 68 70 69 70 71 74 76 75 74 74 75 72 68 69 70
37 38 38 39 40 43 46 48 50 52 54 56 58 59 60 62 63 65 66 66 67 65 62 62 65 66 68 70 72 73 72 74 75 76 78 79 78 78 78 73 69 65 66
37 39 41 42 44 48 49 51 53 55 57 58 59 59 59 59 60 61 61 61 62 64 65 68 71 73 73 74 76 77 76 78 79 77 77 76 76 78 76 74 69 68 65
42 46 46 48 50 52 52 52 54 54 55 56 57 59 61 62 64 65 66 67 69 70 71 72 73 75 77 79 79 79 81 82 84 84 84 74 63 68 77 77 73 65 63
44 48 50 50 50 51 52 54 56 58 59 61 62 64 66 67 68 69 71 72 72 72 72 73 74 76 78 79 80 80 80 83 84 86 88 87 85 82 80 79 78 70 69
40 44 49 53 55 58 61 62 63 65 67 69 69 69 70 70 70 70 70 70 70 72 74 76 77 79 79 81 81 80 79 82 83 82 81 80 81 80 79 77 76 71 65
50 52 54 58 62 65 67 68 70 71 72 73 74 76 76 76 76 74 75 75 76 74 73 74 77 79 82 84 84 85 86 86 83 78 74 74 73 73 73 73 72 65 60
54 58 62 65 66 67 69 71 73 74 75 76 78 78 76 74 73 72 73 73 75 76 76 78 81 81 82 84 85 85 85 82 80 80 76 75 74 71 69 65 64 61 58
61 63 67 70 72 74 75 76 77 79 79 79 78 76 77 78 77 73 72 75 76 77 80 81 80 81 81 80 80 81 82 83 83 81 80 77 74 71 69 64 65 61 57
69 72 75 77 79 81 81 81 81 80 79 78 77 76 76 75 75 76 77 79 80 80 80 80 80 78 76 77 79 79 79 79 78 78 78 77 74 71 69 66 62 59 57
76 78 80 83 84 83 83 82 80 79 78 74 74 74 76 78 79 79 78 78 79 77 77 76 76 75 74 72 74 76 77 77 77 78 77 75 74 70 66 64 55 48 51
80 83 86 85 84 83 81 77 75 75 76 75 76 77 76 74 75 75 71 68 69 70 70 70 71 71 72 76 78 81 81 81 80 78 75 71 70 66 60 54 49 46 41
85 85 84 83 78 73 71 72 74 75 75 77 77 76 74 72 69 67 68 68 70 72 73 74 77 79 80 81 83 85 84 81 77 74 70 63 58 53 48 49 46 41 44
82 80 75 73 71 71 71 70 70 70 71 71 69 66 65 66 67 69 71 74 78 80 81 81 81 81 83 84 79 74 69 66 63 59 57 51 42 41 46 51 47 44 38
72 69 68 67 66 67 68 68 67 64 62 61 61 61 63 68 72 76 79 82 84 86 87 86 85 81 76 74 70 64 59 56 53 49 45 40 36 41 44 44 45 40 34
64 63 61 63 65 66 64 61 59 58 58 59 63 67 70 74 77 79 82 83 83 83 82 79 76 73 69 67 63 57 53 49 45 41 42 42 40 39 38 39 47 39 36
60 59 60 62 63 58 56 59 61 62 63 66 70 72 75 77 80 81 83 82 80 79 76 72 69 66 62 59 56 51 47 44 39 35 39 41 40 37 32 33 39 33 31
58 58 61 59 57 58 61 64 66 69 72 74 76 79 81 84 86 87 83 80 75 67 61 58 58 56 53 51 45 42 41 37 33 31 35 36 33 27 26 29 34 27 24

GFSMW_500_spd_009.txt.gz
Wind_Speed
17 17 20 23 26 28 31 31 30 30 26 26 26 27 28 29 29 31 33 36 37 38 40 40 41 42 43 44 46 49 51 52 54 55 54 53 54 53 54 54 53 53 54
20 22 24 27 30 31 31 28 27 26 26 24 24 25 26 28 30 33 35 36 37 38 38 40 40 42 45 45 46 48 51 53 55 58 59 58 57 58 58 56 55 54 53
24 26 28 29 30 29 28 28 27 27 27 26 26 27 30 32 35 37 39 41 43 44 46 47 48 47 49 49 49 51 54 56 57 59 63 64 65 63 58 56 56 55 54
29 30 30 29 27 27 26 27 28 29 30 32 32 33 35 37 40 42 44 46 48 50 52 54 56 57 57 56 58 59 62 64 63 62 61 65 66 66 67 59 57 58 55
31 31 28 25 25 26 27 29 30 31 33 35 38 40 42 45 48 50 52 54 55 58 58 58 59 60 62 62 62 64 65 66 66 66 68 69 67 66 69 72 63 62 58
26 24 23 24 26 28 30 32 34 37 40 42 45 47 49 51 52 53 54 54 55 57 59 60 61 62 63 65 67 69 69 69 70 70 70 72 74 69 69 70 72 71 65
22 22 24 27 30 32 34 37 39 42 44 46 46 48 49 51 53 54 56 57 59 61 63 66 68 69 69 70 71 73 73 72 72 71 69 69 69 69 71 74 72 76 73
24 26 29 32 35 37 38 39 40 41 43 45 47 49 52 55 57 59 61 62 64 66 68 69 71 72 71 70 70 69 68 67 66 64 64 66 68 69 68 72 70 70 70
29 30 31 30 30 33 36 38 41 44 46 49 52 55 57 59 60 61 62 63 63 64 64 65 65 66 67 68 68 68 70 72 72 69 62 64 65 67 69 69 69 71 71
28 27 29 32 34 35 38 42 45 48 51 53 55 56 57 58 59 61 62 64 65 66 68 69 71 72 73 75 76 75 75 77 76 77 76 76 69 66 65 67 69 70 72
27 30 35 37 38 40 42 44 45 47 49 51 54 57 59 60 62 65 66 68 69 70 72 73 75 76 78 79 80 81 80 79 79 78 78 77 77 78 76 71 70 70 73
31 35 39 41 41 41 43 46 50 52 55 58 61 63 65 67 69 70 71 72 74 75 77 78 79 80 80 79 78 79 80 81 81 81 81 79 77 77 76 74 73 70 67
35 37 37 39 43 47 49 53 57 60 63 65 67 69 71 72 74 75 76 76 77 77 78 78 78 80 81 81 82 83 82 81 80 79 78 77 76 74 73 72 72 70 66
36 38 43 49 53 56 58 62 64 67 69 71 74 76 78 80 82 83 85 85 85 84 81 80 81 80 79 82 84 84 85 83 80 78 76 76 76 75 72 70 68 68 68
44 48 50 54 58 62 64 67 71 74 76 79 81 84 86 87 88 88 86 86 86 84 81 81 81 83 84 83 83 83 81 82 82 81 81 80 77 75 74 73 71 69 67
51 54 56 61 65 68 71 73 76 79 83 86 87 88 89 89 89 89 88 88 86 82 81 81 82 81 81 82 87 87 84 81 80 77 76 77 75 74 73 71 69 68 68
56 60 63 66 68 71 74 78 81 84 87 90 93 93 93 91 89 87 87 86 85 83 83 83 84 83 82 82 81 80 77 76 74 73 74 72 71 71 73 71 71 69 69
62 64 67 70 74 78 80 84 87 90 91 91 91 89 86 84 84 83 81 80 78 77 76 77 77 78 80 80 79 77 77 75 74 74 74 73 73 75 78 77 74 72 71
65 68 72 75 78 79 84 87 89 91 90 88 85 83 80 76 73 72 72 72 72 71 71 71 72 73 76 78 78 79 80 79 77 77 78 80 80 81 83 83 82 77 70
69 73 75 79 82 86 88 90 89 86 83 82 79 73 70 71 71 70 68 66 66 68 70 72 74 77 79 82 83 85 85 83 82 81 80 81 82 81 78 77 75 73 64
73 75 79 84 86 86 85 80 78 75 71 67 67 68 67 63 61 62 64 65 70 73 76 79 81 84 86 87 87 87 87 86 83 78 73 71 68 65 61 59 58 55 49
74 79 83 86 82 77 73 69 67 63 62 64 62 59 60 63 65 67 71 74 77 79 80 82 84 86 85 84 82 79 77 76 74 68 62 58 57 52 50 50 45 44 46
80 83 84 80 73 67 64 62 60 60 60 59 60 62 64 67 71 75 77 79 80 83 86 87 87 82 78 76 74 70 67 65 63 58 53 48 44 42 41 40 38 36 38
82 81 77 70 64 63 62 61 61 61 60 62 65 68 70 73 76 79 82 83 86 88 90 88 82 76 71 65 62 56 51 50 48 45 40 37 36 33 34 34 28 26 27
82 76 66 61 61 61 61 62 62 62 65 69 71 74 77 79 82 84 86 88 89 91 89 83 77 69 59 52 49 44 39 37 36 33 31 29 28 27 30 29 24 20 19
74 67 61 59 60 60 61 62 65 68 71 74 76 80 83 85 88 90 88 88 87 83 76 68 61 52 48 46 43 38 33 32 29 25 23 23 22 24 26 23 21 18 14

GFSMW_500_spd_012.txt.gz
Wind_Speed
21 20 19 19 20 23 26 29 30 30 29 28 28 27 26 23 25 27 28 30 32 33 34 35 36 39 41 43 43 45 47 47 51 55 56 58 57 57 57 59 59 59 59
19 19 20 22 24 27 31 32 32 29 27 25 25 26 28 28 30 31 32 34 36 39 41 43 44 46 48 50 51 53 54 54 55 58 62 63 61 58 62 63 62 61 60
18 19 22 25 29 33 35 34 31 28 27 27 27 28 29 31 33 36 39 42 44 46 49 51 53 54 55 56 56 57 59 61 60 61 65 67 67 66 60 62 62 62 61
20 23 27 31 33 35 34 31 30 30 30 31 31 33 35 37 39 42 45 47 49 50 51 52 53 54 57 58 60 61 62 63 64 66 66 67 70 73 73 64 63 65 64
25 28 31 33 32 32 29 29 30 31 32 34 37 39 41 42 43 44 46 47 50 52 53 55 57 59 62 63 65 67 70 71 72 73 73 74 73 71 74 75 66 64 61
28 28 26 25 25 27 28 30 32 33 35 37 39 40 41 43 45 46 49 51 54 57 59 62 64 65 67 69 70 71 70 70 71 71 70 68 70 66 64 66 66 64 57
24 23 23 24 25 28 29 30 32 34 35 37 39 41 43 46 49 52 55 57 58 59 60 60 61 63 64 65 65 66 66 67 68 69 70 68 65 61 62 66 67 67 63
23 23 23 25 26 27 29 32 34 37 39 41 43 46 50 53 54 54 54 56 57 59 61 64 66 68 70 72 72 73 73 74 75 75 75 76 76 73 66 65 70 69 68
24 23 24 26 28 30 33 35 38 41 44 47 48 48 48 50 53 56 60 62 64 66 68 71 72 73 74 75 76 77 78 78 78 79 80 81 80 77 76 74 71 71 74
23 25 28 30 32 34 37 39 42 45 44 44 47 49 52 55 58 61 63 64 67 70 73 75 77 79 80 81 82 83 83 84 84 84 85 83 81 80 78 77 77 76 74
26 28 30 34 37 39 41 41 41 43 47 51 54 57 60 62 64 67 69 72 75 78 80 83 84 86 87 87 87 88 88 87 86 85 84 84 83 82 79 78 78 78 77
28 32 35 36 35 37 40 44 47 50 53 57 60 63 66 68 71 73 76 79 83 86 88 90 92 92 91 90 89 90 89 88 86 85 84 82 80 80 80 80 78 77 75
35 37 36 35 38 42 46 50 53 56 60 63 66 68 71 74 77 81 84 87 90 93 95 96 97 97 96 95 92 90 88 86 85 84 83 82 80 78 76 75 75 74 73
34 34 35 40 44 49 52 56 60 64 66 68 70 74 77 81 83 86 89 93 97 98 98 96 95 94 93 92 92 91 89 86 83 81 79 78 78 78 74 72 70 70 68
36 39 43 46 50 55 59 62 64 67 70 73 77 80 82 84 88 92 96 99 101 100 100 98 94 90 86 81 80 79 78 74 72 71 70 70 69 69 70 71 69 69 67
39 43 48 52 57 60 62 65 68 72 75 79 81 83 86 90 94 97 98 97 95 95 96 93 82 77 74 73 72 72 70 70 70 70 70 70 70 71 72 71 71 68 67
46 51 56 60 64 67 69 71 74 76 77 80 85 89 92 95 96 94 91 90 89 83 76 74 72 71 71 70 70 71 72 73 74 75 75 73 73 74 76 74 73 71 72
53 59 62 64 66 69 71 74 76 78 82 87 91 93 95 94 89 86 83 76 72 71 68 66 66 66 69 72 76 78 80 82 83 84 83 82 80 81 84 81 79 75 75
57 60 62 64 67 69 72 74 77 82 86 90 93 93 88 83 79 74 69 68 66 65 67 68 70 73 75 79 81 83 84 84 85 85 83 80 79 78 79 80 79 77 74
59 61 63 66 69 71 73 77 81 85 89 91 87 81 76 73 69 67 66 66 68 69 72 74 78 82 84 85 86 88 89 88 86 82 77 73 71 69 68 68 66 66 65
62 65 68 71 72 74 78 82 85 88 87 80 75 71 69 68 68 67 69 71 73 77 80 81 84 87 89 89 89 89 87 86 82 77 71 65 62 60 58 58 56 55 53
66 68 71 72 74 78 83 86 88 83 76 71 69 68 68 69 70 72 74 77 81 84 86 89 91 92 91 90 89 87 83 78 73 67 60 55 51 48 45 44 41 40 41
70 73 73 74 79 83 85 86 81 74 69 67 67 69 69 71 74 77 80 84 89 94 95 95 95 93 89 85 81 75 69 60 55 51 50 47 42 38 34 31 30 31 33
74 74 76 80 83 85 84 78 71 66 65 67 69 69 71 74 78 83 89 92 96 97 97 95 91 84 75 68 64 59 50 42 42 40 42 44 36 29 24 22 23 24 23
74 76 80 82 84 82 76 71 67 66 66 68 70 72 76 81 86 89 92 93 92 90 85 78 73 66 56 50 47 43 37 33 32 31 32 32 31 23 18 16 16 16 17
74 79 82 83 80 73 67 65 65 66 69 70 74 79 84 88 90 91 87 79 71 67 63 59 56 50 47 43 42 38 31 30 31 29 27 25 24 17 12 10 11 15 16

GFSMW_500_spd_015.txt.gz
Wind_Speed
24 20 21 22 21 20 20 22 26 29 32 34 35 34 33 32 31 31 30 31 31 33 34 35 37 40 42 44 47 49 51 52 53 56 55 56 57 58 58 61 63 62 62
22 21 20 20 22 22 24 26 29 32 34 35 34 32 31 31 31 31 32 33 35 38 40 42 43 45 47 49 51 54 55 56 58 60 62 62 60 58 60 62 63 63 64
22 21 20 22 24 25 28 31 33 33 34 32 31 31 31 31 32 34 37 38 40 41 43 44 45 47 50 52 55 57 60 62 64 66 69 71 72 72 68 66 65 65 67
20 19 21 24 28 31 32 33 34 34 32 30 29 31 32 34 36 38 39 41 43 45 47 50 53 55 57 59 61 63 64 65 66 67 68 69 72 75 75 71 66 59 60
23 23 27 30 33 35 34 33 31 29 29 31 33 35 36 37 39 40 43 45 48 50 53 56 58 59 60 60 60 60 62 65 66 68 69 70 71 72 74 75 73 71 62
27 27 31 34 35 33 29 28 27 29 31 34 36 37 39 40 42 45 47 50 53 54 55 55 57 59 61 62 63 65 67 68 69 71 72 74 75 76 78 78 77 76 71
31 30 33 34 31 29 28 29 31 33 35 37 39 41 43 45 48 50 51 50 52 55 58 60 62 64 65 67 69 72 75 77 78 78 78 78 79 80 80 81 80 82 79
31 31 33 31 26 29 31 33 35 37 38 40 43 45 47 47 47 49 51 54 58 61 62 64 66 69 71 74 77 80 82 85 87 88 88 87 85 83 84 85 85 84 82
32 32 30 28 30 33 35 36 38 40 42 44 45 44 45 50 52 55 59 62 65 67 69 71 74 77 80 83 85 87 89 91 93 93 94 93 93 90 87 85 84 85 88
28 27 29 30 33 34 36 38 40 42 42 42 44 49 52 55 59 63 66 68 69 72 74 77 80 83 86 89 92 95 97 98 98 96 94 93 93 94 90 88 85 83 83
29 30 30 31 34 36 37 38 38 40 43 47 50 53 57 61 65 67 69 71 74 77 80 82 85 88 92 96 100 103 105 104 102 98 96 94 94 92 88 86 85 82 77
30 30 30 33 37 37 37 39 41 45 49 53 56 60 63 66 68 70 73 76 79 82 84 88 92 96 100 102 104 104 104 102 98 92 85 80 77 76 75 75 74 74 74
28 32 34 35 35 36 40 43 47 52 57 62 65 67 69 71 73 76 79 81 83 85 89 93 97 100 102 102 101 100 98 91 81 76 72 69 68 67 67 68 69 69 69
31 32 33 35 37 40 43 47 52 57 61 65 68 71 74 77 78 79 81 83 86 91 96 99 101 101 99 98 94 85 79 74 70 68 66 66 67 68 69 69 70 70 70
31 33 35 38 41 46 50 54 58 62 65 69 72 74 75 77 79 80 84 89 94 97 100 99 97 96 92 84 77 74 72 70 67 67 68 70 72 76 78 78 76 78 78
34 36 39 44 48 52 55 59 63 66 69 71 72 74 75 77 81 87 92 96 99 98 95 92 87 83 77 73 71 73 72 73 74 76 78 79 80 81 82 82 83 83 85
37 41 45 50 54 57 60 63 66 69 70 72 72 74 78 83 89 93 97 98 97 91 86 82 79 75 72 73 74 77 79 80 82 84 85 85 87 89 89 87 85 83 82
43 47 51 55 58 61 64 67 69 70 72 75 77 80 84 89 93 96 97 92 87 82 80 79 78 76 76 79 82 85 87 90 91 93 92 92 91 90 88 81 77 74 72
48 51 55 58 60 62 65 68 71 74 76 78 81 86 90 93 95 92 86 81 78 77 77 77 78 80 81 87 91 95 98 100 98 95 91 88 85 84 83 77 71 66 61
51 54 56 59 62 64 67 71 74 75 77 81 86 90 94 93 87 81 78 75 76 76 78 80 83 87 91 95 99 101 100 97 94 89 82 77 74 71 69 66 62 57 51
54 57 59 61 64 68 70 72 74 76 80 84 89 91 87 80 76 74 73 74 77 81 85 89 92 95 96 95 92 89 87 83 78 70 63 57 54 53 52 51 50 48 44
58 60 62 64 67 70 72 74 77 81 84 88 87 81 75 72 71 71 74 80 86 90 93 94 93 90 84 75 72 69 65 59 56 49 43 41 41 42 42 40 40 38 34
61 63 65 67 70 72 75 78 81 84 87 84 78 73 68 67 69 75 81 87 91 93 94 91 84 70 65 62 58 57 53 48 45 43 41 40 40 38 35 33 32 29 23
62 64 67 70 73 76 78 80 83 85 82 76 71 67 65 66 72 79 86 90 91 90 84 75 69 66 59 55 57 55 49 44 40 37 34 35 35 34 30 25 24 18 13
62 65 68 72 74 77 80 83 83 81 76 71 67 64 65 70 75 82 87 89 84 78 75 71 70 61 52 54 57 50 45 42 37 33 31 32 30 29 25 19 11 8 7
64 68 71 73 76 79 81 82 80 77 71 66 64 64 68 73 79 84 85 81 75 71 70 72 67 56 56 55 54 47 42 38 36 32 31 28 26 23 16 6 5 3 8

GFSMW_500_spd_018.txt.gz
Wind_Speed
20 24 26 25 25 24 22 23 21 23 26 28 30 33 35 36 36 36 35 33 33 33 35 37 39 41 42 44 46 48 49 51 54 56 57 58 58 58 59 60 61 62 62
21 23 23 24 24 22 22 23 25 28 31 34 35 35 35 34 34 34 34 34 36 38 40 41 43 45 46 48 51 54 56 57 60 62 64 64 61 60 60 59 59 60 60
20 23 25 25 22 20 22 24 28 32 36 37 37 35 32 32 33 34 37 39 40 41 43 45 47 50 52 54 56 57 59 60 60 62 66 68 67 68 66 65 64 64 64
19 22 25 24 23 22 24 29 33 36 38 36 34 32 32 34 36 38 40 42 44 46 48 51 52 53 53 54 56 59 61 64 65 65 66 68 70 73 73 72 73 72 69
20 23 26 27 28 29 30 33 36 35 31 30 32 33 35 38 40 42 44 46 47 48 49 49 51 53 56 60 62 62 64 66 68 71 73 75 78 80 83 82 81 81 81
24 27 30 30 32 34 33 33 32 30 30 33 36 38 39 41 43 45 46 47 47 49 52 55 58 61 63 66 67 69 71 74 76 78 80 82 84 86 90 91 90 89 87
26 28 29 31 35 36 33 32 31 33 35 39 40 42 43 44 44 44 44 47 50 53 57 60 63 66 69 72 74 76 78 80 82 84 86 89 92 95 98 100 99 98 95
28 30 32 32 33 35 34 32 35 39 40 42 44 44 44 42 42 46 49 52 56 60 64 67 69 72 74 76 78 79 81 83 85 88 92 95 97 99 99 102 102 101 99
30 31 30 31 34 35 35 37 40 42 42 42 43 42 42 45 50 54 58 62 66 69 71 73 74 76 77 79 81 84 87 90 94 98 100 102 102 101 101 99 92 91 99
29 29 28 32 34 35 38 40 42 41 41 42 42 44 48 52 56 60 64 68 72 74 75 76 78 79 83 86 90 92 95 99 102 104 104 103 101 100 97 89 79 75 78
26 27 30 33 36 38 39 38 39 41 41 41 44 47 51 54 59 64 68 71 75 77 79 81 84 86 89 92 94 97 99 102 105 105 101 98 95 88 78 71 68 67 70
27 31 33 34 36 38 38 38 38 39 41 44 48 53 57 61 65 69 72 74 75 78 81 83 86 88 92 95 98 101 104 104 102 97 90 85 78 70 67 66 66 67 68
30 30 33 36 38 38 36 36 38 42 47 50 55 59 63 66 69 71 73 76 79 81 83 86 89 92 96 101 104 104 103 97 91 84 80 76 73 71 71 71 71 72 74
29 34 37 37 37 36 37 40 45 50 54 59 61 64 66 69 73 75 77 79 81 83 86 90 94 98 102 103 100 96 90 85 82 80 78 78 78 78 77 78 79 82 84
35 37 36 36 36 39 43 48 52 57 60 62 64 66 70 73 75 77 79 82 84 87 90 95 99 101 97 92 88 84 83 82 80 79 80 82 83 85 87 88 87 90 92
35 34 34 37 41 45 49 52 55 59 61 64 66 69 71 74 77 79 82 85 88 92 95 99 97 91 86 83 83 84 83 84 86 87 89 91 93 95 96 98 98 98 99
35 35 38 42 46 50 52 55 58 61 64 66 69 72 75 77 79 82 85 88 91 95 95 93 87 83 81 82 86 90 92 93 93 93 93 92 91 92 93 92 93 92 89
35 39 43 47 50 53 56 59 62 64 67 69 73 76 77 80 83 85 88 91 93 93 90 84 79 79 83 89 92 93 93 91 86 81 77 76 75 76 76 76 74 73 70
39 44 47 50 53 56 59 61 64 67 71 73 75 77 79 82 85 87 90 91 91 86 78 76 79 84 88 93 93 90 84 76 71 68 66 68 67 64 62 62 59 55 50
44 47 50 53 57 60 62 66 68 70 71 73 75 78 81 84 86 88 89 87 82 75 73 76 83 90 93 91 84 77 75 70 62 61 61 59 59 57 54 52 49 44 39
49 52 55 58 61 64 65 67 68 69 72 74 77 80 83 86 87 86 83 78 73 73 76 80 86 93 92 83 75 72 70 62 59 59 55 53 53 50 47 45 43 41 37
53 56 59 62 64 65 66 66 68 71 74 76 79 82 85 85 84 80 76 72 73 75 79 83 88 92 83 75 70 69 61 59 61 56 52 50 47 43 42 42 42 39 33
58 62 63 64 63 63 64 67 70 72 74 78 82 84 84 83 79 75 72 71 75 79 82 87 90 84 73 67 63 59 55 57 53 49 46 46 42 41 41 41 38 32 26
62 62 61 60 61 64 66 68 71 74 78 81 83 84 82 77 73 71 72 74 77 80 85 89 88 76 66 62 58 53 53 52 45 42 42 43 40 41 40 37 32 25 13
60 59 59 61 63 65 67 71 74 77 81 84 84 81 76 71 69 70 72 75 78 82 87 89 82 71 64 61 58 55 53 48 45 42 41 40 36 36 35 32 24 10 9
57 58 59 61 63 66 70 74 78 81 84 83 80 75 71 70 70 70 71 74 78 81 87 82 71 67 65 62 58 52 50 47 44 40 40 35 33 32 28 16 8 11 15

GFSMW_500_spd_021.txt.gz
Wind_Speed
20 21 20 19 22 23 25 27 26 24 24 24 26 29 33 37 39 40 39 37 37 37 37 38 40 42 44 45 47 48 50 52 55 56 56 55 56 57 58 58 57 57 58
22 24 23 23 21 21 24 26 27 25 25 27 30 33 36 39 40 39 38 38 39 39 40 42 44 45 47 49 51 52 52 52 55 59 61 62 60 59 60 60 61 61 62
23 25 24 23 21 18 22 25 27 27 28 30 34 37 39 39 37 37 38 40 42 43 43 45 46 47 48 48 49 52 56 58 60 64 68 70 70 70 68 68 69 68 68
22 21 22 20 20 19 20 23 25 30 33 34 37 36 35 35 36 38 41 43 44 45 46 46 47 47 50 53 56 59 62 65 68 69 70 73 77 79 78 77 77 78 78
24 24 23 21 22 23 25 26 29 33 35 35 34 34 34 37 40 43 44 44 44 44 45 46 49 53 57 61 64 67 70 73 76 77 79 79 80 83 85 84 84 84 86
26 26 25 26 28 29 29 29 31 32 34 35 34 35 38 40 42 44 44 44 44 45 49 52 56 60 64 67 71 73 75 77 79 81 82 84 86 88 90 92 89 90 90
25 27 27 28 29 30 30 31 31 33 35 35 37 39 41 42 43 43 42 42 46 49 52 55 58 63 67 69 72 74 77 79 81 83 85 88 91 94 97 100 100 100 97
26 27 28 30 29 30 30 31 32 35 36 37 39 41 41 42 42 41 44 46 49 52 56 60 65 69 71 73 74 76 79 82 85 87 91 93 96 99 103 107 109 109 106
30 28 29 28 29 31 31 32 32 35 38 40 40 40 42 42 42 44 47 52 55 59 63 68 71 73 74 76 78 81 84 86 89 91 94 98 102 104 105 104 102 102 106
29 27 26 27 31 32 32 32 34 37 38 39 40 39 40 43 46 50 54 58 63 68 73 75 76 77 79 80 83 85 88 90 93 96 99 101 102 102 101 98 92 87 87
27 26 27 29 30 32 33 35 34 37 39 37 38 40 43 47 53 57 62 66 70 73 76 77 78 79 81 84 86 88 91 94 97 99 99 100 100 96 91 87 84 83 84
24 26 28 29 32 34 35 37 36 36 37 39 42 46 50 55 59 63 67 70 73 75 77 78 80 83 85 87 89 91 95 96 97 98 98 95 91 86 85 85 85 86 87
25 26 29 31 34 35 36 35 34 36 40 44 49 53 57 60 64 67 70 72 74 76 78 81 84 86 88 90 93 95 95 96 97 94 91 88 90 91 92 91 92 92 93
26 29 31 32 34 35 34 36 38 42 46 51 54 58 61 64 67 69 72 74 76 79 82 84 86 88 91 94 95 95 96 94 89 87 89 92 92 91 89 88 86 87 88
28 30 32 33 34 33 36 40 44 48 51 55 58 61 64 67 69 71 74 76 79 82 84 86 88 92 94 94 94 94 89 87 87 88 92 91 88 84 82 79 76 76 76
29 32 33 33 36 39 41 45 49 52 55 58 62 64 67 69 71 73 76 79 81 83 85 88 90 92 92 91 87 86 86 87 89 92 88 82 78 74 69 67 71 73 72
31 33 35 37 38 41 45 48 52 56 59 62 64 67 68 70 72 75 78 80 82 84 86 89 91 89 86 82 83 84 86 88 91 87 80 72 71 66 64 66 63 61 61
33 33 35 37 40 44 49 53 57 60 62 65 67 68 69 71 74 77 79 81 83 86 88 89 87 83 79 81 83 83 86 89 86 78 72 69 62 63 67 64 60 56 51
32 33 37 41 45 49 54 57 60 63 66 66 67 67 70 73 75 77 80 82 85 86 86 83 81 79 78 80 81 86 88 85 75 69 66 62 60 63 62 60 56 50 47
33 37 41 45 50 54 57 61 64 65 65 65 67 69 72 73 77 78 81 84 86 84 81 79 78 78 78 78 82 88 86 75 67 63 59 58 60 58 55 57 53 49 46
37 42 46 51 55 58 62 65 64 63 63 66 68 70 72 75 77 80 83 83 82 80 78 75 75 76 77 79 83 85 75 70 64 60 56 56 54 52 52 54 51 48 44
43 48 52 56 59 63 64 63 62 62 65 66 68 71 74 78 80 82 83 82 80 77 73 72 72 74 77 80 84 78 68 66 64 60 54 51 50 48 50 50 46 44 39
49 52 56 60 63 63 61 60 62 63 64 67 70 73 77 80 82 83 81 78 75 72 71 73 72 72 76 80 81 70 64 63 61 57 53 49 47 45 47 44 42 37 24
52 56 60 61 62 60 59 61 61 63 65 68 72 76 80 82 82 80 77 73 70 69 72 73 73 74 77 82 76 65 62 60 59 51 47 44 41 43 42 38 33 18 15
57 60 61 61 58 59 60 61 62 64 67 71 77 80 83 83 80 76 72 68 68 72 73 74 76 77 79 81 68 64 61 58 55 47 43 36 34 34 32 25 14 15 19
60 60 57 56 58 59 59 60 62 66 70 75 80 83 84 82 78 72 65 65 68 70 73 75 77 78 83 74 63 60 57 56 50 40 37 31 31 27 17 11 14 20 27

GFSMW_500_spd_024.txt.gz
Wind_Speed
25 25 25 25 24 25 26 28 27 25 25 27 27 28 30 33 34 37 40 42 41 40 40 40 41 43 44 45 46 47 47 48 50 51 51 54 56 58 61 62 63 65 66
24 25 25 26 28 30 31 30 27 25 23 24 26 30 34 36 38 41 41 40 39 40 41 42 43 43 45 46 46 46 48 51 54 58 61 62 61 64 66 68 69 69 69
23 24 25 27 30 31 30 29 25 24 23 25 27 31 34 37 38 37 37 38 39 41 42 43 44 44 44 44 46 49 52 53 56 61 66 69 70 70 69 70 71 73 74
23 24 25 28 29 28 28 28 28 28 28 29 31 32 34 35 35 36 38 40 41 42 43 44 44 43 46 48 50 52 57 61 65 68 69 72 76 79 78 77 78 78 80
25 26 27 28 27 27 28 28 29 29 30 31 34 35 34 34 36 39 40 41 42 44 44 44 45 48 49 52 56 60 64 70 73 75 76 77 77 80 83 84 87 87 89
29 30 31 30 29 28 29 30 30 31 32 33 34 35 35 36 38 40 41 42 44 44 45 47 49 52 55 59 63 67 71 75 76 77 79 81 84 85 87 88 88 89 89
30 30 30 31 31 29 30 31 32 32 32 34 35 35 35 37 39 41 42 44 45 45 47 51 54 58 61 65 69 73 76 77 78 80 82 84 87 90 93 95 95 95 95
29 31 31 32 29 29 29 30 31 32 34 34 34 36 37 38 40 41 42 43 45 47 52 57 60 64 68 71 73 76 78 79 81 82 85 87 90 94 97 100 103 103 102
29 31 31 30 28 28 30 31 32 33 34 35 35 37 38 38 38 39 43 46 49 55 59 62 65 68 71 74 76 78 80 82 84 86 88 91 95 97 99 102 105 109 112
26 28 29 28 28 30 31 31 31 32 34 35 36 37 38 39 40 43 48 53 56 59 63 66 69 71 73 77 79 81 83 85 88 90 93 95 98 100 102 103 102 100 101
29 29 28 28 29 29 29 30 31 32 33 35 36 37 39 42 46 50 53 57 60 64 67 69 71 74 77 79 82 84 86 89 91 93 97 99 101 102 102 100 99 99 99
30 30 27 26 27 29 30 31 31 33 34 36 38 40 44 49 52 55 58 62 66 68 71 72 74 77 80 83 85 86 89 91 94 98 100 101 101 98 96 95 93 94 93
28 27 26 26 28 30 32 32 33 34 36 38 42 46 49 53 57 61 64 67 69 71 72 74 77 80 83 84 86 88 91 94 97 99 99 98 96 92 88 90 90 89 87
26 26 27 28 30 31 32 34 35 37 40 44 47 51 54 59 62 65 67 69 71 72 74 77 80 82 83 85 87 89 92 95 96 96 95 91 86 88 89 86 84 80 78
26 27 28 30 31 32 33 33 38 42 44 48 51 55 59 63 66 68 70 71 72 74 78 79 81 81 84 85 90 93 94 96 95 92 87 83 86 87 85 80 75 73 70
28 29 30 31 33 33 34 38 41 44 48 51 56 60 63 67 69 70 70 71 74 77 78 79 81 82 85 89 91 93 94 91 88 83 79 83 86 84 77 71 70 68 68
30 30 31 33 34 37 39 40 44 47 52 56 60 64 68 69 69 69 70 73 75 77 79 81 83 86 89 90 91 90 85 83 80 80 81 82 83 76 70 66 64 62 61
31 31 33 35 36 38 40 43 47 52 57 61 65 69 69 68 68 70 72 74 75 78 81 84 87 89 91 90 86 81 78 77 78 81 83 84 74 69 67 64 59 55 55
29 32 33 35 37 40 43 47 52 57 61 66 68 68 67 67 69 71 72 74 77 80 84 88 90 90 87 83 78 77 75 75 78 80 84 75 67 66 64 61 57 53 51
30 34 35 37 39 43 47 52 57 61 66 66 66 64 66 68 69 69 71 76 81 85 88 90 91 86 80 75 74 74 76 77 78 81 76 67 65 63 59 57 55 53 50
33 34 36 39 43 47 53 58 62 65 65 63 63 64 66 66 66 70 77 84 87 89 90 89 84 80 75 72 72 75 78 80 80 78 66 62 61 57 53 53 51 49 43
33 35 39 43 48 53 58 62 64 62 60 61 62 63 64 66 71 77 84 88 91 91 87 83 78 73 70 71 73 76 78 81 82 68 59 56 54 50 48 44 43 39 27
36 40 44 49 53 57 62 60 58 57 59 60 61 63 67 73 78 84 89 90 89 87 83 77 71 68 68 70 74 76 77 80 70 59 54 50 43 43 38 38 34 21 18
41 45 49 53 57 59 56 54 55 56 56 59 63 69 74 79 86 89 90 89 86 81 74 69 67 67 69 72 75 76 79 72 57 51 46 41 41 36 34 29 20 19 23
45 49 52 56 55 51 51 52 52 54 58 64 69 74 80 85 88 88 87 83 78 73 69 68 69 70 71 74 76 80 75 57 50 46 45 42 32 30 25 20 21 25 32
48 51 52 48 48 49 48 51 54 59 65 70 76 81 86 89 90 87 83 77 69 66 67 70 73 73 76 76 79 78 60 48 46 43 40 33 29 22 15 16 22 31 30

GFSMW_500_spd_027.txt.gz
Wind_Speed
30 29 28 27 27 29 28 28 28 31 34 36 34 33 32 30 30 32 34 37 40 41 40 38 37 38 38 38 40 41 41 42 43 45 45 46 49 52 55 58 60 62 64
31 30 29 28 28 29 30 30 31 34 35 34 33 32 31 31 34 36 38 40 40 37 37 38 39 40 41 42 43 43 43 45 48 51 52 53 54 58 62 66 68 69 69
29 30 30 30 29 29 30 32 34 35 35 33 34 33 33 34 36 39 40 39 39 38 40 41 42 43 44 45 45 47 50 51 52 56 61 63 64 67 69 71 73 74 74
27 29 30 29 28 29 31 32 33 32 32 34 35 35 36 37 39 39 39 40 40 41 42 43 45 46 46 47 49 51 53 56 59 63 67 71 75 79 80 81 80 79 79
27 28 29 29 29 29 30 30 31 32 33 34 35 36 38 39 39 38 39 40 41 42 45 46 46 46 47 49 51 57 59 64 68 72 75 76 77 79 83 87 87 86 86
30 31 31 31 30 31 31 32 32 31 32 34 35 37 38 39 39 39 39 41 43 44 45 46 46 47 50 55 59 62 65 68 71 74 76 79 82 84 87 88 87 88 89
31 32 33 33 33 33 32 31 31 31 32 35 37 37 38 39 38 39 41 43 44 44 44 46 49 54 57 61 63 67 69 72 74 77 79 82 85 88 90 92 91 91 91
29 30 30 32 34 34 32 33 32 33 34 35 37 38 38 38 38 40 41 43 44 45 48 52 56 59 62 65 69 71 73 75 78 80 83 85 88 90 92 94 97 97 97
29 29 29 30 32 31 31 32 33 34 34 35 36 36 37 38 39 39 41 43 47 51 54 57 61 64 67 70 72 75 77 78 80 83 86 88 90 91 93 97 102 109 110
28 27 27 28 30 32 33 33 33 33 33 33 35 36 37 38 39 41 44 47 51 55 59 62 66 69 72 74 76 78 79 82 85 87 89 90 91 95 99 103 107 109 110
28 28 29 30 32 33 32 33 32 31 32 34 35 36 38 39 42 45 49 53 56 59 63 67 70 73 75 77 78 80 83 85 88 89 91 94 98 101 104 107 107 105 102
27 29 30 31 30 30 32 32 31 33 35 35 36 37 39 42 47 50 53 57 61 64 68 72 74 75 76 78 81 83 86 87 89 92 96 99 102 105 106 104 101 98 95
26 28 29 29 29 31 32 32 33 35 36 38 38 40 44 48 50 54 58 62 66 70 73 74 75 76 79 81 83 85 86 89 93 97 100 102 104 103 101 98 94 90 88
31 32 31 30 30 32 33 34 35 37 38 39 43 45 47 50 54 59 63 68 71 74 74 73 75 78 80 82 84 87 91 94 98 101 102 100 99 98 93 89 86 85 87
33 33 31 31 32 33 34 36 37 39 40 43 45 47 50 55 60 64 69 72 74 73 72 75 76 77 79 85 90 95 98 100 100 99 97 96 93 88 84 85 84 85 83
33 30 30 32 32 35 36 38 39 41 43 44 47 51 56 60 65 69 73 73 71 71 73 74 75 80 88 94 97 99 100 99 96 94 91 87 82 81 81 83 84 80 75
32 31 32 34 35 37 39 40 41 41 44 47 52 57 61 66 70 73 70 68 69 71 72 75 82 87 94 96 99 99 95 92 90 88 84 79 78 79 82 83 75 69 66
31 32 33 35 37 39 40 40 41 43 47 51 57 62 66 71 70 65 66 68 70 73 77 82 88 94 96 99 99 93 89 86 83 80 79 78 78 81 83 76 68 63 61
31 33 36 37 37 37 39 40 42 46 51 56 61 66 68 63 62 63 64 67 72 77 82 87 93 97 98 95 91 87 84 78 76 77 76 80 81 82 72 68 65 60 53
34 35 35 36 37 39 39 42 46 51 56 61 65 64 59 59 59 62 67 72 77 83 87 93 97 98 93 88 85 80 78 76 75 73 76 79 82 69 62 62 58 52 45
33 32 33 36 35 37 41 46 51 55 60 64 59 56 56 58 62 69 74 80 86 90 94 98 97 92 87 80 75 73 74 76 75 76 76 78 65 57 54 52 52 45 40
32 32 33 35 38 41 46 50 55 59 60 54 53 54 57 62 68 73 78 86 92 94 98 97 92 85 78 72 70 71 74 78 80 79 78 61 51 49 51 47 42 39 28
30 32 34 37 41 45 50 55 59 55 50 50 53 56 61 67 73 77 85 91 94 99 97 91 83 75 70 68 69 73 76 78 81 79 59 46 45 45 39 40 36 27 26
31 33 36 41 45 49 54 56 49 48 49 52 56 62 67 72 76 83 91 95 99 97 90 80 73 68 67 69 72 76 77 79 75 54 42 40 39 37 37 32 27 29 35
34 37 40 44 48 53 50 47 47 49 51 56 62 66 71 78 82 89 94 99 97 89 77 71 69 69 69 73 77 80 81 71 50 39 37 36 33 31 27 23 27 34 30
37 40 44 48 51 45 44 46 48 51 57 62 66 71 77 83 87 92 98 98 89 77 69 68 70 71 75 77 80 80 65 46 41 37 35 30 29 23 19 23 27 20 18

GFSMW_500_spd_030.txt.gz
Wind_Speed
25 28 29 33 32 27 24 24 25 27 29 31 33 36 38 37 36 35 33 33 35 38 41 43 42 41 39 39 39 40 41 42 44 43 44 46 47 48 50 53 56 58 61
27 26 29 27 26 27 26 26 27 30 32 34 36 38 38 37 36 35 35 36 39 41 43 42 42 40 41 42 43 44 43 44 48 50 51 50 50 53 57 61 66 69 71
27 27 28 29 29 28 27 27 28 30 33 37 38 37 35 35 37 37 38 40 42 43 43 43 43 43 44 46 47 47 48 47 50 54 60 62 63 65 64 66 69 72 73
25 24 24 27 29 29 28 28 29 32 34 35 35 35 34 36 38 39 41 42 44 44 44 43 43 45 46 46 47 49 50 54 57 60 63 68 73 77 75 72 72 73 75
25 24 24 24 27 27 28 29 30 32 34 36 34 35 36 37 39 40 42 42 42 42 44 44 44 45 45 47 50 53 57 60 63 66 69 71 73 76 79 77 79 80 81
25 25 24 24 25 27 29 31 31 34 35 36 35 37 37 38 39 40 41 42 41 42 44 44 44 45 48 52 56 59 63 66 68 71 74 77 79 80 82 82 82 83 85
26 26 25 26 26 29 31 32 33 35 37 36 37 39 38 38 40 40 40 41 43 43 44 45 47 50 54 58 61 64 67 70 73 76 78 79 81 84 87 89 89 88 88
26 26 25 25 26 29 31 33 33 34 35 36 38 39 39 39 39 39 40 42 42 43 45 48 52 55 59 62 65 69 72 74 77 78 80 82 84 87 90 93 95 94 93
26 25 25 25 26 28 30 30 33 34 35 36 38 38 38 38 38 40 41 42 43 46 50 53 56 60 63 66 70 73 75 77 79 81 84 86 88 91 94 96 100 105 105
24 26 25 26 27 29 30 32 32 33 34 36 36 37 37 38 39 40 43 43 46 50 54 57 60 64 67 71 74 76 77 79 81 84 85 88 91 94 99 103 106 107 108
26 27 26 27 28 31 32 32 33 34 33 34 35 36 38 39 40 42 45 48 51 53 57 61 65 69 72 74 75 76 78 80 82 85 90 94 99 103 105 105 104 103 102
25 26 26 27 29 31 33 33 33 33 34 35 36 38 39 40 41 45 49 51 54 58 62 66 70 72 73 73 74 75 77 81 87 93 97 101 105 106 104 101 99 97 96
23 24 25 27 30 31 32 31 32 34 35 36 38 40 41 42 45 48 51 54 59 63 68 70 70 70 70 71 73 77 83 90 95 100 104 106 105 101 98 95 94 93 90
24 26 27 29 32 32 31 32 34 35 37 38 40 41 43 45 47 50 55 59 64 69 69 67 67 67 69 74 80 86 92 97 101 105 106 102 97 94 92 91 89 87 85
27 30 32 33 33 33 33 34 35 37 38 40 41 43 44 46 50 55 60 64 68 66 64 64 65 70 76 82 88 93 98 102 104 103 98 93 89 87 86 85 83 82 82
31 32 33 34 34 34 35 35 36 38 40 41 42 43 46 50 56 60 65 67 63 61 61 65 72 77 82 88 94 100 104 105 102 96 90 86 83 80 78 77 79 80 84
33 32 32 32 33 34 34 35 38 40 41 42 42 45 50 55 60 64 65 60 59 60 65 71 76 83 89 94 100 105 105 100 93 88 84 79 76 75 75 75 78 80 72
31 32 32 32 32 33 35 38 40 39 42 41 45 50 55 59 63 63 58 57 60 66 72 78 84 90 95 101 105 104 99 91 84 79 75 74 72 74 77 78 78 68 54
30 30 30 32 33 35 38 38 39 40 40 44 49 54 58 62 59 56 56 60 66 72 78 84 90 95 100 107 106 99 89 82 77 73 71 73 75 78 80 77 64 52 51
28 28 30 33 36 37 35 36 37 39 44 49 53 57 61 55 54 56 61 67 74 78 84 89 95 100 107 105 98 90 84 79 73 69 71 75 80 79 66 53 50 49 44
28 30 31 31 33 34 33 36 39 44 48 51 57 58 53 53 56 61 68 73 78 83 88 92 100 107 104 96 87 81 77 76 74 73 74 77 71 55 46 46 46 43 36
26 28 30 29 31 34 35 38 43 46 50 56 55 52 53 56 61 67 72 76 82 86 90 97 105 107 98 87 78 74 73 76 78 77 75 62 47 44 43 42 40 31 28
27 28 30 32 33 35 38 41 44 49 54 50 49 51 55 60 65 70 76 80 85 90 94 102 108 100 86 76 74 74 75 78 78 71 54 44 42 40 38 37 29 28 33
27 29 30 31 36 37 39 42 48 51 46 47 50 53 58 63 69 74 79 84 89 93 99 107 102 88 76 73 74 77 77 72 62 47 40 39 37 36 34 26 28 31 25
28 30 31 33 36 38 42 48 47 44 45 48 52 57 61 67 71 77 83 88 93 99 105 103 89 79 72 73 80 78 66 55 44 40 38 34 30 27 22 25 27 21 20
28 29 32 35 37 42 47 44 43 44 47 51 56 60 65 71 76 81 85 90 95 102 99 85 77 71 74 80 73 63 51 46 46 41 31 24 23 18 21 19 19 17 17

GFSMW_500_spd_033.txt.gz
Wind_Speed
26 30 30 29 27 27 30 28 25 26 24 25 27 29 30 33 35 36 34 34 35 35 35 37 40 42 43 44 44 43 42 44 44 43 43 44 46 47 49 52 55 57 60
25 28 28 27 24 25 27 28 27 26 26 28 29 30 34 37 37 33 31 33 37 39 40 41 43 44 45 45 45 45 45 45 47 47 47 46 47 52 55 58 61 64 67
26 31 28 27 24 24 24 24 26 26 28 29 30 33 35 36 33 32 34 37 40 42 43 43 44 45 45 45 45 46 46 46 49 53 56 57 59 59 59 61 65 68 70
24 31 29 26 24 26 25 26 27 28 29 30 32 34 34 34 34 35 37 39 41 42 43 44 45 44 45 46 47 48 49 51 54 57 62 66 69 71 70 69 70 72 73
22 28 27 23 21 21 23 25 26 27 29 31 33 34 34 35 36 37 39 40 43 43 44 44 44 45 46 47 48 50 54 57 60 63 65 68 71 75 80 81 79 77 77
25 29 26 23 21 20 21 24 26 28 31 32 34 35 36 36 37 38 39 40 41 42 43 43 45 46 47 49 52 56 59 62 65 68 71 74 76 77 78 79 81 82 84
25 30 29 23 21 21 22 26 28 30 32 34 36 36 37 38 38 40 41 41 40 41 43 44 46 47 50 53 57 60 63 66 69 72 74 76 78 81 84 86 86 85 85
24 27 27 23 21 21 23 26 28 30 32 33 34 36 37 37 39 40 39 40 42 43 44 46 48 51 54 58 61 63 66 70 72 74 76 77 79 81 83 87 91 88 89
25 23 22 22 21 22 24 26 28 30 31 32 34 35 37 38 39 39 40 42 43 44 47 49 52 55 58 60 64 68 70 72 73 74 75 76 80 85 89 93 98 104 101
22 22 22 21 20 22 24 27 28 30 31 32 33 35 37 37 37 39 42 43 45 47 49 53 54 58 61 65 69 70 71 71 71 74 78 83 87 91 96 102 106 110 111
22 23 22 20 22 25 27 29 30 30 31 32 34 35 36 36 39 41 42 44 47 49 52 54 58 62 66 69 69 69 69 70 75 80 84 89 95 100 104 108 110 107 104
18 19 20 21 23 24 27 29 30 31 31 33 35 36 36 38 41 43 43 46 48 50 54 59 63 66 68 67 66 67 71 77 82 88 93 98 104 108 111 110 105 99 95
18 19 21 22 23 24 27 29 30 31 33 35 36 37 38 40 42 43 45 47 50 54 59 63 66 65 63 63 67 73 78 85 89 95 101 106 110 110 106 99 96 92 89
17 17 18 21 23 26 28 30 31 33 34 36 36 38 40 42 42 44 46 49 54 59 63 64 62 61 63 68 74 80 86 91 97 103 108 111 110 104 97 91 88 85 82
18 18 20 23 25 26 27 29 31 34 35 35 36 39 41 43 45 44 49 54 59 63 63 60 60 64 70 77 82 88 93 98 102 109 113 109 99 92 87 84 81 79 78
19 21 23 24 25 26 29 31 34 34 35 36 39 41 42 45 43 48 54 59 62 60 58 60 64 71 77 83 88 94 98 101 108 114 110 98 88 82 79 77 77 79 82
22 24 26 28 27 29 31 32 33 34 36 39 42 41 41 43 48 54 57 61 57 57 59 64 71 76 82 87 92 97 102 106 113 111 96 85 81 79 75 73 77 77 66
25 27 28 27 28 29 29 31 33 35 39 40 41 38 43 48 52 56 59 55 56 59 63 70 75 81 86 92 97 101 106 113 110 96 86 82 77 76 77 77 71 54 45
26 25 24 25 26 27 30 32 35 37 35 36 38 43 47 51 55 57 53 54 57 63 69 74 79 85 91 96 101 107 114 108 95 85 81 80 81 79 73 62 48 42 41
23 24 23 24 26 28 30 31 33 35 35 39 41 46 50 54 54 51 53 56 61 67 73 78 85 90 96 101 107 115 112 96 84 78 81 81 75 62 47 43 40 38 35
21 22 24 26 27 28 31 31 33 36 37 41 45 48 53 51 50 52 55 60 65 71 77 83 89 95 99 105 112 111 93 83 80 81 75 65 51 41 39 37 36 31 26
21 24 26 27 29 30 31 34 35 37 42 43 47 51 49 48 51 55 60 65 69 75 80 87 92 96 102 108 110 92 79 80 80 71 59 49 42 38 34 32 28 25 28
25 26 27 28 30 31 33 34 37 41 43 47 49 47 47 50 54 59 64 69 74 81 87 92 96 99 105 110 94 78 76 75 66 58 52 46 38 31 29 25 24 23 21
25 27 28 29 31 33 34 37 39 42 45 47 44 46 49 53 59 63 68 74 81 87 91 95 98 103 108 98 79 74 73 62 55 50 43 33 26 26 21 23 22 20 18
25 27 29 30 31 33 35 37 40 43 44 43 45 48 52 57 61 66 72 79 85 91 95 98 102 105 98 79 75 73 61 55 47 38 30 26 23 20 24 22 20 19 19
24 26 27 30 31 33 35 40 40 42 41 44 47 51 56 60 64 69 76 83 88 92 95 99 103 98 79 73 72 60 53 46 39 31 30 21 20 21 15 18 18 18 18

GFSMW_500_spd_036.txt.gz
Wind_Speed
32 29 29 33 29 30 28 26 29 27 23 24 24 24 23 24 27 29 33 33 32 31 32 34 36 39 41 42 43 45 47 50 50 47 46 46 47 47 49 51 53 56 58
32 29 29 33 31 28 28 26 29 30 28 27 26 25 25 27 29 32 33 32 32 33 35 38 40 42 43 43 46 47 48 49 48 46 47 46 47 50 54 56 59 62 64
33 29 29 33 28 25 25 25 25 27 26 26 26 25 27 29 32 33 33 33 34 36 38 40 43 44 45 47 48 47 46 47 49 51 52 54 54 55 56 59 62 65 68
33 27 28 31 28 25 25 25 25 25 26 27 26 27 29 31 33 34 36 36 38 40 40 42 45 46 46 45 46 46 48 49 51 54 58 62 65 66 64 63 66 69 70
33 28 29 30 29 25 25 25 27 29 28 28 28 28 30 33 35 37 38 39 41 42 43 45 45 44 45 46 48 50 52 54 56 59 63 65 68 72 76 76 75 72 71
31 28 29 27 26 25 24 24 25 27 28 27 28 29 32 35 37 39 40 41 43 43 44 44 44 45 47 48 50 52 54 58 62 64 66 69 72 74 76 78 80 82 79
31 28 29 28 26 25 24 24 25 25 26 27 29 32 34 36 38 39 40 41 43 43 43 44 45 47 48 50 52 55 59 61 64 68 70 74 74 75 76 79 80 81 80
30 28 32 30 27 25 24 24 24 24 25 28 30 31 33 36 38 39 40 42 42 42 44 46 47 48 50 52 56 59 61 65 69 71 71 70 71 74 79 84 87 85 87
30 30 30 27 27 27 25 24 23 24 26 28 29 31 33 36 38 40 41 41 42 44 46 47 48 50 53 55 58 62 66 69 69 68 68 71 75 80 86 91 96 101 99
29 27 25 25 25 25 25 25 24 24 26 28 31 33 35 37 39 39 40 41 43 45 47 48 50 53 55 57 62 66 68 67 66 68 72 78 83 87 93 99 104 109 115
26 26 27 26 25 24 23 24 24 25 27 30 32 35 36 37 38 39 41 43 44 46 48 51 53 54 58 62 66 66 64 65 68 75 79 84 90 95 101 107 111 116 120
28 27 26 25 23 23 23 24 25 27 28 31 33 34 36 38 39 40 42 44 46 48 52 52 53 58 63 65 63 61 64 69 75 80 86 91 97 103 109 113 117 120 113
25 22 20 20 20 21 21 23 25 26 29 32 33 35 37 39 40 41 43 46 48 50 49 53 59 63 64 60 60 64 69 76 81 86 92 99 105 109 114 119 119 109 99
20 19 18 19 19 20 20 23 26 29 30 32 34 37 38 39 40 43 46 46 48 48 53 59 62 62 59 60 64 70 75 81 86 93 99 105 110 116 122 117 105 95 89
18 18 18 18 19 21 22 23 26 28 31 33 36 37 37 39 42 46 46 46 47 53 59 62 60 58 60 64 70 75 80 86 93 100 105 110 116 122 112 99 91 88 88
18 18 18 19 20 21 23 25 28 31 33 34 35 37 38 41 44 44 42 47 52 58 62 59 58 60 64 70 75 80 86 96 101 105 109 114 121 105 92 87 88 86 78
20 20 20 20 21 23 26 27 29 31 32 33 35 37 40 41 42 43 47 51 57 61 58 57 60 64 69 75 80 88 94 99 104 108 114 119 99 88 85 83 76 63 51
17 18 19 20 22 24 25 27 29 29 31 34 36 39 40 41 44 46 51 56 59 56 56 59 64 69 75 80 87 92 97 102 107 112 114 95 86 85 79 69 56 44 41
17 18 20 20 22 24 26 27 28 30 33 35 36 39 40 43 46 51 55 57 54 55 59 63 69 74 80 86 92 97 103 105 110 110 90 85 83 74 67 55 45 39 35
17 18 19 20 22 24 25 26 29 32 33 35 37 40 41 46 50 53 54 53 54 58 62 68 73 79 85 92 98 103 106 110 109 84 80 77 70 63 58 46 38 32 26
19 18 19 20 21 24 27 29 31 33 34 37 38 41 46 48 53 53 51 53 56 61 67 71 78 86 91 96 100 105 110 107 85 78 72 65 58 55 41 33 29 26 26
17 17 18 21 25 28 29 31 32 33 35 38 41 45 48 51 51 50 52 56 60 65 70 75 82 88 93 97 102 107 103 85 79 71 63 53 47 39 31 26 25 25 20
17 20 23 24 26 28 30 31 32 35 38 40 43 47 49 49 49 51 55 60 64 68 73 79 85 90 95 100 106 102 82 77 71 61 51 43 40 33 26 28 21 19 17
18 20 23 26 28 30 31 33 35 37 39 43 46 47 48 48 51 54 59 63 68 73 78 84 88 94 99 104 105 81 73 70 60 50 41 36 32 27 28 19 21 19 19
19 21 24 26 27 28 30 33 36 38 41 44 45 46 46 49 53 57 62 66 73 78 83 89 94 98 102 103 82 72 68 61 51 41 33 30 27 28 22 25 20 21 22
20 21 22 25 28 30 33 34 36 40 39 44 44 45 48 51 55 59 65 72 77 82 87 92 96 99 100 82 71 68 60 52 42 32 28 26 25 18 23 21 24 25 26

GFSMW_500_spd_039.txt.gz
Wind_Speed
40 40 36 33 32 31 32 29 26 24 28 28 27 24 25 25 24 26 27 29 30 31 31 30 33 35 37 39 41 43 45 46 46 48 48 48 47 47 48 50 51 54 56
39 40 38 32 32 32 34 32 27 27 27 32 31 26 26 26 28 28 28 29 31 31 32 33 37 39 42 43 45 47 49 51 50 48 45 43 46 49 51 53 56 59 61
36 39 40 35 33 32 32 30 27 26 27 31 32 30 28 29 28 28 29 31 32 33 35 38 40 43 45 46 48 48 47 47 47 47 48 49 49 50 52 57 59 61 63
38 36 41 34 33 33 32 28 28 25 24 26 28 28 28 30 29 29 31 33 35 37 39 41 43 45 47 48 48 47 46 47 48 52 54 56 59 60 58 57 60 63 64
39 35 40 34 35 31 31 28 27 26 26 25 25 27 30 30 31 32 34 35 38 39 41 43 44 47 49 48 47 48 49 50 52 54 57 61 63 65 67 65 66 64 62
40 36 41 35 36 30 30 28 27 27 27 26 28 31 32 32 32 34 36 38 39 40 42 44 46 48 48 48 48 50 51 54 57 60 62 63 65 68 70 71 71 72 69
43 38 39 32 32 28 29 29 27 26 25 25 27 31 32 33 33 35 37 38 39 42 43 46 47 47 47 48 50 52 54 58 61 61 63 68 70 69 69 71 72 74 75
42 40 37 33 32 29 30 27 25 25 25 24 26 29 30 31 33 35 37 39 41 43 45 46 47 47 48 50 52 55 58 60 60 64 68 67 66 67 72 77 81 82 84
41 39 35 32 34 30 30 27 25 26 24 25 27 28 30 32 33 34 38 40 43 45 46 47 48 48 50 52 55 58 58 62 66 67 64 64 67 72 78 84 90 96 96
37 40 35 33 34 31 31 28 27 25 25 27 27 30 31 32 33 36 39 41 43 45 47 47 48 50 52 55 56 57 63 66 66 64 64 67 73 79 84 90 97 104 110
37 34 33 32 31 30 30 28 27 27 27 28 29 31 31 33 35 37 39 42 44 46 46 47 49 51 54 54 58 63 66 64 63 65 68 74 79 85 91 98 104 111 119
34 31 30 30 29 29 28 26 26 27 27 29 30 30 32 33 36 38 41 43 45 46 47 50 51 53 54 59 63 66 64 63 65 69 75 81 86 92 99 106 112 118 124
31 30 29 29 30 29 27 25 25 26 27 28 29 30 33 35 37 40 43 44 44 46 49 50 51 54 59 63 66 63 63 66 71 76 81 87 93 101 107 113 119 123 117
29 28 27 27 27 25 24 23 24 25 27 28 30 31 34 37 39 42 43 43 45 47 49 50 55 58 63 65 62 63 66 71 76 81 88 95 102 108 114 119 120 109 98
25 25 25 24 23 22 22 23 24 26 27 29 31 34 36 38 40 40 41 44 46 48 50 53 57 62 64 61 63 66 70 75 81 88 94 101 107 113 120 115 102 92 85
23 22 20 21 20 21 21 22 24 27 29 31 33 35 37 38 38 40 43 45 47 50 53 57 62 63 61 62 66 70 74 80 87 93 100 105 112 117 109 94 87 81 74
21 20 20 20 20 21 22 24 26 29 31 32 33 35 36 37 39 41 44 46 49 52 57 61 61 60 62 65 69 74 79 86 94 100 105 111 114 103 88 82 75 65 61
18 18 19 20 21 22 23 25 27 28 29 31 33 34 36 38 40 42 46 47 52 55 61 59 59 62 65 68 73 79 85 92 98 104 110 112 99 84 79 70 57 49 41
19 18 19 21 21 23 23 23 25 27 29 30 32 35 37 40 41 44 46 51 54 59 58 59 61 64 68 73 79 85 90 97 102 107 109 96 84 75 68 53 45 39 34
17 17 17 18 19 20 21 23 26 28 30 31 34 37 38 40 43 45 50 53 57 57 57 60 63 67 72 79 85 91 96 100 105 106 90 79 74 65 52 43 37 33 32
17 18 19 20 20 21 22 24 26 29 32 34 36 37 39 42 44 47 52 55 55 56 58 61 65 73 79 85 90 96 100 105 105 88 76 69 61 51 42 37 33 34 24
20 19 19 20 20 21 24 26 28 30 31 32 35 38 40 43 47 51 53 53 53 55 59 63 70 77 83 89 94 98 104 103 87 74 68 59 48 40 35 33 33 24 27
16 16 16 19 22 23 25 27 28 30 32 34 37 39 42 46 49 50 50 51 54 57 62 68 73 79 87 92 96 101 100 84 73 68 60 47 40 35 32 32 25 28 24
16 17 17 20 22 23 25 27 29 31 34 36 38 41 45 45 49 48 49 52 55 61 67 72 76 84 90 95 99 99 82 72 67 59 46 38 34 32 32 28 29 27 28
12 15 17 19 21 23 25 27 30 33 35 38 40 42 44 47 46 48 51 55 61 66 70 75 83 89 94 99 99 82 71 67 59 46 37 32 30 30 30 31 31 33 34
12 15 16 19 22 25 27 29 32 35 37 38 39 43 45 44 46 49 54 60 64 69 75 82 89 94 98 96 79 68 66 59 48 36 29 28 28 27 28 31 34 34 33

GFSMW_500_spd_042.txt.gz
Wind_Speed
39 40 42 39 37 39 34 31 33 32 27 26 29 28 28 28 26 26 27 28 29 30 32 33 33 33 33 35 38 41 42 43 44 46 48 50 48 46 45 47 48 50 52
42 43 43 39 37 40 36 33 33 33 28 28 28 31 32 30 28 26 28 29 30 32 32 34 34 36 37 40 42 44 45 46 47 49 47 43 45 46 47 49 50 53 56
46 50 45 36 37 41 36 35 34 33 30 30 28 30 34 33 30 29 29 31 32 32 34 35 37 39 41 42 44 45 47 49 50 48 48 47 47 47 46 50 55 56 58
48 51 47 35 35 42 39 36 35 33 31 30 28 29 33 35 33 32 31 32 33 34 36 39 40 42 43 44 45 48 49 49 49 50 51 52 54 55 52 52 55 57 60
51 52 48 36 36 42 41 38 35 31 31 28 26 27 29 31 32 32 33 34 34 36 39 41 42 43 43 46 48 49 50 50 51 51 53 56 59 62 60 57 58 59 57
52 53 49 40 33 40 39 38 34 33 30 26 26 27 29 30 31 32 35 35 36 39 40 41 42 43 46 48 50 51 51 51 52 55 57 60 61 61 64 64 64 64 63
54 54 49 41 35 38 36 36 34 33 31 27 26 27 29 30 30 33 34 36 38 39 39 41 42 45 47 49 51 51 51 53 55 58 60 61 65 67 67 67 67 67 67
55 53 47 41 37 38 38 35 33 34 31 27 27 27 27 27 29 32 35 37 36 38 40 42 44 46 48 50 50 51 54 56 59 60 62 66 68 68 68 69 71 72 73
55 52 47 44 37 38 38 34 35 34 30 27 27 27 27 28 30 33 34 35 36 38 41 43 46 48 49 50 52 54 56 59 59 63 67 68 67 67 70 73 78 84 84
54 52 45 42 39 40 38 34 35 30 28 27 27 28 28 29 31 32 33 36 38 40 42 45 47 48 49 51 53 56 57 59 64 67 67 66 67 70 74 79 84 90 96
47 47 42 40 40 39 37 36 32 30 29 29 29 29 29 29 31 32 35 37 39 41 44 46 48 48 50 53 55 55 59 63 67 67 66 68 71 75 79 85 90 96 104
41 41 41 40 40 39 37 35 32 30 31 30 30 29 29 30 31 34 36 38 41 43 46 47 47 50 52 53 55 59 63 67 66 66 68 72 75 79 85 91 96 104 111
42 40 40 40 40 39 33 33 31 30 29 29 29 29 29 30 32 35 37 40 43 44 45 46 48 50 51 55 58 64 67 66 66 69 71 75 80 86 92 98 105 111 116
37 36 36 38 36 33 33 32 28 27 28 29 29 29 30 31 33 36 39 42 43 43 45 47 49 51 53 58 62 66 65 65 68 71 75 81 86 93 99 105 112 115 110
34 33 34 34 33 32 30 27 25 27 28 27 28 28 30 32 36 39 41 41 42 45 46 48 51 53 58 62 66 64 65 67 70 75 81 87 93 99 106 113 114 105 93
32 31 29 28 29 27 26 26 26 26 26 26 27 30 32 34 37 39 39 41 44 46 47 52 52 58 62 64 63 64 65 69 75 80 86 93 100 106 112 111 100 87 80
26 26 25 25 25 26 25 24 23 22 23 26 30 32 33 35 36 37 40 43 45 47 51 52 58 61 63 62 62 64 68 73 80 87 93 99 107 111 108 95 81 70 60
23 23 23 22 21 20 19 18 20 23 26 28 29 31 33 34 36 39 42 44 46 49 51 56 60 62 60 61 63 67 73 78 87 93 101 108 110 105 93 80 68 52 45
19 19 19 17 17 16 17 19 22 24 25 28 30 31 32 34 38 41 43 45 48 51 54 58 60 57 59 62 66 71 75 84 92 100 108 110 104 91 79 68 51 40 38
16 15 14 14 16 17 19 20 22 24 26 27 29 31 34 37 39 41 43 45 49 53 56 57 56 58 60 66 71 75 84 90 96 106 108 102 88 76 66 53 38 34 38
15 16 17 17 16 18 19 21 22 24 25 28 30 32 35 36 39 41 44 48 52 53 53 53 57 60 65 70 75 83 89 96 104 106 98 83 73 64 52 40 34 37 33
16 17 17 17 18 18 18 19 22 25 27 29 31 33 35 37 40 44 47 49 50 49 50 53 58 64 70 75 80 87 94 103 105 95 80 71 61 50 39 34 34 29 33
17 18 18 17 16 16 19 22 24 26 28 30 31 34 37 39 41 45 45 49 48 49 52 56 61 66 73 79 85 90 100 102 92 78 70 59 46 37 34 35 30 34 31
16 15 14 15 16 18 20 22 25 26 28 30 33 35 38 40 42 44 47 47 48 51 56 60 65 72 78 83 88 96 102 91 76 67 57 43 35 33 34 33 36 36 37
14 14 14 14 16 18 20 22 25 27 30 33 35 37 38 40 43 46 46 47 51 55 59 64 70 76 82 87 96 102 92 76 67 55 39 32 32 33 34 36 37 37 37
12 12 14 15 16 19 21 24 27 29 32 33 34 36 39 42 44 45 46 49 54 59 65 71 76 80 87 94 99 88 73 66 55 39 29 29 30 30 31 32 33 35 34

GFSMW_500_spd_045.txt.gz
Wind_Speed
43 40 40 41 42 35 31 38 38 35 34 36 35 29 28 30 34 33 33 26 29 30 29 29 32 33 35 35 35 36 38 40 41 43 44 45 48 48 49 49 48 50 51
45 43 42 43 45 41 33 34 38 38 35 34 35 31 31 31 33 32 31 28 31 31 30 31 33 35 36 37 38 40 42 42 44 43 44 46 48 48 48 49 50 51 53
47 43 43 43 46 45 34 37 38 39 38 35 34 32 33 32 32 33 34 33 32 33 32 34 35 37 38 40 42 43 44 44 45 46 47 47 47 48 47 50 52 55 57
50 47 44 43 48 47 36 39 40 40 38 35 32 34 33 35 33 35 35 38 35 34 35 36 38 39 41 42 43 44 45 47 48 48 50 52 53 51 50 49 52 54 56
56 53 50 46 50 48 40 38 39 40 37 35 32 33 35 34 35 34 37 39 37 37 37 38 41 42 43 43 43 45 47 48 49 51 52 53 55 56 56 55 53 56 59
60 59 55 51 53 49 42 39 39 40 39 36 32 33 33 34 33 32 33 36 37 37 38 40 42 43 43 43 45 47 49 51 52 53 53 55 56 58 59 60 62 61 60
58 57 56 54 53 49 42 39 37 38 38 36 35 34 33 33 32 32 34 36 36 37 38 40 42 42 43 45 47 49 51 52 54 55 56 58 59 60 63 64 64 65 65
59 56 54 54 53 48 41 40 37 37 38 37 35 35 33 30 30 32 35 35 36 36 38 40 40 42 44 47 49 51 52 54 55 57 58 59 61 64 66 67 68 68 68
63 57 54 54 52 47 43 40 37 37 37 37 35 34 33 29 29 31 32 33 33 35 36 38 40 43 46 49 51 52 54 55 57 57 58 61 64 67 67 68 70 73 74
61 62 55 54 52 46 46 42 38 37 36 38 34 33 32 28 28 29 31 32 33 34 36 39 42 45 48 50 52 53 55 56 56 59 62 65 67 66 68 70 73 76 80
59 65 56 56 51 46 47 43 36 37 35 35 33 32 31 30 30 30 31 32 33 35 37 41 44 48 50 50 51 54 55 56 59 63 66 68 67 68 70 72 77 82 89
55 53 56 53 47 48 46 38 34 37 34 32 32 32 33 32 31 31 32 32 33 36 40 43 46 49 49 50 52 54 56 59 63 67 67 66 67 69 72 77 83 89 97
50 49 50 49 47 47 41 36 35 36 34 31 33 33 33 32 32 31 32 32 35 39 42 45 47 48 50 52 53 57 60 64 67 67 66 67 69 73 78 85 91 98 103
43 44 46 46 44 41 36 34 37 35 33 32 33 32 32 31 30 31 32 34 38 41 43 45 47 49 51 53 57 59 63 66 66 65 67 69 74 78 85 92 99 105 111
37 40 42 42 38 35 35 36 35 34 33 32 31 30 29 28 29 31 34 37 40 42 43 46 48 51 52 56 59 62 64 64 64 66 69 74 79 86 93 102 108 112 110
32 31 33 34 34 33 31 31 31 32 30 28 29 27 26 27 30 33 36 39 40 41 44 48 50 52 55 58 61 63 63 63 65 69 74 79 86 91 100 108 112 106 91
25 25 27 29 30 30 30 30 31 30 28 26 24 23 26 30 32 34 37 38 40 43 47 49 50 53 56 60 61 61 61 64 69 73 78 85 92 98 107 110 100 82 73
20 21 20 20 23 26 28 27 26 23 21 21 23 26 28 30 33 34 36 39 43 46 47 49 51 55 58 59 59 60 63 68 73 79 85 91 96 106 108 98 81 68 56
23 25 21 22 22 21 20 19 18 18 20 23 25 27 29 30 32 35 39 41 43 45 48 51 54 56 57 57 59 62 67 71 78 84 90 97 104 106 96 81 66 50 40
14 15 15 14 14 14 15 16 17 19 22 24 26 26 28 31 34 37 39 41 42 46 50 53 53 55 55 58 62 66 71 77 81 89 97 104 104 90 78 65 48 35 35
12 12 11 11 12 14 16 17 18 20 22 22 23 27 30 32 34 37 39 42 45 48 50 52 53 54 56 60 65 71 77 81 87 94 101 101 86 74 61 46 35 35 36
7 9 11 13 14 14 16 17 18 19 20 23 26 28 30 32 35 39 41 44 46 47 49 51 53 55 59 64 70 76 80 87 93 98 98 82 69 58 42 35 36 35 36
10 13 14 14 14 14 15 15 17 19 21 23 26 29 32 35 38 40 42 43 45 47 49 50 53 57 62 68 74 79 85 92 96 94 79 67 53 38 35 35 34 34 34
9 11 12 11 11 13 16 17 17 19 21 24 28 32 34 37 39 40 42 45 46 48 48 51 55 60 67 71 76 82 88 94 93 79 65 49 36 34 34 34 32 32 35
10 10 11 13 14 14 15 17 18 21 24 28 30 33 35 36 39 41 43 45 47 46 49 54 59 65 70 75 81 87 94 95 85 65 47 32 32 32 31 31 33 35 38
11 11 10 12 13 14 16 19 22 24 27 30 31 33 35 38 41 42 45 45 45 49 54 59 65 70 76 81 86 93 93 84 65 47 27 27 28 26 27 31 34 38 40

GFSMW_500_spd_048.txt.gz
Wind_Speed
48 49 47 43 41 41 42 38 38 42 41 39 38 36 34 34 34 37 38 38 37 36 37 33 32 33 33 34 35 37 39 41 41 42 44 45 45 46 48 48 48 50 52
50 50 51 48 42 42 43 41 37 39 44 43 40 37 36 36 35 38 36 35 40 38 37 34 34 34 34 36 36 38 41 42 44 44 46 47 46 48 49 50 52 54 54
51 50 51 49 44 42 43 44 39 38 42 45 44 40 39 37 37 37 35 36 37 37 39 37 35 36 36 39 39 41 43 45 45 46 48 47 48 48 49 52 54 56 57
54 54 52 51 48 43 45 45 42 39 42 41 41 41 39 39 38 37 37 37 38 39 42 40 39 38 40 42 42 44 46 47 48 48 49 50 51 52 52 51 53 55 57
55 56 56 54 51 49 46 46 46 39 44 41 39 40 39 37 39 39 37 38 39 42 44 41 43 41 42 43 45 45 47 48 49 50 50 52 54 56 58 56 54 55 57
56 56 59 59 56 54 50 47 46 40 44 41 40 39 37 37 39 38 37 36 39 39 40 42 42 42 43 45 45 45 47 48 51 52 54 56 57 58 59 59 59 59 60
55 56 58 60 60 56 53 50 47 41 43 42 40 39 38 37 40 38 37 36 37 37 40 40 41 43 44 43 43 46 48 51 52 54 56 58 59 59 60 62 63 65 66
59 57 55 58 60 61 56 52 48 44 43 43 39 40 38 38 40 39 37 36 38 38 39 40 41 41 41 41 44 48 50 52 54 57 58 59 59 60 62 65 69 69 68
47 52 61 57 59 60 59 54 50 46 45 43 38 39 38 38 38 39 37 35 35 37 38 39 38 39 40 42 46 49 51 54 57 57 58 59 60 62 67 70 71 71 72
50 44 52 60 58 59 59 55 50 48 47 43 38 39 36 38 37 38 35 33 34 36 37 37 37 39 41 45 48 51 54 57 57 58 58 61 63 68 70 71 70 71 73
57 54 44 53 60 60 56 52 47 49 47 41 37 37 36 37 36 37 35 35 35 37 36 36 38 40 43 46 50 54 56 57 58 58 61 63 68 70 70 71 71 73 77
46 48 44 47 58 59 54 49 48 49 44 39 37 35 36 36 36 36 35 35 37 37 36 37 39 43 46 50 53 54 55 56 58 60 63 68 69 70 70 71 74 78 82
42 37 42 43 57 59 51 47 49 48 42 38 35 34 35 35 36 36 35 36 37 37 37 39 42 45 49 52 53 55 57 58 60 63 66 68 69 69 71 74 79 84 88
32 31 37 42 57 55 49 48 48 44 39 37 35 35 34 34 36 36 35 36 36 37 39 41 44 48 50 51 54 56 56 59 62 66 67 68 69 71 75 80 85 90 96
22 26 33 46 49 47 46 45 43 39 36 34 35 35 33 34 35 35 34 34 36 39 41 42 47 48 50 53 55 56 59 62 65 66 66 68 71 75 81 86 91 98 103
19 26 37 42 44 43 42 39 35 34 34 33 34 33 32 32 33 33 33 35 38 40 41 45 47 49 52 53 56 58 62 63 64 65 67 70 74 80 85 92 98 103 108
23 28 32 36 36 34 33 33 33 32 30 30 30 28 29 30 30 32 34 36 38 40 43 45 47 49 51 54 57 60 61 63 64 66 69 74 80 85 92 98 102 103 96
20 23 25 27 29 30 30 29 28 27 27 26 25 26 27 29 31 33 34 36 38 41 43 46 48 50 53 56 58 59 61 62 65 69 75 80 85 92 97 102 102 89 72
18 21 23 23 22 21 23 24 24 21 21 22 23 26 27 29 30 31 33 37 40 42 44 47 49 52 54 55 58 59 61 63 68 74 79 85 90 97 102 101 86 63 49
12 20 23 23 23 23 22 19 17 18 21 23 24 25 25 26 29 32 36 39 40 43 46 48 51 52 54 56 58 59 62 66 72 78 85 90 95 101 100 83 60 41 40
15 15 15 15 15 16 16 18 19 19 17 18 19 21 24 27 31 34 37 39 42 45 48 49 51 53 55 57 57 61 66 71 76 84 89 94 99 98 80 57 41 39 39
10 12 14 16 14 10 8 7 9 12 15 17 19 23 26 29 33 36 38 41 44 45 47 49 52 54 55 55 60 65 70 76 82 89 94 98 96 75 54 38 38 38 36
4 1 2 3 5 7 9 10 12 13 16 19 21 24 28 32 35 38 40 42 43 46 49 50 52 51 53 58 63 69 76 81 87 92 96 91 70 51 35 36 34 33 36
5 4 5 6 7 8 9 11 13 15 18 20 22 26 31 35 37 38 40 42 45 47 48 50 48 51 56 61 67 74 79 84 89 94 88 66 47 32 33 32 33 37 38
8 8 7 7 7 9 10 11 14 15 17 21 26 30 33 35 36 38 41 44 45 47 47 47 50 54 60 65 72 77 83 88 92 88 64 44 30 30 29 33 35 38 42
10 7 6 6 7 8 9 12 15 18 22 26 29 32 33 34 37 40 42 44 45 44 46 49 53 58 65 71 76 82 86 90 87 62 42 25 25 26 31 33 38 43 43

GFSMW_500_spd_051.txt.gz
Wind_Speed
40 42 44 46 44 41 42 41 40 39 39 40 41 43 44 42 34 36 37 37 37 40 41 45 45 38 38 37 38 38 39 38 39 40 41 42 43 45 46 47 48 50 50
41 43 44 46 46 46 43 43 42 43 40 41 42 42 40 40 37 38 36 37 37 39 42 42 42 44 38 38 38 39 39 40 38 41 44 44 45 47 48 49 52 52 53
45 47 48 48 49 49 48 46 46 46 45 42 44 43 38 40 42 40 38 37 40 40 43 39 37 33 41 41 40 41 40 41 41 43 45 46 48 48 48 51 54 55 57
49 50 50 51 52 51 51 49 50 48 49 44 43 43 43 41 41 41 40 40 41 42 43 42 38 40 44 44 44 42 41 42 43 46 47 48 50 51 52 53 55 56 58
57 57 55 54 54 54 54 52 50 51 51 46 42 44 44 41 39 39 40 40 40 43 43 42 43 43 44 46 48 47 42 44 46 46 46 48 51 53 55 56 58 60 60
57 58 59 59 58 57 57 54 52 52 51 48 42 45 42 41 40 38 38 39 40 40 41 41 43 37 43 45 46 44 46 46 46 47 48 50 52 55 59 60 59 59 57
59 57 59 58 59 60 58 57 54 53 50 49 43 44 42 42 41 38 39 39 38 39 39 40 42 44 42 44 45 47 46 45 46 48 49 51 55 59 60 63 63 63 63
47 48 58 60 58 59 60 59 58 54 52 49 43 42 45 41 42 41 40 39 39 40 40 40 42 44 44 44 45 45 44 46 49 49 52 55 58 58 61 63 66 67 67
51 53 51 52 64 58 60 59 61 57 54 51 46 43 45 43 41 42 40 39 40 40 40 40 40 40 41 42 44 44 46 48 50 52 55 57 57 59 62 65 67 71 71
49 56 58 53 50 60 59 59 59 61 56 51 49 47 46 44 39 40 39 38 38 38 38 38 39 40 41 43 43 45 48 50 52 55 56 57 59 62 65 68 69 70 72
50 46 57 56 43 47 59 59 58 58 58 51 49 47 45 44 39 38 39 38 37 38 38 38 39 40 41 42 44 47 50 53 55 55 56 60 63 65 67 69 69 71 72
55 44 47 55 54 45 46 59 55 53 54 51 49 47 45 42 39 37 38 37 37 38 39 39 39 40 41 43 46 49 52 54 55 57 60 62 65 66 68 69 71 72 73
43 37 42 52 57 46 40 53 51 50 49 48 49 46 43 40 37 38 37 36 37 40 39 40 39 41 43 45 49 51 54 55 57 60 62 63 66 67 69 71 71 74 78
27 23 31 39 46 47 41 46 48 47 46 47 46 43 40 38 36 36 35 36 38 38 40 40 40 42 45 48 50 52 54 57 59 61 63 65 66 68 70 70 74 79 84
15 1 16 24 31 43 36 44 45 45 45 43 41 39 38 35 34 34 34 36 35 38 40 40 41 44 46 48 51 53 56 58 60 63 64 66 67 68 70 74 79 86 92
6 8 15 22 27 29 34 42 43 44 41 37 37 36 34 32 33 33 33 35 36 39 40 41 42 45 47 49 52 55 57 59 61 62 65 66 66 69 74 79 86 93 99
9 10 14 18 23 30 35 39 38 37 36 35 35 31 30 31 31 31 31 35 37 39 40 41 43 45 48 51 53 56 58 60 62 64 65 65 70 74 79 86 93 98 103
19 15 19 23 28 31 33 32 32 29 30 31 28 28 30 27 27 29 32 35 36 37 39 41 44 47 49 52 55 57 58 60 63 62 64 69 73 80 86 91 97 102 104
16 19 21 22 23 25 27 27 26 26 23 23 26 26 23 26 28 30 31 32 35 37 39 42 45 48 51 54 55 57 59 61 59 63 67 73 78 83 90 98 101 99 74
10 14 15 18 20 20 21 23 18 23 25 26 23 22 24 26 26 26 29 32 35 38 41 44 47 50 53 54 56 58 58 57 61 66 72 78 84 92 98 102 94 68 46
15 20 16 13 22 24 27 26 22 17 18 21 20 20 20 20 22 26 30 33 36 40 44 47 49 50 53 55 56 56 56 59 63 69 75 83 91 96 101 89 64 40 39
11 18 26 27 28 27 25 24 23 20 17 15 13 14 17 21 24 28 31 36 40 43 46 47 49 52 53 54 53 55 58 62 68 75 81 88 94 98 84 59 37 36 37
10 8 10 10 11 13 12 11 8 6 6 9 12 16 19 22 25 30 35 39 41 43 45 47 50 52 53 51 53 57 62 67 73 81 87 92 95 81 56 35 32 35 38
3 4 6 6 4 3 1 1 3 6 9 12 14 17 21 25 29 34 37 38 40 43 46 48 50 49 50 52 56 61 66 72 80 85 90 92 78 55 31 30 33 35 40
6 5 2 1 1 1 3 5 6 8 10 13 17 21 26 30 33 36 38 40 42 45 46 47 47 48 51 55 60 65 70 78 85 89 90 74 53 29 27 30 32 38 39
7 7 3 2 3 3 4 5 7 10 14 18 22 25 29 31 34 37 39 42 44 45 45 45 47 51 55 60 65 68 76 84 90 88 73 52 27 23 27 29 34 37 40

GFSMW_500_spd_054.txt.gz
Wind_Speed
27 26 27 31 35 40 41 39 41 38 40 38 37 33 38 34 30 36 36 34 35 35 37 37 38 38 38 40 43 46 43 38 38 39 40 41 43 40 41 42 42 42 44
32 32 32 33 35 38 42 44 45 44 43 43 40 40 39 32 33 35 36 36 35 36 37 37 39 39 40 41 39 40 47 39 40 41 41 43 39 41 42 43 44 46 47
37 39 41 40 41 42 43 45 47 51 46 46 47 45 41 35 37 38 37 35 36 35 38 38 39 40 38 39 42 39 37 39 41 43 50 42 42 43 44 43 45 47 49
44 45 47 48 48 48 48 48 48 50 55 48 51 48 45 39 40 40 37 36 36 37 39 39 39 41 41 40 39 42 43 44 39 51 42 40 45 47 45 46 47 48 50
49 51 52 53 54 55 52 52 51 52 54 55 53 50 47 42 42 44 41 39 39 38 39 39 38 39 41 41 40 43 42 42 43 42 42 46 48 48 48 48 50 52 56
50 49 51 53 55 57 58 57 55 53 54 57 54 54 49 46 44 45 44 41 40 38 39 38 36 37 39 40 39 37 42 44 44 44 47 47 47 50 51 52 53 55 55
51 51 46 43 49 56 56 60 59 56 55 55 56 52 51 50 45 46 46 43 40 38 40 39 38 38 40 40 40 40 44 44 44 45 46 47 50 52 54 57 59 59 56
49 43 44 47 47 43 50 58 59 59 56 55 57 53 52 49 46 47 47 45 41 40 40 39 40 39 40 40 40 40 41 42 43 46 47 49 52 54 57 60 61 60 60
48 50 54 56 56 55 48 49 60 59 56 57 57 54 51 47 46 47 46 45 42 40 39 40 40 39 39 40 39 40 41 43 44 46 49 51 53 57 58 60 62 65 66
43 47 48 48 49 48 50 51 51 61 58 58 54 52 49 48 48 45 45 44 41 40 39 39 39 39 39 40 43 41 42 44 45 48 51 53 55 58 60 62 63 65 68
44 46 51 54 54 51 46 46 51 56 61 55 51 52 49 48 46 43 44 43 41 39 38 37 37 38 41 40 42 40 43 45 49 50 52 55 57 59 61 63 65 67 69
48 54 55 52 54 54 49 50 48 51 57 53 49 52 49 46 45 42 43 42 40 38 37 37 36 38 41 40 44 45 46 48 50 53 55 57 59 60 62 65 67 68 69
51 57 51 51 50 49 55 48 46 45 48 48 46 48 46 45 42 40 41 39 39 38 36 36 36 43 38 43 45 47 48 50 52 55 57 58 59 62 65 66 68 67 68
44 37 38 43 38 40 52 48 42 36 36 43 43 44 44 43 39 39 38 38 37 36 34 36 41 38 41 44 45 47 50 52 54 57 57 59 61 63 65 66 65 68 71
30 28 21 16 12 29 36 38 37 32 33 39 40 41 41 37 37 37 37 35 35 33 33 38 39 40 44 44 46 48 51 54 55 57 59 61 62 64 65 64 67 71 76
23 19 14 9 10 8 22 29 35 29 32 36 37 37 34 34 33 35 32 31 31 31 34 38 41 43 42 44 47 50 53 53 55 58 59 61 63 63 64 67 71 78 85
17 13 8 3 12 19 23 25 25 28 33 34 34 31 30 30 31 29 28 28 30 32 35 40 41 40 43 46 49 51 52 55 56 59 60 62 61 62 64 70 77 83 90
14 10 8 9 10 16 20 21 26 29 29 29 26 27 28 26 22 24 31 27 30 35 38 37 37 41 44 47 49 51 53 55 58 60 61 59 62 64 69 76 82 89 97
24 15 10 16 17 20 23 23 24 23 23 21 23 19 19 24 25 27 26 31 34 34 33 36 39 42 44 47 50 52 54 57 59 58 58 62 65 69 76 82 89 96 99
17 16 22 22 23 22 22 22 21 19 25 28 21 21 24 24 23 27 30 30 29 31 33 37 39 43 46 48 51 54 55 57 55 58 61 66 71 75 83 90 96 96 85
4 12 15 15 17 18 22 21 18 14 17 16 20 26 21 25 27 24 25 26 28 31 34 38 42 44 47 50 53 54 54 54 56 60 65 71 75 82 89 95 96 84 50
2 7 8 11 15 12 14 20 24 24 23 23 22 17 18 20 20 19 23 25 28 33 37 40 43 46 48 50 52 52 52 55 59 64 70 73 80 88 94 98 81 46 33
11 2 8 10 13 11 12 13 20 19 14 15 14 11 11 15 19 20 23 28 33 36 39 42 44 47 49 51 50 51 55 59 64 69 74 79 87 94 97 77 44 31 33
7 5 4 6 7 9 9 12 12 10 8 7 9 12 13 16 20 24 29 33 36 39 41 43 46 48 48 48 50 54 59 63 68 72 78 84 93 94 74 42 28 31 34
2 3 2 5 7 8 7 6 7 6 6 7 9 12 16 21 25 30 33 35 38 39 42 45 46 45 46 49 53 58 63 67 71 77 83 91 91 70 42 26 28 32 37
5 1 2 4 5 6 5 4 4 4 6 10 13 16 21 26 30 32 34 36 38 41 43 44 43 45 49 53 58 63 67 72 78 83 89 88 66 39 22 25 29 35 39

GFSMW_500_spd_057.txt.gz
Wind_Speed
26 27 27 26 26 29 30 33 37 34 34 35 35 36 38 38 31 29 28 30 31 34 35 35 32 34 34 33 34 32 34 36 36 38 42 47 41 40 40 41 40 38 39
29 27 27 28 28 29 31 33 38 41 41 40 40 40 42 42 38 31 30 30 31 34 35 35 34 35 35 35 34 32 34 35 38 37 33 35 42 42 45 47 40 41 43
31 31 32 32 33 35 36 38 40 41 44 45 47 46 44 46 43 35 36 35 34 32 36 34 35 37 36 35 35 34 35 37 38 39 39 37 37 46 40 37 39 42 43
34 35 37 38 40 41 43 43 45 46 46 46 49 50 50 48 46 41 43 38 37 36 35 35 37 37 36 36 35 35 34 36 37 33 38 37 39 40 39 38 40 41 44
38 40 42 45 48 50 49 50 50 50 49 48 49 50 51 52 50 45 45 40 41 40 39 39 37 36 36 35 36 37 35 34 32 43 41 40 42 42 41 41 42 45 48
43 46 49 53 55 55 54 53 53 54 54 53 50 51 50 51 53 49 49 45 44 43 42 40 38 37 37 37 36 37 37 36 38 38 42 41 41 40 43 44 45 46 48
48 50 51 51 50 48 46 46 46 51 57 56 54 54 51 48 52 53 51 49 47 47 44 41 40 38 39 39 39 39 37 38 38 38 40 40 43 43 45 47 49 49 50
50 52 53 47 43 41 40 42 44 44 46 56 56 55 54 51 51 53 52 52 50 48 47 42 41 40 40 41 41 39 38 39 40 40 42 42 43 46 49 51 52 53 55
48 48 46 47 48 46 48 49 53 54 53 46 51 55 54 53 53 52 50 50 50 50 48 44 42 41 41 41 42 40 38 41 43 44 41 43 46 49 51 54 57 59 60
42 43 46 47 50 53 53 54 51 47 46 50 45 50 55 55 55 51 49 48 49 48 47 43 42 41 40 42 41 38 35 44 43 43 45 47 49 51 54 57 59 61 62
31 37 41 45 48 51 52 53 56 54 51 45 43 44 51 54 53 50 47 47 46 45 44 43 41 39 41 41 40 38 41 45 44 46 48 49 52 55 56 59 60 61 64
33 35 39 41 46 51 54 54 55 51 49 45 44 45 45 52 52 48 45 45 42 41 41 40 40 40 40 40 39 38 46 46 46 48 49 52 54 56 58 59 62 62 64
36 39 44 48 43 40 43 47 49 45 43 44 44 42 39 46 49 47 43 43 39 38 39 40 39 38 38 38 39 40 44 49 46 49 51 54 56 58 59 62 62 63 64
37 42 45 38 33 38 31 38 37 38 40 51 42 37 33 41 46 43 42 40 35 34 37 37 36 36 36 36 40 45 47 46 48 51 54 56 58 59 60 62 63 64 64
37 41 35 26 29 27 28 18 25 33 35 36 33 29 31 39 42 39 38 35 31 28 36 33 33 34 33 41 48 48 46 47 51 54 55 57 59 60 63 65 65 64 67
38 32 25 23 21 14 14 2 8 17 23 27 25 29 30 36 36 34 30 28 33 35 30 30 33 32 40 44 47 45 47 51 52 53 56 57 59 62 64 64 65 68 72
34 21 16 15 7 2 3 10 18 23 25 21 28 30 30 28 26 29 25 23 25 32 27 31 34 40 41 45 43 46 50 51 52 53 55 58 62 63 61 63 67 71 77
26 14 12 5 5 8 11 12 16 17 16 26 29 27 31 28 28 24 20 26 29 32 22 35 37 41 41 41 45 48 49 50 51 54 59 61 60 61 63 66 70 75 80
16 12 11 7 8 11 11 10 12 16 23 24 24 25 24 29 19 14 15 29 24 30 31 35 41 37 40 43 46 47 47 50 54 58 59 59 59 63 67 71 73 79 87
6 15 10 10 11 13 14 16 19 21 24 19 17 16 22 17 18 16 21 26 30 33 35 34 34 37 40 42 43 46 50 53 56 56 57 60 63 67 71 75 80 87 93
0 3 10 12 15 17 20 21 17 21 14 25 15 13 11 17 16 25 28 29 28 27 29 32 35 38 40 44 47 50 53 54 53 55 58 62 67 70 75 80 88 95 98
5 7 1 8 9 17 13 18 15 21 21 16 20 21 22 29 29 28 28 22 22 27 31 34 37 40 43 45 49 52 53 53 54 58 62 67 71 76 82 88 94 93 68
11 5 5 7 8 8 4 12 16 12 15 12 12 12 14 14 13 15 19 22 26 29 33 36 39 42 44 48 50 51 51 54 57 62 67 71 76 81 87 93 86 57 31
7 6 4 1 4 7 4 5 11 13 13 9 7 8 9 12 15 18 21 24 29 33 36 38 40 43 46 48 48 50 53 57 62 66 72 77 80 88 93 79 51 27 30
1 3 1 1 2 1 2 5 7 7 6 5 5 8 11 13 17 21 26 30 33 34 37 39 42 44 45 46 48 52 56 60 66 71 76 81 87 90 73 46 25 28 33
5 3 2 3 4 5 5 6 5 6 7 7 7 10 13 18 24 28 30 33 34 36 39 41 42 42 45 47 51 55 61 67 71 77 82 86 88 68 40 23 28 31 37

GFSMW_500_spd_060.txt.gz
Wind_Speed
32 34 31 33 35 35 33 32 32 28 30 31 33 34 36 36 33 31 31 32 29 30 32 32 32 34 35 35 34 33 33 33 32 33 33 33 33 37 30 39 39 40 42
35 33 33 33 33 33 32 31 29 29 29 33 35 37 39 41 39 37 33 31 32 35 35 33 31 32 34 33 34 35 36 35 34 33 34 35 35 37 36 37 39 41 40
37 35 34 34 33 32 32 31 32 32 33 34 36 39 43 44 43 42 38 32 38 38 38 36 35 34 33 34 34 35 34 35 34 34 34 33 33 35 37 37 37 39 41
37 36 35 35 34 34 36 37 38 39 39 39 41 41 42 48 50 48 47 41 43 42 41 40 38 35 34 36 35 35 35 36 35 34 34 35 35 42 40 38 40 40 41
37 37 37 37 38 39 40 42 43 45 46 46 46 46 46 47 49 50 49 47 46 44 43 44 43 40 39 37 38 37 36 37 37 36 37 37 38 39 39 39 40 42 44
41 41 41 42 42 43 46 48 50 52 53 52 52 52 50 51 51 50 50 47 49 48 47 45 45 45 42 41 41 40 38 39 39 39 40 40 39 40 40 41 42 44 46
42 43 44 45 47 49 52 55 55 56 57 57 58 57 55 55 55 53 51 50 50 50 49 49 47 46 45 44 43 41 40 40 41 41 41 40 40 42 44 47 46 45 45
43 45 48 50 52 54 54 54 56 55 56 57 56 56 57 54 54 56 53 50 51 50 51 50 50 49 46 46 44 43 42 41 41 41 42 41 43 45 47 49 49 49 49
44 46 48 51 54 57 58 57 55 56 52 53 49 47 46 47 50 53 55 54 54 51 50 51 52 50 48 45 45 44 43 40 41 43 44 43 48 51 51 51 51 52 53
41 45 49 54 58 59 59 60 60 58 56 53 55 53 53 52 50 50 52 55 54 51 50 50 51 50 47 45 44 42 43 42 38 46 45 45 50 54 54 51 53 57 59
37 38 38 38 41 44 46 48 50 51 50 53 55 54 51 51 51 48 51 54 55 51 48 47 49 46 46 42 43 43 43 41 44 44 45 48 52 56 55 54 57 60 62
34 34 37 41 43 45 49 51 52 53 50 51 54 52 51 49 43 44 44 51 52 50 47 46 45 42 42 41 41 41 41 42 44 44 46 51 55 56 56 57 61 62 63
30 35 40 41 42 46 48 47 48 48 45 48 55 56 53 49 46 44 42 44 47 46 45 42 41 40 39 38 38 40 40 42 44 47 52 57 57 56 58 61 63 63 63
34 36 38 41 42 38 36 36 38 43 45 45 41 48 53 52 46 45 41 39 42 43 42 39 37 37 30 40 38 39 41 44 49 54 58 59 56 59 61 63 63 63 64
27 32 35 33 30 29 31 29 31 36 39 38 34 38 48 48 44 40 37 34 38 40 39 36 34 38 33 35 37 40 41 42 54 58 59 55 58 60 63 62 63 64 65
27 28 29 28 23 19 17 19 15 16 23 28 31 37 38 36 36 33 29 31 32 34 33 36 32 33 26 33 40 45 48 49 52 55 54 57 60 61 62 64 65 66 67
21 28 26 16 18 15 15 7 2 4 9 14 18 31 29 33 33 25 25 27 30 31 32 33 30 25 36 35 41 46 50 52 51 54 56 58 59 61 63 64 64 66 70
18 27 21 15 12 9 6 2 6 8 13 19 25 28 30 34 29 26 23 27 29 28 32 24 25 33 34 39 47 49 50 49 52 54 56 57 60 62 62 64 66 69 74
14 23 18 15 7 6 5 5 4 7 12 16 21 26 30 22 25 20 31 24 32 31 23 25 27 35 39 43 44 43 47 50 52 54 57 60 61 60 63 66 69 74 79
8 12 16 16 11 5 1 3 5 10 13 15 16 22 17 19 28 20 12 14 14 19 25 29 36 39 38 38 40 46 49 51 53 58 60 60 61 63 66 70 75 79 84
2 4 10 9 7 5 6 8 10 13 16 17 13 1 11 7 11 18 20 17 23 24 34 34 33 33 36 40 44 47 49 51 54 55 56 58 62 65 71 76 79 84 90
9 7 4 3 8 8 6 1 5 7 7 6 8 8 6 9 6 21 22 19 26 30 27 26 31 36 40 43 45 48 50 52 53 54 57 61 65 71 76 81 86 92 95
7 2 1 4 1 7 4 11 6 9 11 8 8 11 13 14 17 19 30 25 20 21 26 31 35 38 40 43 45 48 50 51 54 58 61 66 71 76 81 88 93 89 64
3 3 2 1 6 6 4 6 11 11 13 11 10 13 13 12 10 11 14 17 22 26 30 34 36 39 41 44 46 48 50 54 57 61 66 71 76 83 89 91 81 52 32
4 3 5 5 2 0 1 4 6 8 9 9 9 7 7 9 12 14 18 23 27 30 33 35 37 41 43 44 46 49 52 55 60 65 70 76 84 91 88 72 44 27 32
8 6 6 6 4 3 2 3 4 5 5 5 6 8 9 13 18 22 25 28 31 32 34 37 40 41 42 45 48 52 56 60 64 69 76 84 91 83 61 38 24 28 35

GFSMW_500_spd_063.txt.gz
Wind_Speed
37 40 38 33 39 42 42 41 41 39 37 38 38 36 36 36 32 33 35 34 32 30 33 34 34 33 34 33 33 33 33 33 33 35 36 37 36 36 36 35 35 37 38
40 38 38 37 36 41 43 43 42 40 38 36 33 36 37 36 33 33 35 36 34 34 38 39 37 36 35 34 34 34 34 34 34 34 33 34 35 37 36 37 35 35 38
41 41 40 40 38 38 41 44 42 40 38 34 32 32 35 36 35 35 36 35 38 42 44 44 42 39 38 38 37 36 35 34 35 35 35 34 35 37 37 37 38 42 42
40 40 41 40 37 37 39 40 40 39 38 36 35 33 33 37 39 42 42 44 43 44 46 46 46 45 42 41 41 39 36 37 37 37 36 37 36 36 36 38 40 40 41
40 41 42 42 41 40 39 39 40 40 40 39 40 40 41 41 42 45 47 46 44 44 48 49 49 49 48 47 44 41 41 38 40 39 39 39 38 38 39 39 39 40 42
40 40 39 39 39 40 40 42 43 43 43 45 46 46 47 48 49 49 50 52 51 47 46 48 50 50 49 48 45 45 43 41 42 42 42 41 41 40 40 39 41 42 44
34 36 37 38 39 41 42 44 45 46 49 50 51 53 53 55 55 56 57 55 55 52 47 47 49 51 53 51 50 48 48 44 44 45 44 43 42 42 42 44 46 47 48
36 38 38 40 43 45 48 50 51 52 54 55 57 59 59 60 60 59 58 58 59 56 51 50 49 50 52 52 53 54 53 47 44 46 45 45 44 43 43 45 48 49 50
37 40 41 43 47 50 52 53 56 58 60 61 61 61 62 61 60 60 61 60 58 56 55 55 53 52 50 52 53 53 54 50 44 46 45 43 44 42 48 49 51 52 54
36 39 44 48 50 51 53 55 57 58 59 60 61 61 62 63 63 63 63 58 53 53 53 54 55 55 52 52 52 54 55 49 43 46 44 45 45 46 49 51 52 55 58
38 41 43 45 48 52 55 56 56 56 55 54 55 58 58 60 62 61 58 53 52 51 49 50 54 54 50 50 49 49 50 40 45 45 45 44 45 48 49 53 58 61 65
34 38 42 44 44 42 44 48 52 55 56 54 55 56 57 57 57 60 61 60 59 55 49 51 51 51 47 47 47 48 41 45 43 40 47 44 48 50 53 56 61 63 68
36 35 34 35 39 43 48 51 53 55 57 58 58 60 59 58 58 55 51 50 50 53 50 49 49 50 47 46 45 42 43 44 41 43 48 49 50 52 57 64 65 66 67
28 30 33 37 39 41 43 45 45 45 45 48 51 54 54 57 61 57 53 48 47 46 46 45 42 45 41 42 41 40 41 45 41 42 45 50 53 56 60 64 65 66 66
27 29 31 34 39 39 34 33 34 32 29 33 44 49 50 46 48 52 51 48 48 46 46 38 39 39 36 37 37 39 36 53 42 45 49 52 58 60 62 62 63 65 66
25 25 25 30 31 23 24 20 25 28 26 24 33 37 40 38 45 41 42 44 45 45 40 37 35 34 33 37 38 35 33 32 42 52 53 54 57 57 59 62 65 67 69
20 21 21 24 21 16 18 17 15 23 27 22 13 15 22 29 29 28 31 37 41 39 35 30 24 29 32 34 42 40 40 44 45 53 58 58 56 58 62 65 67 67 68
17 18 20 22 17 13 17 16 17 20 24 13 6 9 18 21 20 25 24 30 31 28 25 22 26 34 25 39 42 38 43 48 54 54 54 55 57 62 64 65 65 65 69
11 13 13 18 20 18 15 14 15 16 13 11 6 7 15 21 25 24 23 29 27 35 20 31 29 34 26 30 33 39 45 47 47 50 54 57 59 61 64 65 66 68 72
12 8 10 10 10 13 13 12 11 8 6 3 1 4 8 15 16 22 17 26 17 21 24 26 31 30 33 34 41 40 40 44 49 54 56 58 61 61 62 65 68 71 75
9 11 13 5 5 7 11 9 7 7 9 11 8 8 2 16 7 14 15 10 15 14 19 21 30 33 36 35 36 40 45 48 49 52 56 57 58 62 65 68 72 76 81
8 3 6 5 3 2 2 2 2 2 4 9 7 7 7 9 4 6 8 15 15 20 22 26 30 36 34 37 40 43 45 47 50 51 53 57 61 64 68 73 76 82 89
4 3 4 4 7 6 9 8 7 8 2 4 3 2 4 4 4 9 12 17 21 23 23 23 27 31 35 38 40 42 45 47 49 53 57 60 63 68 73 78 83 89 89
6 7 6 6 6 3 5 7 3 4 5 5 7 9 8 7 7 7 9 12 16 20 25 28 32 34 35 37 40 43 45 49 52 56 61 65 69 74 78 84 88 82 56
7 9 9 7 7 6 3 2 3 7 8 9 11 9 9 9 11 12 15 18 22 25 28 31 31 32 36 38 40 44 48 51 55 60 65 70 75 80 86 87 72 46 27
11 10 9 10 8 6 6 5 4 5 6 5 5 5 8 11 15 17 21 24 28 29 29 30 33 34 36 39 43 47 51 55 60 65 71 76 81 86 84 62 37 20 25

GFSMW_500_spd_066.txt.gz
Wind_Speed
42 42 41 40 38 40 40 39 41 40 40 37 37 37 37 39 37 37 35 34 32 33 33 34 35 35 34 35 33 34 34 33 34 33 34 31 32 32 31 32 32 33 34
45 43 44 42 40 41 42 42 42 43 41 39 38 40 40 41 40 39 36 35 33 35 35 36 38 38 39 39 36 36 37 37 38 37 37 34 32 34 32 32 32 32 33
46 45 44 43 42 41 41 41 44 44 42 42 40 40 40 41 40 40 37 36 37 39 39 38 40 41 42 40 42 42 41 42 43 41 39 36 35 35 35 36 36 35 34
45 43 42 43 43 40 38 40 41 45 45 44 41 39 38 38 37 37 38 39 40 41 42 41 43 45 44 43 44 46 47 46 47 40 38 39 38 38 37 37 38 38 37
42 42 43 42 42 40 39 40 42 43 45 46 45 42 38 36 36 37 38 37 39 41 43 43 46 48 46 45 47 47 46 47 43 43 41 39 39 41 40 39 39 40 39
38 38 39 40 42 40 39 40 41 43 44 46 46 46 45 44 42 41 42 43 44 46 47 47 48 49 49 47 47 48 50 50 47 46 47 45 42 43 43 42 43 43 42
34 34 35 37 39 39 39 41 43 43 43 44 45 47 49 49 49 49 50 49 52 53 53 53 52 51 51 49 49 50 51 52 51 51 51 50 50 47 43 43 45 44 46
32 33 33 35 37 39 40 41 42 44 46 47 49 50 52 53 55 56 56 56 56 55 54 53 53 53 54 53 51 52 51 52 52 53 54 55 53 49 43 45 45 46 45
31 33 35 36 38 40 42 44 45 47 49 51 54 55 58 59 60 62 63 64 63 60 57 54 55 55 56 56 53 53 52 54 53 54 53 53 53 49 44 47 46 47 48
29 31 33 36 39 42 44 46 48 50 53 56 58 60 63 65 66 67 66 65 64 63 62 60 57 60 57 57 57 58 56 55 53 53 53 52 55 43 48 50 48 49 50
27 31 34 36 39 42 45 48 51 54 57 60 62 64 66 68 69 69 70 70 68 65 62 59 55 54 56 56 55 57 54 55 52 50 49 50 46 47 49 52 48 52 53
29 32 34 37 39 42 45 49 52 55 56 57 57 56 58 62 63 63 63 61 60 63 63 59 52 51 48 49 50 54 54 53 62 36 47 47 49 46 50 58 50 56 57
30 33 35 38 41 43 45 44 46 49 53 54 57 58 59 60 63 66 64 61 59 57 56 56 55 55 53 52 49 53 54 48 51 49 48 49 52 46 47 51 56 60 61
29 30 30 29 31 33 37 42 45 48 51 51 51 52 52 52 48 51 54 59 61 57 48 51 56 53 49 48 47 49 49 45 45 45 48 50 48 50 50 49 56 60 64
25 23 24 24 26 29 35 41 37 31 31 31 29 32 37 38 41 46 43 44 52 47 46 45 45 45 42 40 43 42 37 40 43 46 45 49 47 56 54 57 59 63 61
17 18 19 22 23 26 25 26 28 29 27 27 28 29 29 37 37 41 35 37 44 47 46 43 43 42 41 39 37 36 39 41 39 50 50 53 51 53 55 61 65 60 63
18 16 19 18 18 20 23 21 23 26 28 29 24 18 27 20 16 20 24 32 33 35 39 43 43 41 41 34 35 38 42 34 45 46 44 47 51 57 61 63 62 65 66
12 13 10 15 13 15 17 18 18 19 19 22 24 19 18 11 14 14 11 17 20 26 30 32 34 32 31 30 36 36 37 42 41 44 46 50 53 56 59 62 60 62 64
9 10 9 13 12 10 12 13 14 16 17 16 19 17 12 5 8 9 15 19 18 22 21 22 24 27 27 29 31 34 30 35 40 43 46 49 54 58 57 59 59 62 65
12 8 8 12 11 7 8 10 10 12 12 11 19 13 8 5 5 10 6 4 7 11 11 20 24 26 24 26 32 29 36 38 41 46 51 52 52 55 56 59 62 64 68
14 13 13 11 11 7 8 7 4 9 12 16 14 18 8 3 5 4 5 2 5 17 15 12 17 17 20 25 32 40 42 42 46 48 49 52 53 56 59 62 65 68 72
12 10 7 6 10 10 15 13 13 11 14 9 7 11 13 11 8 8 4 0 3 7 10 13 17 23 29 31 34 36 40 43 45 47 49 51 55 59 62 65 70 74 79
9 6 7 6 9 11 11 13 13 12 9 2 6 7 10 8 7 7 5 5 8 12 17 21 22 23 27 31 35 37 40 42 44 47 50 53 57 62 67 72 77 82 87
9 9 8 9 8 8 9 10 6 5 5 9 11 13 13 11 8 7 8 9 12 15 19 22 25 28 30 32 35 38 39 42 45 49 54 59 64 68 73 80 86 87 74
11 9 10 8 8 7 6 6 9 8 8 9 9 9 8 8 10 13 15 17 19 22 24 26 27 28 31 33 34 37 41 44 48 52 58 64 70 76 83 87 78 52 27
14 13 10 9 8 4 3 4 4 6 6 5 5 7 10 12 15 16 18 21 24 24 24 26 29 30 30 32 36 39 43 48 52 57 64 71 77 84 77 53 29 15 16

GFSMW_500_spd_069.txt.gz
Wind_Speed
41 41 38 39 39 39 40 41 43 42 42 42 41 40 40 41 40 37 37 36 34 34 34 33 33 33 34 35 33 33 34 34 34 34 36 36 36 35 35 31 30 30 30
45 44 42 41 39 38 39 39 40 42 42 41 41 41 43 43 42 41 39 36 36 36 36 37 36 35 36 37 35 35 36 36 37 38 40 40 41 41 40 35 33 33 33
47 45 44 42 41 39 35 36 37 37 39 42 43 43 43 43 42 41 40 39 39 39 40 40 39 38 38 38 37 38 39 39 39 39 41 41 41 42 41 39 38 37 37
47 46 45 45 43 42 39 36 37 39 40 41 41 42 43 42 41 42 44 44 41 39 41 42 41 40 40 41 42 42 42 42 39 40 43 40 40 41 42 41 40 39 39
45 45 44 44 45 43 39 37 39 42 43 44 43 42 42 42 42 44 44 43 42 37 37 39 39 41 43 45 45 45 45 44 44 45 45 45 44 41 44 45 45 42 42
40 40 41 41 42 42 40 40 40 42 44 45 45 44 44 43 42 41 42 42 41 41 41 41 42 44 45 48 49 48 48 48 47 47 47 48 48 47 47 49 54 46 50
39 36 35 36 38 39 40 40 41 42 43 44 46 47 48 46 44 43 43 44 44 43 44 46 48 49 50 51 51 50 51 50 49 49 51 50 50 50 50 51 51 54 51
36 34 33 33 35 36 37 39 40 42 43 43 44 46 47 48 48 49 50 50 51 51 50 50 52 52 53 53 53 53 54 53 53 52 52 51 51 53 51 51 59 50 53
30 30 31 32 34 35 36 37 39 40 40 41 43 45 46 48 51 54 56 57 58 57 57 58 57 54 55 56 56 56 57 58 56 56 57 55 52 54 53 53 53 53 55
29 29 29 31 32 33 34 34 36 38 40 42 45 47 51 53 56 59 61 62 63 64 64 65 63 59 56 55 56 56 57 58 58 56 55 55 55 57 56 52 50 53 51
27 27 27 29 29 30 32 33 35 38 42 45 49 52 56 59 62 65 67 68 70 70 69 68 66 64 59 56 55 56 59 58 59 56 53 54 56 58 49 49 52 51 51
25 27 27 27 27 29 30 34 37 42 47 52 55 57 59 59 59 60 62 64 64 63 63 61 60 57 56 56 55 55 53 55 55 49 51 55 54 53 59 47 54 56 56
23 23 23 23 26 30 34 37 40 42 44 46 49 52 54 56 58 61 63 65 67 66 63 59 58 56 52 51 52 54 53 48 47 50 52 53 52 48 55 57 62 53 56
20 22 24 28 29 28 29 30 32 35 39 42 44 44 44 46 50 50 49 51 52 54 57 57 58 57 53 50 52 51 48 46 47 48 48 48 51 51 45 55 53 54 58
24 25 23 22 21 21 24 21 17 21 26 30 35 38 40 41 45 44 41 41 39 37 39 41 42 45 47 48 46 43 43 44 43 43 45 44 47 51 51 52 57 59 56
18 19 21 20 18 20 14 13 13 13 15 18 22 26 30 30 28 26 29 32 34 33 32 32 33 32 37 43 40 36 36 36 36 38 41 47 49 51 51 51 49 56 62
17 18 18 17 15 15 13 10 9 9 12 12 14 22 27 22 18 21 28 24 21 22 28 27 33 34 38 37 32 33 35 36 39 39 42 49 49 47 46 51 59 61 63
12 12 13 16 14 14 13 11 8 10 11 11 16 15 18 17 15 11 11 15 14 8 11 15 18 31 25 33 29 30 33 35 33 35 41 42 39 45 50 54 57 60 62
9 9 11 15 13 13 11 11 9 9 10 10 15 13 17 16 16 12 13 12 9 10 13 9 20 21 21 18 21 26 29 34 39 38 36 40 44 47 49 52 56 59 60
8 9 7 12 11 13 9 8 10 6 8 12 14 14 12 15 13 12 14 7 6 7 3 7 4 6 14 16 23 28 24 28 31 37 43 44 46 49 51 53 55 57 61
15 15 12 12 17 15 11 10 9 11 16 15 10 10 14 14 15 13 10 12 6 5 5 10 8 5 9 13 19 23 27 32 34 38 43 46 47 49 51 54 57 62 67
18 16 13 10 11 14 12 14 13 15 16 14 7 8 14 12 9 8 6 6 6 5 5 7 8 12 17 22 24 27 31 35 37 40 42 44 46 50 54 58 64 69 74
12 12 9 9 8 8 11 11 12 12 8 7 9 13 13 5 6 7 8 9 9 9 10 12 14 18 21 25 27 29 32 35 36 38 41 44 49 53 57 63 69 75 81
11 10 9 9 9 8 9 12 9 6 6 7 8 7 5 6 7 7 8 10 12 14 16 19 21 23 24 26 29 31 32 34 37 40 44 48 52 57 64 70 76 72 55
11 11 9 9 9 9 11 8 6 4 4 5 3 3 5 8 10 12 13 13 16 19 20 21 22 24 27 29 29 30 33 36 40 43 47 52 57 64 70 72 54 34 21
11 13 13 10 9 7 7 5 3 3 3 3 5 8 10 12 15 15 15 17 20 20 21 23 26 28 28 28 30 33 36 40 43 46 51 56 63 69 60 32 20 23 23

GFSMW_500_spd_072.txt.gz
Wind_Speed
43 41 42 42 43 42 40 39 40 40 42 41 41 41 39 39 39 39 41 39 38 38 38 37 37 36 35 35 34 33 32 32 32 31 31 33 34 34 34 36 36 39 38
45 43 43 42 41 41 40 38 38 40 41 40 41 42 42 41 41 41 42 40 40 41 43 42 41 40 39 38 37 35 35 33 34 34 35 34 35 34 36 35 36 37 38
44 43 43 43 42 40 39 37 37 37 38 38 39 40 43 42 42 42 42 42 44 44 46 45 44 43 43 40 40 38 37 37 37 38 38 38 37 38 38 39 38 39 39
45 44 43 41 41 41 40 39 38 38 38 41 42 42 43 43 43 45 46 46 46 46 46 46 45 44 45 43 42 42 40 40 40 42 42 41 40 42 43 42 43 42 43
44 45 44 43 42 42 42 42 41 40 39 40 41 43 44 44 44 45 46 46 47 49 49 49 48 46 45 44 45 43 44 45 44 45 45 45 45 46 47 47 47 47 47
43 44 44 44 44 44 44 43 43 42 41 41 43 44 46 46 46 43 44 45 49 51 50 52 48 46 45 44 44 45 47 48 48 49 48 48 48 50 50 52 51 50 51
42 42 42 42 42 42 42 42 42 43 43 43 43 44 45 45 45 44 44 46 47 48 51 53 53 48 48 49 50 49 50 51 52 52 51 51 52 52 53 54 53 52 57
41 41 40 39 39 39 39 40 41 42 42 42 42 42 42 42 43 45 47 47 47 49 52 53 54 54 54 54 55 55 55 56 55 55 56 55 54 54 54 56 55 55 56
41 40 40 39 39 39 38 37 37 38 38 39 39 39 40 41 42 44 47 49 51 52 55 57 58 59 59 60 61 59 58 59 56 61 51 57 58 58 55 52 55 57 61
37 38 39 39 38 36 35 34 33 33 34 35 36 38 40 42 45 48 50 53 55 58 61 63 64 64 65 64 62 61 60 59 56 58 60 63 64 60 59 56 58 57 66
35 34 33 32 31 32 31 30 30 31 32 34 35 38 40 43 47 51 55 59 62 65 67 69 69 69 68 65 63 61 59 58 57 58 59 57 51 65 59 57 58 55 58
31 30 31 31 29 27 27 28 28 30 31 33 36 40 44 49 52 55 58 61 62 63 63 63 63 63 61 59 56 53 52 52 53 55 57 57 60 59 62 57 55 51 57
29 30 29 29 27 27 26 27 28 30 32 35 37 39 41 44 46 49 52 56 59 61 62 63 64 64 64 62 58 52 50 48 48 50 53 53 54 53 53 57 56 53 54
31 28 28 26 25 25 25 27 29 30 30 30 31 30 29 30 31 35 45 51 54 52 52 51 52 54 55 55 53 52 50 47 47 48 49 49 50 53 54 52 52 53 52
25 24 25 24 25 25 26 26 24 23 24 23 18 16 16 22 27 33 41 38 40 37 39 44 46 44 42 41 42 44 44 44 42 42 44 46 49 51 48 47 47 54 56
23 24 24 24 24 23 23 21 21 19 17 12 15 15 20 23 24 30 30 32 33 36 39 36 36 36 28 24 27 32 29 39 38 35 37 41 42 43 45 48 53 56 55
21 23 22 22 23 23 22 20 18 16 19 15 17 16 18 19 22 24 24 26 28 27 24 26 23 14 25 22 32 26 32 27 28 30 34 38 38 38 42 45 47 47 51
20 19 21 22 23 22 21 19 17 17 15 15 17 17 17 17 19 22 21 19 20 21 19 20 13 12 18 23 28 22 30 28 29 33 36 38 38 39 41 43 47 50 52
17 16 15 16 16 19 18 16 16 17 15 15 12 15 14 13 16 18 19 16 14 12 16 14 11 9 11 15 21 26 26 27 27 28 31 31 35 39 44 48 49 50 52
16 13 10 12 16 19 14 14 15 14 15 16 14 13 12 13 15 14 12 13 13 9 13 10 10 5 1 6 16 14 18 19 22 25 30 34 38 41 44 46 47 50 54
19 15 12 12 14 17 19 18 18 16 17 16 18 15 13 14 19 14 13 11 8 7 7 8 8 6 5 7 10 15 19 23 27 30 33 36 38 41 43 46 50 54 59
16 17 17 14 13 14 16 17 18 17 16 17 19 15 14 18 17 13 10 8 8 8 9 9 9 10 12 14 17 20 23 26 29 32 34 36 39 42 46 50 55 60 64
10 10 12 10 11 12 13 15 15 14 15 13 13 12 16 15 11 8 7 6 7 10 12 14 16 17 18 20 22 24 26 29 31 33 36 39 42 46 50 54 59 64 68
12 13 13 11 11 11 12 13 14 15 14 10 12 13 10 7 7 11 12 13 13 13 15 16 17 18 20 22 24 25 27 29 32 36 39 42 45 47 52 58 62 62 46
14 14 13 12 10 10 12 12 14 14 10 9 10 8 7 10 13 13 14 13 14 16 17 17 19 21 23 25 26 28 29 32 35 38 41 42 43 49 56 57 52 35 37
13 14 15 15 14 12 11 12 13 11 9 8 7 9 12 13 15 15 14 17 18 18 18 19 21 23 25 26 27 29 31 34 36 39 40 40 46 50 53 45 37 34 28

GFSMW_500_spd_075.txt.gz
Wind_Speed
47 47 45 43 40 40 41 41 40 38 39 37 38 39 39 40 39 40 40 38 36 36 36 37 37 38 38 39 39 39 38 36 35 33 33 33 31 31 32 33 33 33 34
48 48 46 43 40 41 43 42 41 39 38 39 37 40 42 41 41 41 39 40 39 39 39 39 40 41 42 43 43 42 43 41 39 36 37 34 35 33 36 36 36 36 37
47 48 45 44 41 43 43 41 41 39 39 38 36 41 45 41 42 41 40 40 43 42 42 43 44 45 45 45 46 45 46 45 44 40 40 38 37 38 38 39 40 41 43
46 46 45 43 40 42 43 42 40 40 40 40 41 41 45 45 42 43 44 44 45 44 45 46 46 46 47 48 48 48 47 48 47 45 43 44 42 42 41 42 44 45 46
41 41 43 42 40 41 41 42 41 40 41 42 42 43 43 43 45 46 46 45 46 46 46 47 45 47 48 49 50 51 50 50 51 50 48 47 46 46 46 46 48 48 49
43 43 41 40 40 40 41 42 41 41 41 42 43 44 44 44 44 46 47 47 48 48 50 50 49 49 51 52 53 52 52 52 50 50 50 48 49 49 49 50 48 50 51
42 40 40 40 39 40 39 40 40 42 43 43 43 44 44 45 46 46 46 48 47 48 48 51 52 53 55 55 53 54 53 53 53 53 53 53 53 53 54 55 55 53 54
42 40 40 40 41 41 40 40 41 41 41 43 43 44 45 46 46 45 45 46 46 47 48 50 52 54 56 58 59 58 57 57 58 59 59 57 56 57 57 62 60 55 54
41 40 39 39 40 40 40 40 39 39 39 40 41 41 41 41 41 42 44 44 45 46 47 49 51 54 56 59 61 62 62 62 62 63 64 60 59 57 59 67 53 48 55
39 40 40 40 40 40 40 40 39 38 36 36 36 37 38 38 39 41 42 44 44 46 50 53 55 58 60 63 64 66 67 67 66 65 65 63 60 56 54 58 53 63 70
40 40 41 41 42 41 41 39 38 36 36 35 34 35 36 37 38 40 40 41 44 48 51 55 58 61 64 65 66 66 64 61 60 61 61 61 60 59 57 66 58 47 54
39 39 38 38 37 37 37 35 34 33 33 32 32 34 35 35 36 38 39 40 40 38 41 47 54 58 61 64 64 64 60 58 57 56 55 55 56 58 61 60 68 68 70
34 34 34 35 34 34 32 32 31 31 31 32 31 31 32 34 33 31 29 28 30 34 41 48 51 53 55 56 56 57 58 59 57 55 54 53 54 56 58 60 64 65 65
33 34 34 33 32 29 30 29 30 30 30 29 30 31 30 28 21 19 21 25 29 35 39 43 48 50 50 47 46 49 49 48 48 49 51 53 52 51 52 53 52 55 57
33 31 28 29 28 28 29 28 29 28 28 29 27 27 27 22 20 21 23 25 28 35 35 40 45 49 48 50 45 44 40 39 39 41 44 45 47 47 43 42 44 47 49
27 26 29 28 28 29 28 27 27 27 26 24 25 23 21 20 20 22 24 26 27 31 28 33 41 40 41 38 27 24 29 29 30 28 40 33 40 40 35 39 41 41 45
25 26 26 26 26 26 26 26 26 22 22 24 23 22 20 21 21 22 24 24 26 26 23 27 31 35 32 21 15 21 22 24 30 25 29 28 32 36 39 43 41 42 45
22 22 22 23 23 24 25 25 22 22 24 21 20 23 22 22 20 20 23 20 21 24 24 21 22 24 23 19 20 23 19 19 19 24 28 31 38 39 38 37 40 42 44
19 19 20 21 22 23 23 23 22 23 24 22 20 19 18 17 17 19 19 19 24 24 24 20 18 15 14 16 18 19 19 20 24 27 30 31 29 30 33 36 38 40 43
20 20 20 19 20 19 20 20 20 21 22 24 20 21 18 22 20 20 22 26 25 24 20 19 15 12 11 12 12 11 16 18 20 22 23 26 29 31 33 35 39 43 46
21 20 21 15 11 13 17 19 19 20 20 19 20 23 21 22 24 22 25 22 22 21 19 17 16 15 14 15 16 16 18 21 24 25 26 28 30 32 35 38 41 43 47
20 19 21 19 15 14 17 19 20 19 19 20 20 22 23 23 22 22 21 19 18 18 17 16 17 18 18 19 19 20 21 22 23 25 27 29 32 35 38 41 42 47 51
15 14 16 15 15 13 14 15 15 17 18 18 17 18 18 19 20 19 16 15 16 19 19 18 21 22 21 20 20 21 23 25 27 29 31 33 36 38 40 41 45 48 53
13 13 12 12 12 12 12 13 12 14 16 18 19 18 16 18 16 14 16 17 18 18 19 21 21 20 20 21 23 25 26 28 29 30 33 35 37 39 39 42 45 50 52
13 12 13 13 13 13 13 13 14 16 17 17 17 16 17 14 14 16 16 18 18 19 20 20 21 20 22 25 26 27 28 30 31 33 34 37 39 39 40 42 45 48 48
14 14 14 14 16 16 16 15 16 16 15 16 15 14 13 14 15 17 19 18 19 20 20 21 22 22 25 27 28 29 31 33 34 35 36 38 39 39 40 42 43 45 44

GFSMW_500_spd_078.txt.gz
Wind_Speed
46 46 46 44 44 43 43 39 38 37 38 38 36 33 33 34 35 35 34 33 34 34 34 34 34 35 36 37 36 38 39 39 40 39 38 38 36 36 35 35 35 35 34
49 46 45 46 45 43 40 40 40 38 39 38 37 35 36 36 36 35 36 36 37 37 37 37 38 38 38 39 40 41 42 42 42 42 43 42 41 38 39 40 40 39 37
51 47 46 45 45 45 42 41 40 39 40 40 37 37 37 36 36 38 39 40 40 40 40 39 40 40 40 41 43 42 43 44 45 45 46 45 43 42 42 43 43 42 40
53 53 47 41 41 41 39 40 39 40 41 41 40 38 39 40 37 39 41 42 43 43 41 41 42 42 43 43 43 45 46 47 47 48 47 49 49 48 46 46 45 46 45
46 49 53 44 41 42 41 42 41 41 43 43 43 42 39 39 40 40 41 43 45 45 45 44 44 43 44 45 45 46 46 48 50 49 50 51 52 51 50 49 49 48 47
47 44 46 49 42 42 41 41 42 43 44 43 42 43 43 40 41 41 43 45 45 46 47 47 47 47 47 47 47 48 50 49 52 52 54 54 54 54 53 51 50 51 50
39 39 38 42 39 38 38 40 42 42 42 42 42 42 43 43 43 43 43 46 48 47 44 46 48 49 49 50 51 51 52 53 54 56 56 56 56 56 56 56 55 55 53
41 40 38 38 40 40 38 37 39 40 41 41 42 42 43 43 45 46 47 47 47 48 47 45 45 46 48 49 51 53 55 57 59 60 61 61 59 59 59 59 59 57 56
43 40 38 37 38 38 37 37 37 38 38 39 41 41 41 43 44 44 44 44 44 43 43 44 44 44 45 48 51 54 57 60 63 64 64 63 63 61 61 60 60 57 58
39 40 40 41 39 38 37 37 37 37 37 38 37 38 39 41 41 40 40 40 39 40 42 42 42 44 47 50 52 56 59 62 64 66 65 62 61 61 61 60 59 58 59
40 41 39 39 42 40 38 37 37 37 38 38 38 38 38 39 39 37 37 38 37 37 39 41 42 39 38 44 50 55 58 59 60 61 62 62 60 59 57 58 58 59 61
38 38 39 41 41 40 39 39 40 38 38 38 38 37 36 35 35 35 35 35 36 38 38 35 31 35 40 44 47 52 57 57 54 55 54 54 55 54 54 53 55 56 60
38 38 38 40 41 41 40 38 37 37 36 35 34 33 33 33 34 33 33 34 32 29 28 29 29 35 38 41 47 50 50 52 52 50 48 50 50 53 53 52 51 54 55
35 37 38 38 36 34 34 33 33 32 32 32 32 32 32 31 31 33 29 27 25 25 25 27 31 33 35 40 44 46 46 47 49 47 48 49 42 44 46 45 47 50 54
32 32 32 32 32 31 31 31 30 31 30 30 30 29 29 30 29 28 26 24 28 28 28 28 29 33 36 36 39 34 34 34 31 27 30 35 30 31 33 40 38 44 48
33 32 30 29 28 28 29 30 28 28 28 28 27 29 27 26 24 22 23 24 27 27 28 26 31 33 36 34 33 29 26 22 28 29 17 20 22 29 36 34 30 37 39
25 25 26 26 26 27 28 27 25 26 26 27 27 25 24 22 20 22 24 24 24 25 24 27 31 33 33 29 27 26 23 20 22 23 23 27 28 28 28 28 35 38 38
20 21 22 23 23 24 24 24 24 25 25 25 23 21 22 23 26 25 24 23 24 22 24 28 30 29 31 25 22 24 23 24 24 23 22 24 24 27 30 33 34 33 34
20 21 21 21 20 21 22 23 24 24 24 23 22 22 23 21 21 21 22 23 23 25 29 28 26 26 24 22 22 22 22 21 22 21 24 23 24 25 28 30 30 30 32
19 18 19 19 19 20 19 19 20 21 21 21 22 24 24 21 20 23 25 24 25 28 26 24 25 24 24 23 23 23 23 23 23 24 26 27 27 27 27 28 31 33 35
19 19 19 19 17 15 16 18 18 18 19 19 20 22 21 22 24 25 25 26 26 25 23 23 23 22 23 23 25 25 25 24 24 25 26 27 27 28 30 32 34 36 36
19 20 20 18 18 16 12 15 15 19 20 20 20 20 20 23 25 26 23 22 23 22 20 21 23 23 24 26 26 25 24 24 25 26 27 29 31 33 34 35 37 37 38
17 18 19 18 20 21 19 16 16 16 17 17 19 21 20 20 21 19 19 21 19 20 21 20 21 24 25 25 24 23 25 27 28 30 31 33 34 36 36 37 38 38 40
16 17 17 16 17 18 17 15 16 16 16 16 17 17 18 17 18 18 18 17 19 19 19 21 22 23 23 24 24 26 28 30 31 33 34 35 36 37 38 39 38 39 41
15 16 16 17 16 15 15 15 16 15 14 15 17 17 17 18 17 16 16 18 18 19 19 21 23 22 23 23 26 28 30 32 34 34 35 36 37 38 39 39 38 39 40
16 16 17 17 17 16 16 16 15 15 17 17 16 16 17 15 15 16 17 17 18 18 20 23 22 23 23 25 27 30 33 34 35 36 37 38 39 39 40 39 38 39 40

GFSMW_500_spd_081.txt.gz
Wind_Speed
50 47 46 45 45 46 44 42 38 37 39 39 37 36 34 33 33 31 30 29 29 30 30 30 31 31 32 33 35 35 35 37 39 41 41 41 38 38 37 38 39 38 39
53 50 46 47 45 45 45 43 39 38 40 40 37 36 35 36 34 32 29 30 32 32 32 33 34 34 35 35 36 36 37 38 40 42 44 43 43 40 41 41 41 42 43
48 54 49 48 50 43 44 45 41 38 38 38 38 36 36 36 34 32 32 33 33 33 34 35 36 37 38 38 38 39 40 42 44 43 44 45 45 46 44 44 44 45 46
47 49 52 51 46 51 49 42 38 38 37 38 39 40 39 39 37 37 36 34 34 35 37 37 37 39 39 39 40 42 41 43 44 46 46 47 48 48 48 46 47 48 48
46 46 45 50 52 50 44 42 43 46 45 41 41 40 40 40 38 38 37 37 37 38 40 41 42 41 40 41 42 42 43 43 44 45 46 47 50 52 52 53 53 52 51
45 43 44 46 51 48 45 42 45 45 43 44 42 41 40 40 40 39 39 39 40 42 45 47 45 44 43 43 43 44 45 45 45 47 49 50 50 52 54 57 57 57 58
45 41 39 41 45 53 51 44 41 43 45 45 45 44 43 42 41 41 40 42 43 45 48 48 48 48 48 47 46 45 46 46 46 47 48 51 54 56 57 60 61 62 61
47 44 39 37 39 43 49 51 43 43 43 43 44 44 44 43 43 43 43 42 43 45 46 47 45 45 46 46 45 44 44 45 47 51 53 56 60 61 62 62 63 64 64
48 43 43 40 37 38 39 45 41 39 40 42 43 42 43 43 43 44 44 43 44 44 43 43 43 43 41 40 40 43 44 46 48 51 54 58 61 64 63 62 62 62 63
46 44 42 41 37 36 36 38 38 38 38 39 40 40 41 41 42 43 43 43 42 41 40 38 38 38 39 40 41 41 39 43 46 50 54 60 64 66 63 59 57 57 57
45 43 44 43 37 36 35 36 34 35 37 38 39 39 40 39 40 41 42 41 41 40 38 38 37 37 39 40 37 35 38 41 45 50 51 48 55 61 57 54 54 53 53
38 38 41 41 38 36 36 38 38 38 37 37 38 38 39 40 41 40 40 40 38 37 35 36 37 39 36 30 32 35 36 40 45 44 39 44 44 48 49 48 49 51 50
36 36 36 38 39 39 38 36 37 39 38 38 39 39 39 39 39 38 36 35 34 35 36 37 35 32 32 30 31 34 37 41 40 32 34 38 40 38 35 40 45 42 42
35 36 36 37 37 37 39 41 41 41 39 38 39 37 36 35 33 33 33 33 34 35 35 33 30 29 30 29 33 36 37 38 36 30 32 32 31 30 30 31 33 28 32
33 35 37 37 38 38 38 36 35 34 34 34 32 31 31 31 31 32 32 34 33 31 29 30 30 28 28 30 34 35 35 35 33 30 29 23 27 29 28 28 25 31 31
28 30 31 32 30 31 31 31 30 29 29 29 29 28 29 29 30 30 31 30 27 24 26 28 27 27 27 31 32 33 32 31 30 30 31 29 29 28 29 26 26 28 30
25 25 24 25 25 24 26 27 27 26 26 26 27 27 28 28 28 27 26 21 21 25 25 24 25 25 30 32 31 31 31 30 30 29 28 25 24 23 25 26 28 30 31
19 22 24 25 25 25 25 24 24 24 26 27 26 26 26 25 24 22 23 23 26 24 22 25 27 29 31 29 30 29 30 30 30 29 28 26 26 28 30 30 30 31 31
18 19 21 21 21 22 22 22 22 22 24 25 24 25 25 24 21 21 22 23 22 21 24 26 28 31 28 29 28 28 28 28 29 29 29 28 28 28 28 30 31 31 33
19 19 19 20 20 20 21 21 21 21 22 23 24 25 23 21 21 22 22 21 21 23 25 27 29 26 27 26 25 27 29 29 28 27 26 27 29 29 29 31 32 34 35
20 20 20 20 20 19 18 17 16 17 18 19 20 20 20 20 22 23 23 22 25 27 28 26 25 25 24 25 26 28 28 27 26 26 28 27 29 30 32 34 35 36 37
17 18 19 18 17 17 16 14 13 14 16 18 18 18 18 19 20 22 23 25 26 24 23 23 22 23 23 24 27 27 26 24 26 28 28 30 32 34 35 36 37 38 38
16 16 16 17 17 16 19 17 12 15 17 19 20 21 20 20 22 23 22 22 21 20 20 21 21 22 23 25 26 25 24 25 27 28 31 33 33 34 36 38 38 39 39
16 16 16 16 17 17 18 21 20 19 19 20 20 21 22 22 20 19 19 19 19 18 21 21 20 22 23 24 24 24 24 26 28 30 33 34 36 37 38 40 40 39 41
14 16 17 17 17 17 19 18 18 17 17 18 17 17 17 18 19 19 19 18 17 19 20 19 19 22 24 23 24 24 25 27 29 32 34 35 37 38 40 41 40 41 42
14 17 18 18 19 19 20 19 17 17 18 16 16 17 18 18 17 17 16 16 18 18 20 20 21 23 23 24 23 25 26 28 30 32 34 36 38 40 40 40 40 43 45

GFSMW_500_spd_084.txt.gz
Wind_Speed
49 48 51 47 48 46 46 45 44 43 42 40 38 38 37 36 35 34 32 30 31 31 31 30 30 31 30 31 30 30 32 34 36 37 38 39 39 39 41 42 41 42 42
47 48 51 54 48 47 45 45 44 43 42 40 40 40 38 37 36 34 32 32 33 34 33 32 32 32 32 31 32 33 34 36 38 38 40 41 41 41 42 43 43 43 45
43 48 47 48 55 50 47 44 43 41 41 41 41 41 40 38 35 34 35 35 35 33 33 33 34 34 34 33 34 35 35 37 39 40 42 42 41 43 43 45 46 47 47
42 47 47 48 48 57 54 47 43 42 40 42 41 39 37 36 35 35 37 36 35 35 35 34 34 35 36 37 38 39 39 39 41 41 42 43 44 46 45 45 47 50 50
45 44 47 46 48 48 57 50 45 40 36 36 38 41 39 37 37 37 37 38 38 37 35 36 37 38 39 38 40 42 43 43 43 43 43 44 45 45 47 47 50 51 52
51 47 44 43 44 48 49 52 55 49 45 44 44 41 39 37 38 38 39 39 40 39 37 38 39 41 40 41 43 44 44 44 43 43 42 42 42 44 47 49 52 55 57
51 50 47 42 42 44 50 53 48 51 54 54 54 52 48 44 42 41 40 40 40 39 41 42 44 44 44 45 46 46 44 42 41 40 40 41 44 46 47 51 55 57 62
51 51 51 48 44 43 45 49 52 50 50 45 43 43 41 43 45 44 42 42 41 42 45 45 47 49 49 48 47 44 41 40 39 38 40 41 41 45 48 54 56 57 60
46 51 52 50 46 44 43 44 46 51 52 48 44 43 43 43 43 44 44 43 43 43 45 47 47 47 47 44 43 42 41 39 39 40 37 39 42 46 51 49 50 54 59
43 49 54 51 48 46 42 40 42 45 48 54 50 46 46 44 44 44 43 43 44 43 44 45 44 44 42 41 39 38 38 39 38 35 38 40 43 47 46 45 51 51 51
43 47 52 51 47 46 43 41 39 41 42 46 47 44 43 43 43 43 43 43 44 44 44 44 43 41 38 37 37 38 38 35 32 35 39 42 44 46 40 42 49 43 41
38 44 48 49 46 44 44 46 45 37 37 39 40 41 42 42 43 43 43 44 43 44 43 43 42 39 37 36 37 38 32 30 33 38 40 42 43 44 40 36 38 37 35
35 40 39 44 44 43 42 46 41 36 37 37 37 39 39 40 41 42 42 43 43 43 43 41 38 36 36 38 35 32 30 32 36 39 40 39 43 41 38 33 34 34 32
31 37 36 37 38 41 43 44 40 34 38 39 37 36 39 39 40 41 41 42 42 41 39 37 36 36 37 33 30 32 32 33 37 38 38 38 39 38 35 35 36 35 33
30 31 35 35 36 38 41 41 41 42 42 40 35 36 35 38 40 39 38 37 36 35 35 36 36 35 31 29 30 31 30 35 37 37 36 36 36 36 37 37 34 31 31
27 29 33 34 35 36 37 38 39 40 38 35 37 39 40 38 36 34 32 32 33 34 35 34 32 28 27 29 28 27 33 36 36 35 34 35 35 33 32 31 32 34 34
22 27 31 32 34 36 37 36 35 34 33 31 31 31 31 30 30 31 30 32 33 32 31 28 27 24 26 27 29 32 35 34 34 33 33 32 32 32 33 32 32 32 32
25 23 23 24 26 27 27 25 25 27 28 28 28 28 27 28 29 30 31 30 29 28 25 24 26 25 25 28 32 34 33 33 32 31 31 32 31 30 29 30 31 31 33
20 18 20 21 23 23 23 23 24 24 24 24 26 28 29 29 29 28 28 26 24 26 26 25 22 24 28 30 33 31 32 30 30 31 32 29 27 29 30 30 31 32 35
14 16 17 19 20 22 23 25 25 26 26 28 29 28 27 27 27 26 25 23 24 24 23 22 25 27 29 31 30 30 29 28 30 30 29 27 27 29 30 32 34 35 37
17 19 20 19 21 23 24 24 24 23 23 23 23 25 26 25 25 24 24 23 24 24 23 25 27 28 27 27 27 26 26 28 29 28 26 27 28 29 31 33 35 37 39
18 20 19 19 20 21 21 19 19 18 20 20 21 21 22 22 22 23 24 24 26 27 27 26 24 24 25 25 25 25 27 28 27 26 25 27 29 31 33 34 37 39 41
12 15 17 18 19 19 18 19 19 16 17 18 19 18 19 19 19 20 22 23 24 25 23 22 23 23 24 24 24 26 28 27 26 25 26 28 30 32 34 35 38 41 42
15 16 15 16 16 18 19 20 23 21 16 17 20 21 21 21 22 22 22 22 21 20 21 22 22 23 23 23 24 26 25 26 25 25 27 29 31 33 35 37 39 41 41
17 16 17 17 16 17 18 19 21 23 21 19 19 20 20 20 20 20 20 20 21 22 22 21 21 23 22 23 25 25 26 26 26 27 29 31 33 35 37 39 41 41 40
16 15 16 17 18 18 19 18 19 20 20 20 19 18 16 16 18 21 22 21 21 20 19 20 22 23 24 24 25 26 26 26 28 29 31 33 36 38 40 41 42 40 40

GFSMW_500_spd_087.txt.gz
Wind_Speed
53 47 46 48 52 53 50 49 47 45 45 44 42 41 36 36 37 36 35 31 28 30 31 31 30 30 30 31 31 31 31 32 34 34 35 36 37 37 39 40 41 40 40
47 46 47 46 52 52 55 52 51 50 46 44 44 42 41 41 41 38 34 31 31 33 33 32 32 32 33 32 33 32 33 34 35 35 36 35 36 38 40 41 42 42 44
49 53 48 46 46 51 52 55 50 50 50 46 45 44 44 40 38 35 36 37 36 35 34 33 32 32 33 34 34 35 35 36 37 38 39 39 38 39 40 42 44 45 45
49 51 51 46 49 50 53 52 53 49 47 47 45 43 42 41 38 38 38 39 37 35 35 35 35 35 37 37 37 37 38 39 40 41 42 42 42 41 40 41 42 43 44
43 43 49 44 47 48 52 50 51 48 45 45 44 46 45 43 39 39 39 39 38 37 37 38 37 38 40 40 40 39 41 42 43 44 44 43 42 41 39 39 39 42 44
47 46 44 44 44 47 49 52 55 51 46 44 44 45 43 43 42 41 40 39 39 38 38 39 40 40 40 41 42 42 43 44 46 45 44 42 41 39 39 40 39 40 44
43 48 47 46 46 44 47 49 49 57 56 51 49 42 44 45 42 40 38 37 36 37 39 41 42 42 43 43 44 43 45 46 45 43 42 40 39 39 40 38 38 42 47
48 44 48 49 49 48 44 48 49 50 51 53 54 53 56 52 49 45 45 45 44 43 44 44 43 43 43 44 45 45 46 46 44 41 38 36 37 40 37 39 43 45 48
39 45 48 50 52 51 48 45 48 50 53 51 48 51 56 55 55 52 47 46 46 46 45 44 45 45 45 46 47 47 46 44 40 37 36 37 38 34 37 41 45 48 47
38 41 43 50 54 54 52 50 47 49 50 55 58 56 52 48 47 45 44 46 48 47 45 44 45 46 46 47 47 45 43 41 39 38 38 38 32 35 40 43 46 48 46
38 41 45 48 54 57 54 52 49 48 48 49 49 53 55 54 50 48 48 46 46 45 45 45 45 45 45 45 44 43 41 38 37 38 37 31 34 39 42 44 44 45 44
42 42 45 50 51 55 57 52 50 50 48 46 46 47 48 48 50 53 49 47 47 46 45 44 45 44 44 43 42 40 38 37 37 34 32 33 37 41 42 42 43 42 40
37 39 39 48 50 50 53 49 50 48 46 48 45 40 42 43 43 46 48 46 44 44 44 45 44 44 43 43 40 37 36 36 33 31 32 35 39 41 42 41 42 40 41
32 33 35 37 44 45 50 47 48 46 45 46 45 44 39 42 42 40 43 43 43 43 44 43 43 43 41 39 37 36 35 32 31 31 33 37 40 41 41 41 41 40 38
27 29 35 39 40 42 44 44 46 44 42 42 55 44 36 41 40 36 36 38 40 40 42 42 41 38 36 35 35 35 32 30 31 33 34 39 39 40 41 40 38 38 37
28 32 34 31 35 37 39 42 42 42 43 43 44 33 35 34 50 46 37 35 38 39 37 36 36 35 34 34 34 31 30 30 30 33 37 37 39 40 38 38 38 36 34
30 29 34 31 30 34 36 39 39 40 41 41 42 42 40 39 41 44 43 42 44 40 37 34 34 33 33 33 30 29 30 30 32 35 37 38 39 37 37 36 33 31 33
29 29 30 32 30 33 34 36 36 37 38 39 39 39 37 38 37 37 37 36 34 32 32 32 32 32 30 28 31 29 29 31 34 35 35 36 34 35 35 32 31 32 32
28 33 29 25 28 30 34 33 32 34 34 35 36 34 35 33 31 31 31 31 31 31 32 31 30 29 28 28 26 28 30 33 33 33 33 32 33 34 31 31 31 31 32
12 22 29 29 26 27 27 27 29 30 31 30 29 29 28 28 29 29 30 31 31 30 29 27 27 27 26 27 28 29 31 30 31 31 30 31 32 30 29 29 30 32 34
12 15 17 19 19 22 25 27 27 28 29 30 30 30 31 31 30 33 31 29 28 28 26 24 24 25 27 28 28 29 29 30 29 28 31 31 30 28 28 30 32 33 35
17 17 17 19 19 20 23 25 26 26 27 28 28 28 28 29 30 29 28 27 26 24 24 25 26 27 28 27 26 27 28 27 27 30 31 29 28 27 29 31 32 35 37
14 14 17 17 19 21 21 20 21 22 23 23 24 24 24 24 25 25 24 23 23 24 26 27 27 27 25 25 25 26 26 25 29 30 28 28 28 28 31 32 35 37 40
7 8 11 12 14 17 19 20 20 21 22 18 19 20 21 20 20 19 19 20 21 22 23 23 22 23 24 24 24 24 24 26 28 27 28 28 29 30 32 34 37 40 42
12 15 17 17 16 16 17 18 20 20 23 23 19 19 20 21 21 21 21 22 22 21 21 22 22 22 22 22 23 25 26 27 27 27 28 28 29 31 34 37 39 41 42
18 17 16 17 17 18 18 18 19 20 21 23 22 21 21 21 21 21 21 20 20 20 21 21 21 21 21 23 25 26 27 27 27 28 29 29 30 33 36 38 40 41 42

GFSMW_500_spd_090.txt.gz
Wind_Speed
55 53 53 56 62 60 56 51 43 44 46 49 46 43 41 40 39 37 37 36 32 30 30 31 30 29 28 28 28 29 30 31 32 31 32 31 32 33 36 37 39 41 42
48 52 46 47 50 53 53 54 45 41 43 49 49 47 44 42 40 37 39 35 33 35 35 33 31 30 30 30 31 31 32 33 34 34 34 33 32 36 38 39 40 42 43
47 44 42 43 46 48 49 52 51 47 45 45 45 45 44 42 39 36 38 38 40 40 36 33 33 32 32 32 32 33 35 35 35 36 37 37 36 37 38 40 41 43 44
45 54 51 45 44 46 44 43 48 51 51 49 47 44 42 41 41 42 40 40 41 40 38 36 35 34 36 35 36 38 37 38 37 38 39 40 41 42 41 40 40 40 41
46 48 45 44 45 44 42 40 40 43 50 49 50 50 45 43 44 44 44 44 42 40 38 39 38 38 38 39 38 35 37 40 39 41 42 43 44 44 45 42 39 38 37
42 43 43 43 45 46 48 48 46 44 46 49 56 51 50 49 46 45 45 45 43 42 41 39 40 40 41 38 37 39 41 42 42 42 44 44 45 44 43 39 37 37 39
44 42 39 40 44 46 44 41 46 48 48 49 49 51 50 50 49 48 48 47 45 42 41 40 40 40 38 39 42 44 44 44 44 44 45 44 44 42 40 38 37 38 34
39 41 44 44 44 43 44 40 41 48 48 52 51 48 47 45 43 47 47 46 43 41 40 41 39 39 41 43 45 46 46 45 44 45 44 42 41 40 38 38 38 32 34
43 45 41 40 45 46 46 46 45 45 49 51 53 57 58 55 55 54 50 46 45 46 47 47 50 51 50 50 49 46 46 45 45 45 43 41 39 37 37 37 32 33 37
32 34 37 44 46 45 47 50 50 48 46 50 52 53 54 53 58 58 56 53 52 51 50 50 49 49 48 48 46 44 45 45 45 43 41 39 37 37 38 32 33 36 40
31 31 32 36 40 47 52 52 51 52 51 49 51 54 55 55 52 50 49 50 52 51 48 45 45 47 47 46 45 46 45 45 44 42 41 38 38 37 33 33 35 39 41
35 37 37 37 39 41 46 51 57 56 53 54 52 52 56 61 61 59 57 56 53 50 51 50 48 49 48 46 47 45 44 44 43 42 39 38 37 33 32 34 37 41 42
38 39 40 41 42 45 46 48 51 57 56 54 54 53 53 53 53 53 54 55 53 53 54 54 51 49 48 46 46 44 43 43 42 38 38 37 33 32 33 35 39 41 41
34 34 34 37 38 44 49 50 51 52 56 51 52 52 50 48 50 50 50 51 47 44 46 49 49 46 45 43 44 43 42 40 37 37 37 34 32 31 32 37 39 40 42
32 37 38 37 38 39 41 42 44 48 52 49 47 50 49 45 47 46 49 42 45 43 41 42 42 43 42 43 42 41 38 36 36 36 33 31 31 30 35 37 38 40 40
34 37 39 40 37 33 40 38 37 42 45 44 44 45 44 44 43 43 46 45 40 43 35 33 33 35 38 36 36 36 35 34 35 32 30 31 30 33 36 35 37 36 38
31 33 38 40 37 33 36 36 37 39 40 40 42 42 42 40 43 33 31 34 38 45 39 35 37 39 40 37 35 35 33 32 30 30 30 29 32 34 34 34 34 36 35
27 28 31 33 32 31 33 30 33 35 35 38 39 39 42 41 39 36 33 36 39 40 43 45 45 41 36 33 33 32 30 28 29 29 29 32 33 33 32 32 34 33 31
25 23 24 28 28 30 30 32 32 32 32 32 34 35 36 38 38 40 38 43 39 38 37 36 34 33 32 31 30 28 27 27 27 28 31 32 32 31 31 33 33 30 30
22 20 21 25 33 31 33 32 32 30 31 32 33 34 35 37 39 39 38 36 33 32 32 31 31 30 29 28 26 25 25 27 29 31 30 30 30 30 32 33 31 29 30
20 17 17 15 21 32 31 30 28 30 30 32 31 33 33 33 33 33 34 32 29 29 30 29 28 27 26 24 24 25 25 28 30 28 29 29 29 31 33 32 30 29 31
20 19 17 16 18 21 19 19 25 30 34 32 32 34 34 35 31 30 30 27 29 30 30 28 26 24 23 23 23 25 27 28 27 27 27 28 30 31 31 30 30 31 33
19 20 20 20 17 17 20 20 21 24 26 28 30 31 29 27 27 31 33 32 31 28 26 25 23 23 25 25 25 25 25 26 26 26 26 28 28 29 29 29 30 32 34
15 14 12 10 10 13 17 20 21 21 22 23 24 24 25 27 27 27 26 25 25 25 24 23 24 24 23 23 22 23 24 24 24 25 26 26 26 28 28 29 31 33 35
14 14 13 13 14 16 16 15 16 19 20 20 22 21 19 21 22 21 20 20 20 21 22 22 23 22 21 21 22 22 22 22 24 26 27 27 27 29 29 30 31 34 37
19 19 16 14 16 17 17 18 17 17 18 19 21 23 21 19 22 23 23 23 24 24 23 22 21 21 21 22 22 22 23 25 26 27 27 28 28 29 29 31 33 35 38

GFSMW_500_spd_093.txt.gz
Wind_Speed
64 58 56 56 60 57 51 49 49 53 47 45 55 52 45 42 40 35 39 37 36 33 32 31 31 30 28 26 26 27 28 28 29 27 28 29 29 31 33 34 36 38 39
55 56 53 51 52 57 57 47 53 52 49 48 51 51 51 50 44 45 45 39 36 35 34 35 34 31 30 29 29 29 30 31 32 29 29 29 31 33 34 35 38 40 41
45 46 54 51 51 53 56 58 52 53 51 53 54 49 50 51 49 50 46 42 39 38 38 38 36 34 33 33 32 32 32 33 34 34 32 33 31 34 34 36 40 41 43
47 49 49 49 45 47 45 45 54 57 54 50 54 53 53 52 52 53 48 44 40 39 39 36 34 36 37 34 32 34 33 31 33 37 35 34 36 39 38 38 40 41 41
46 54 46 47 57 48 46 49 53 54 59 56 53 53 51 48 44 44 42 41 40 37 38 39 37 39 37 34 34 35 35 36 40 36 35 38 41 41 41 43 42 41 39
40 51 56 46 44 43 40 34 36 41 42 43 47 49 48 47 42 40 39 40 43 45 42 40 40 41 40 41 42 41 41 40 34 38 41 42 42 41 44 43 41 40 40
35 33 39 40 42 47 43 43 46 40 40 39 35 39 44 48 50 49 47 46 46 44 42 42 41 43 42 41 40 40 37 34 39 43 45 45 44 43 44 42 42 40 40
36 35 35 37 42 43 43 41 41 41 41 44 42 45 44 45 49 54 46 48 48 48 47 46 45 45 43 43 42 38 39 43 44 45 47 45 44 44 43 42 40 42 38
30 34 37 37 36 39 39 40 43 45 44 44 45 48 48 48 47 48 48 51 51 53 51 49 47 45 41 41 44 46 48 51 49 50 47 45 45 45 42 41 40 39 39
35 36 36 34 34 36 42 45 43 43 43 45 47 46 48 50 51 51 49 48 48 51 50 49 47 46 47 50 51 51 51 49 50 47 44 45 44 42 42 39 37 38 36
24 28 31 34 38 41 41 41 42 43 45 47 46 47 47 49 52 53 55 58 57 58 58 57 56 53 54 54 50 49 49 47 46 44 43 43 42 42 40 38 37 37 33
25 25 26 27 29 31 35 41 47 46 46 46 49 51 51 50 51 52 57 56 54 52 50 49 49 49 49 50 49 46 47 48 46 46 43 42 41 40 39 39 38 34 34
29 30 31 31 32 32 33 34 37 40 45 48 50 52 52 54 54 54 54 54 58 56 55 53 54 54 53 52 51 51 49 49 46 44 43 42 42 40 40 39 35 34 34
29 30 32 34 34 35 36 38 41 43 46 47 48 50 52 53 55 55 55 54 53 54 56 55 53 51 49 51 49 52 50 49 45 43 44 42 40 40 40 36 33 33 34
34 36 35 36 38 38 40 40 42 42 43 46 49 52 53 52 52 54 53 51 49 51 46 46 53 48 42 41 44 45 45 46 42 44 41 38 39 39 35 32 31 32 35
27 28 32 34 37 40 40 41 43 45 44 43 42 47 50 48 47 47 48 47 43 45 47 49 41 42 43 38 38 40 40 41 39 34 37 41 37 33 31 30 31 33 33
26 30 34 38 38 39 42 45 42 41 40 42 39 36 38 38 40 42 43 42 43 40 43 45 37 45 44 41 37 35 34 37 37 40 38 34 31 30 29 29 32 32 31
26 28 32 34 36 35 36 36 37 37 35 38 38 36 36 36 38 42 40 42 37 38 37 36 39 40 44 46 46 44 42 42 39 34 31 28 28 27 28 30 30 31 31
27 27 28 28 28 30 31 30 30 31 33 32 32 34 33 36 37 39 40 39 37 35 34 37 38 37 36 39 39 39 35 32 30 27 26 26 26 28 29 29 30 31 32
26 27 24 24 27 28 28 29 30 29 32 32 34 32 28 30 31 35 34 35 36 36 37 37 36 32 30 33 31 29 27 26 25 24 23 25 28 28 28 29 29 31 31
26 26 25 25 25 24 24 29 31 33 33 32 32 29 31 29 31 30 31 33 35 36 37 35 33 30 28 26 26 26 25 23 23 23 24 25 27 28 27 28 30 30 29
24 26 27 24 21 21 19 18 23 27 33 30 32 31 30 32 30 31 31 31 31 30 27 28 25 23 23 24 25 24 22 22 22 24 25 25 26 27 26 27 27 27 27
23 23 23 24 25 23 21 17 17 18 18 23 34 38 33 27 26 30 30 31 29 27 26 27 26 25 27 25 23 22 22 23 23 23 24 26 26 25 24 23 24 25 27
20 22 22 22 21 17 16 16 18 21 21 21 24 25 25 24 27 28 27 25 25 27 31 30 27 26 24 23 24 24 23 22 22 23 24 23 24 24 25 28 27 27 28
21 18 17 17 15 15 15 16 19 18 18 21 23 22 23 23 23 25 27 28 27 26 25 25 25 26 26 25 24 23 23 23 22 21 22 24 24 25 26 26 26 28 30
22 24 22 20 16 17 17 17 18 19 19 20 21 21 21 24 23 21 23 22 22 23 24 25 25 24 25 24 25 25 24 22 22 24 24 23 23 23 25 25 26 28 30

GFSMW_500_spd_096.txt.gz
Wind_Speed
59 61 54 55 55 58 54 56 53 44 46 40 53 53 52 47 45 43 42 41 38 37 35 34 33 32 33 31 28 27 28 28 28 27 29 29 29 29 30 31 32 35 37
52 62 57 54 53 55 58 56 54 43 45 45 39 52 58 55 54 51 50 45 41 39 38 38 37 36 35 33 31 30 30 31 30 30 31 30 30 31 31 32 34 37 39
50 55 65 57 57 51 59 59 56 55 47 43 45 47 50 52 54 53 51 49 44 42 45 43 41 39 36 35 34 35 33 33 32 33 33 31 31 34 31 33 37 40 42
46 57 59 58 58 54 53 54 61 56 56 48 43 49 50 45 51 51 46 47 45 50 52 49 44 40 40 39 37 37 35 33 34 31 31 32 34 31 29 34 37 40 42
47 58 56 50 57 56 46 43 49 53 55 54 58 48 52 53 54 52 53 51 47 51 46 41 41 37 38 35 34 35 36 35 34 35 34 35 36 33 35 36 41 40 43
48 48 51 64 52 55 48 43 48 53 48 53 54 53 51 50 54 54 51 49 43 42 47 43 40 37 35 35 35 33 37 39 40 41 43 40 38 38 40 41 44 44 44
38 47 53 51 59 61 44 55 58 61 54 61 54 56 60 56 49 50 54 47 47 46 45 40 41 42 36 36 37 39 38 38 40 42 40 38 41 43 45 46 43 40 46
37 37 38 57 49 55 53 48 64 51 50 59 46 41 43 44 50 40 40 46 44 44 42 41 43 45 44 43 43 45 45 44 40 38 41 43 47 49 47 47 42 46 47
29 31 31 33 37 42 48 50 36 35 39 38 39 38 37 39 40 39 39 37 42 42 44 43 43 44 46 47 46 45 44 42 41 43 46 48 49 48 47 47 45 46 44
27 28 33 34 32 31 32 37 39 37 36 39 40 39 38 41 42 44 43 43 44 44 46 44 48 47 49 50 50 48 47 46 47 49 48 48 50 49 46 44 45 45 42
27 30 31 32 34 35 32 32 34 36 38 38 40 41 43 44 45 47 48 49 50 49 51 52 49 49 47 48 48 49 50 53 54 54 52 45 45 45 45 44 47 45 45
22 25 30 33 32 30 31 32 34 37 41 43 45 47 47 47 48 48 49 49 49 51 53 55 55 55 54 54 53 54 54 54 52 51 52 46 46 48 47 44 44 45 43
22 21 22 24 27 30 31 33 34 39 44 46 46 45 45 46 48 50 52 53 53 53 53 53 52 52 53 52 50 48 49 51 50 50 49 50 48 47 46 44 45 43 41
24 24 26 25 25 26 26 28 29 29 31 33 38 41 43 46 50 52 54 55 55 54 55 54 53 50 49 48 50 51 48 47 47 48 48 49 47 46 45 43 41 40 40
30 29 27 27 28 29 30 31 31 32 34 36 38 39 41 43 47 51 54 53 53 56 56 54 51 50 47 45 43 43 48 46 45 45 45 45 44 45 41 37 38 42 32
30 30 30 30 30 30 32 34 36 37 39 40 41 43 44 47 48 49 53 55 55 54 52 52 49 47 45 44 46 47 43 41 40 42 43 44 39 35 37 36 39 32 33
28 28 27 27 27 29 31 34 35 37 41 44 46 48 51 48 45 44 45 50 51 51 45 47 45 43 42 45 48 47 44 44 46 39 35 36 38 38 38 37 29 33 33
20 19 23 25 27 30 34 37 40 41 42 45 49 49 48 47 45 44 43 39 41 42 42 45 44 42 44 43 40 39 45 49 50 50 43 38 39 38 34 31 30 30 31
25 26 27 28 30 30 32 35 38 39 40 40 40 40 41 39 38 38 39 36 39 42 44 44 41 42 43 39 38 41 41 42 44 45 38 39 35 29 30 28 29 31 31
26 28 30 30 29 28 31 32 32 33 36 36 31 31 33 33 33 34 33 36 37 39 41 41 41 42 40 38 36 36 34 34 33 35 33 28 28 27 27 28 30 30 30
27 29 30 29 28 30 30 29 28 30 31 33 33 31 31 34 34 33 33 33 31 34 36 37 39 39 41 36 33 34 31 29 27 25 26 28 27 26 27 27 28 28 29
27 28 27 28 28 27 25 23 24 24 24 27 28 32 31 33 32 32 31 32 31 28 31 33 34 35 35 32 31 30 29 28 28 29 27 25 26 26 25 26 27 27 27
25 26 27 27 25 24 25 27 24 26 24 22 22 24 26 34 32 33 31 30 31 29 29 28 27 28 27 30 28 26 26 27 27 27 26 25 25 25 25 25 25 27 27
21 21 24 25 25 25 25 25 26 26 25 23 24 23 23 24 25 27 33 35 31 33 28 29 29 31 27 26 26 27 29 28 27 27 25 24 24 24 24 25 26 27 28
23 22 24 23 21 24 22 21 22 22 21 24 22 22 25 26 26 27 26 25 25 26 28 26 28 28 30 29 29 28 27 27 27 26 25 24 24 24 25 26 27 27 27
18 22 22 25 24 21 21 23 23 22 21 21 22 24 26 27 26 26 25 27 28 27 28 28 29 29 28 29 29 29 28 28 27 27 26 25 26 25 26 27 27 27 27

GFSMW_500_spd_099.txt.gz
Wind_Speed
51 52 48 43 48 53 55 56 53 54 53 52 52 52 49 46 45 43 43 45 44 42 39 37 35 34 32 32 30 29 29 28 29 29 29 29 30 31 32 31 32 33 34
53 54 50 46 47 51 54 54 58 57 56 54 49 43 46 51 50 49 50 49 49 48 45 42 39 37 36 35 34 32 32 31 32 30 30 30 32 33 35 32 33 36 34
52 52 52 51 49 49 53 45 55 59 56 56 54 49 44 41 54 56 54 53 54 54 51 48 44 42 42 40 37 36 36 35 33 31 32 34 34 30 29 33 36 34 34
49 49 49 51 58 57 51 51 49 59 60 58 59 56 47 40 45 47 52 59 62 60 60 58 49 45 46 45 42 40 40 38 36 34 33 34 32 32 33 31 28 33 37
54 49 47 45 46 58 59 53 53 50 50 57 61 64 54 47 41 41 47 44 54 57 55 57 52 52 54 53 55 50 43 36 30 31 34 33 35 35 37 37 34 33 37
54 52 49 48 45 45 59 59 52 51 45 45 66 59 54 56 46 44 45 47 47 58 59 49 52 55 44 43 36 31 27 30 30 34 33 37 36 33 36 39 37 41 45
51 51 49 49 46 51 53 62 54 52 52 42 44 48 52 57 56 42 41 49 54 51 53 53 49 51 39 38 37 37 35 39 37 38 35 36 38 40 36 39 41 43 45
47 43 42 42 43 51 55 52 60 52 53 47 49 42 54 50 49 53 45 36 45 48 46 43 48 46 45 33 34 40 39 36 35 38 39 39 37 38 40 42 46 47 47
40 37 40 38 43 49 54 60 52 63 59 50 46 54 51 44 48 44 52 56 51 42 40 33 43 43 42 44 40 36 38 42 40 39 39 42 41 43 45 46 46 47 45
35 34 33 33 35 41 58 59 54 62 51 56 57 60 52 56 45 42 41 40 43 42 37 36 35 35 37 35 38 38 38 41 43 43 42 44 45 48 49 50 49 45 45
34 32 33 33 34 31 35 39 56 34 41 43 39 43 41 40 35 36 36 38 36 36 39 42 42 42 41 39 41 44 42 43 44 47 50 52 54 54 51 50 50 47 47
27 29 28 28 29 29 29 27 27 25 27 29 29 31 43 38 42 41 39 40 41 43 45 45 45 45 46 47 47 50 49 49 48 49 48 49 50 48 49 49 48 48 49
25 24 25 27 28 26 27 27 26 30 30 30 30 33 37 38 38 40 43 45 47 48 48 48 47 47 47 48 48 48 47 45 49 49 49 50 51 51 49 47 48 49 48
23 21 21 22 25 28 29 27 29 31 31 35 36 38 39 42 42 43 44 46 46 47 48 50 51 52 53 54 54 52 49 48 47 43 44 48 49 48 46 47 47 47 44
23 23 22 22 21 21 22 23 24 25 26 27 28 31 33 35 36 37 39 40 41 43 47 49 51 52 54 57 56 54 53 48 45 44 44 45 46 47 46 45 45 44 39
24 25 24 23 23 24 25 25 26 27 28 28 29 31 33 35 37 39 41 44 44 47 50 52 54 53 55 53 54 54 49 46 43 47 48 46 41 38 39 41 37 33 37
25 25 25 25 26 27 28 27 27 28 30 32 34 36 37 41 44 45 47 49 51 52 49 51 51 54 57 55 52 50 46 43 46 45 48 45 45 45 42 37 38 36 33
22 21 21 22 21 20 22 23 25 28 31 34 37 40 42 43 44 47 52 54 54 52 52 51 47 49 53 52 50 48 46 47 48 46 41 43 47 48 52 49 36 34 34
18 18 17 17 18 19 21 25 28 32 35 38 39 40 42 45 47 49 49 48 48 49 48 50 47 47 48 48 47 46 48 47 42 40 42 44 43 41 44 35 35 29 29
22 23 24 25 26 28 30 31 32 33 34 37 39 41 43 44 44 44 43 41 39 38 40 41 40 43 45 45 44 44 46 43 44 41 41 39 36 35 35 33 26 28 28
21 24 28 27 26 28 32 33 33 34 36 36 35 36 38 40 41 41 35 36 37 39 37 36 35 38 37 38 39 41 42 45 43 36 32 33 32 28 27 26 27 28 29
26 28 28 27 28 29 31 32 33 34 32 30 29 29 31 32 34 38 36 32 33 32 34 39 34 33 36 36 36 39 41 40 37 34 33 31 30 28 26 27 28 28 28
25 25 26 27 28 31 34 32 30 30 29 29 28 29 27 26 27 28 30 33 33 34 31 32 31 30 29 33 36 36 36 32 35 32 29 31 28 28 28 28 28 27 26
27 27 27 29 29 30 30 29 29 28 28 29 29 27 27 27 27 26 26 28 29 30 35 34 32 28 27 31 30 29 32 36 32 31 30 29 29 29 28 28 27 26 25
24 25 26 25 25 27 27 25 28 28 26 25 24 26 26 27 26 29 27 27 27 28 29 28 31 32 33 30 29 31 29 29 28 28 27 29 28 28 28 27 26 25 27
25 26 26 26 28 27 28 26 23 23 25 26 28 27 26 26 26 27 31 29 29 28 27 27 27 29 29 29 33 31 29 29 28 28 29 28 28 28 27 27 26 27 27

GFSMW_500_spd_102.txt.gz
Wind_Speed
56 57 55 51 48 46 47 46 46 45 47 44 45 46 48 43 40 42 39 39 40 39 39 39 38 38 36 35 35 32 31 30 29 29 29 29 27 28 28 30 31 31 30
55 56 55 51 48 45 44 43 46 48 49 51 48 51 45 46 47 44 43 43 43 42 40 42 43 43 41 41 37 37 35 35 33 31 31 30 30 29 30 32 33 30 32
54 57 54 50 47 43 42 45 43 46 49 50 52 52 47 53 48 39 43 50 48 46 46 48 48 47 46 45 44 41 42 41 38 35 33 33 34 33 33 32 31 32 35
53 51 53 50 48 45 42 44 43 44 49 47 50 54 55 52 49 46 41 46 51 52 52 52 53 52 51 52 50 53 49 44 43 41 39 36 35 34 31 31 32 35 38
47 50 53 47 46 47 46 45 41 41 45 51 44 57 57 56 51 52 52 49 42 40 49 45 47 54 55 54 55 51 51 49 45 44 44 36 29 30 31 32 31 32 35
51 46 49 52 44 47 45 44 42 43 47 48 52 45 51 57 53 52 55 50 42 44 48 44 40 35 41 51 50 49 49 42 41 26 27 28 31 35 32 33 35 38 36
51 47 44 47 46 40 44 44 45 44 48 52 50 49 49 46 57 51 47 47 49 42 44 50 50 52 61 56 54 50 48 41 44 37 35 32 34 35 36 37 38 37 37
56 52 44 47 51 47 44 47 42 43 45 53 57 50 48 42 45 49 45 47 57 53 44 45 44 55 54 49 50 46 41 37 38 38 34 38 39 39 37 39 39 38 38
51 56 54 54 56 48 50 47 48 50 52 53 59 57 56 45 43 40 45 57 51 55 51 49 44 44 27 38 41 42 37 30 34 35 40 36 32 35 37 36 40 44 44
47 47 50 48 47 46 45 41 44 51 53 50 53 51 54 56 53 41 52 38 45 47 47 45 45 52 45 33 33 31 32 33 36 37 35 33 35 39 41 42 44 46 47
48 44 39 40 41 41 37 37 43 45 49 50 47 62 57 50 55 44 42 39 44 39 36 43 43 42 41 38 40 37 36 38 39 39 40 42 42 43 45 46 47 46 45
40 43 42 38 34 34 34 35 34 35 48 50 58 51 63 60 47 36 39 40 44 44 43 40 44 42 45 45 47 46 47 48 47 46 45 45 47 43 45 45 46 47 48
35 38 36 32 31 33 33 31 30 31 30 35 46 41 44 30 31 30 34 35 38 41 41 43 45 45 42 44 45 46 45 45 46 44 43 43 42 41 42 43 45 46 47
34 34 36 34 31 30 28 28 28 29 27 23 22 23 23 25 27 28 31 34 36 35 37 41 43 44 42 43 43 44 46 47 48 48 47 48 45 42 42 42 41 43 45
32 32 30 29 30 28 26 26 27 26 27 25 28 27 27 27 28 28 30 31 33 33 35 36 37 41 41 43 44 45 47 48 49 49 50 48 46 45 44 45 44 42 40
27 26 26 25 22 21 20 20 20 21 22 22 24 24 23 25 27 29 30 32 34 36 38 40 42 44 45 48 48 48 49 51 51 51 49 49 47 45 48 46 43 40 41
23 23 23 23 23 22 22 21 21 22 22 23 24 25 25 28 30 32 34 36 38 41 43 46 47 48 52 53 52 50 50 52 53 53 52 48 45 47 48 47 46 46 47
19 20 21 22 20 20 20 20 22 22 21 22 23 24 26 29 32 35 37 41 43 45 46 48 51 54 55 54 53 52 50 49 50 51 49 48 47 47 44 41 41 43 46
20 20 19 19 19 19 19 19 20 20 21 22 25 28 31 34 37 40 42 44 45 47 49 51 50 50 51 52 51 50 49 47 46 48 46 46 45 40 39 41 45 42 40
17 18 19 19 19 19 19 19 20 24 26 27 29 31 33 36 39 43 44 45 47 48 47 47 46 47 45 43 42 43 42 43 42 42 41 40 38 40 41 41 39 34 32
18 21 22 23 24 25 25 25 27 29 30 31 32 34 36 39 42 43 44 45 46 45 44 44 43 43 41 40 37 37 40 39 37 34 36 35 36 40 37 35 32 31 29
19 23 24 24 25 27 27 27 27 29 31 33 35 36 38 38 36 37 37 38 38 39 41 42 40 37 35 36 39 37 36 36 34 34 34 34 37 38 35 35 27 28 29
22 23 23 26 28 29 30 29 29 31 33 36 37 37 35 33 33 33 31 30 31 31 33 35 38 38 36 33 33 32 33 32 33 33 34 35 35 34 32 33 32 26 25
25 23 23 25 26 28 28 30 32 32 34 36 36 34 32 32 32 30 31 30 31 29 31 30 31 32 34 34 36 31 28 28 32 32 33 33 35 35 32 30 25 27 28
28 27 28 28 29 29 30 29 28 30 32 31 31 31 31 29 28 28 30 30 33 32 31 30 30 31 31 34 35 37 36 33 31 31 30 32 36 31 32 30 29 30 27
29 29 28 28 28 28 29 28 30 29 28 29 28 29 28 29 31 31 30 30 31 31 30 29 30 29 29 29 29 30 28 30 30 30 30 29 27 29 30 29 30 28 25

GFSMW_500_spd_105.txt.gz
Wind_Speed
49 53 58 57 53 53 49 48 49 43 44 30 38 32 35 35 36 33 35 34 31 33 34 33 33 35 36 36 36 34 33 34 31 31 32 30 30 31 30 31 31 29 30
64 55 57 57 55 52 51 46 45 47 47 38 39 39 37 38 39 40 39 35 31 37 36 37 38 38 39 40 40 39 38 37 37 35 35 34 34 35 33 34 33 33 32
54 60 58 59 56 54 51 50 46 46 43 40 39 38 37 43 41 39 40 40 41 35 32 40 43 45 44 43 42 39 41 43 42 41 42 40 37 39 38 37 38 34 33
58 50 53 56 56 54 50 47 43 43 43 42 41 40 38 40 39 46 45 45 43 38 37 34 41 48 49 46 46 45 46 48 49 47 54 52 51 49 48 40 36 33 31
53 53 50 56 55 54 50 46 44 42 42 42 40 39 40 42 40 44 48 50 50 46 44 41 44 48 45 41 44 47 47 48 43 46 47 41 38 37 32 32 30 34 34
51 51 50 48 52 51 51 48 45 43 41 39 38 38 39 40 42 38 46 50 44 42 43 43 39 41 44 48 42 26 30 37 41 46 44 46 39 35 29 32 34 35 33
52 52 53 47 42 46 47 47 44 43 41 40 40 39 40 41 44 48 43 46 46 49 37 48 41 45 45 40 45 44 46 51 51 48 46 44 41 38 36 35 37 36 37
49 49 49 46 50 41 42 42 43 44 44 45 42 39 40 41 44 45 51 48 48 47 49 45 44 45 43 49 45 43 46 51 56 47 42 44 45 38 36 39 45 43 41
46 48 47 43 44 47 42 45 42 44 43 40 40 43 43 43 44 50 50 49 46 45 45 44 43 47 49 48 47 50 52 41 36 37 41 51 39 39 40 40 33 35 34
47 46 47 47 49 48 48 45 47 46 42 41 45 48 47 47 47 48 54 54 53 49 48 44 49 48 47 50 46 39 41 39 52 47 42 39 35 34 37 37 41 46 42
47 48 47 49 50 49 49 47 43 47 46 49 50 50 52 53 51 51 54 57 50 45 48 44 38 34 42 47 48 48 37 36 35 32 33 34 36 39 44 42 42 43 42
43 44 42 42 45 50 48 47 48 48 45 45 52 52 53 52 50 48 45 45 49 54 49 41 42 38 39 45 44 41 37 40 43 46 50 51 49 48 48 44 43 40 41
43 45 44 41 39 32 35 39 42 43 41 40 39 39 37 41 47 45 46 53 59 61 48 47 42 38 41 44 46 47 44 47 47 45 48 47 45 41 42 42 42 42 40
41 38 37 39 41 36 36 38 37 38 35 34 32 29 27 27 35 44 30 35 37 29 30 31 32 34 37 38 39 40 41 41 41 40 40 40 42 43 45 46 46 45 45
35 37 35 34 37 38 37 34 33 31 30 29 28 27 26 26 26 25 23 23 23 25 27 32 33 33 33 35 37 38 39 40 41 42 43 44 45 46 46 46 46 46 46
31 30 30 35 34 34 33 29 28 27 27 28 28 30 29 29 26 24 21 24 26 27 30 32 34 35 37 39 42 42 43 44 46 48 50 48 50 50 51 50 49 47 48
27 28 31 33 34 34 35 31 30 29 28 28 26 25 25 24 24 25 26 29 31 33 35 35 37 40 41 42 44 46 46 49 51 54 53 51 51 50 50 52 50 48 48
20 23 28 29 28 28 28 29 28 27 26 25 24 24 25 26 27 27 29 31 33 35 37 39 42 45 47 48 50 50 51 52 52 53 52 52 51 49 47 46 48 46 45
22 22 24 25 26 26 25 25 25 26 26 27 28 27 26 26 28 30 31 32 34 37 40 43 45 46 47 48 49 49 48 49 46 45 46 47 47 46 44 42 42 41 36
22 22 22 24 25 26 27 27 28 28 27 26 25 25 27 29 30 32 32 34 36 39 41 42 43 44 45 46 45 43 43 44 45 44 41 40 41 39 36 36 34 35 35
25 26 26 24 24 25 26 26 26 26 26 26 28 30 32 33 34 35 35 37 39 39 40 41 41 42 42 43 42 40 41 40 38 38 38 39 39 36 35 34 35 32 32
19 19 22 24 26 27 28 30 31 30 29 29 30 31 32 34 35 38 38 37 36 36 37 37 37 38 38 38 40 40 40 41 39 38 37 37 36 35 35 33 32 32 32
18 12 16 24 27 29 30 31 31 32 32 32 32 33 33 35 37 39 39 38 36 35 32 33 35 35 34 36 37 38 39 36 32 34 34 33 33 33 32 32 32 33 31
27 26 20 23 27 29 29 29 30 32 34 34 34 36 37 38 37 37 36 37 35 32 31 33 33 34 36 36 35 35 32 32 35 35 28 29 31 30 31 32 30 29 31
36 32 29 25 26 26 27 29 30 32 33 34 34 34 34 33 33 35 36 34 32 33 33 33 33 33 35 37 33 35 35 33 32 34 36 38 32 30 29 29 33 33 28
36 36 33 30 30 29 29 29 29 30 30 31 33 31 31 30 29 32 33 33 34 33 34 35 35 34 33 33 31 30 31 31 29 30 29 32 29 29 28 26 27 31 30

GFSMW_500_spd_108.txt.gz
Wind_Speed
45 55 57 49 46 47 49 52 50 48 42 37 39 47 48 41 37 33 30 27 22 25 28 29 29 29 29 31 32 33 33 34 34 33 34 31 31 31 30 30 31 32 34
47 56 57 52 49 48 45 45 46 43 40 39 41 36 58 47 36 29 29 27 29 27 29 35 31 35 33 33 36 37 36 36 38 37 37 35 35 37 39 38 39 38 40
65 45 56 56 54 50 49 46 43 44 45 43 45 47 40 33 29 34 31 31 32 31 29 31 37 31 31 31 35 41 42 42 40 38 38 40 42 43 41 50 50 48 48
61 60 48 57 56 54 51 50 50 50 47 43 46 47 42 30 30 31 29 33 34 32 30 40 33 40 34 32 35 40 45 47 45 39 41 38 41 35 39 40 38 38 44
54 59 59 48 54 56 55 53 53 53 48 41 38 34 35 32 34 27 34 34 31 36 37 38 37 41 41 41 42 40 46 37 43 43 45 39 41 39 41 39 40 37 41
49 66 63 55 54 55 55 54 52 52 48 45 42 39 38 38 35 34 35 36 36 36 34 35 38 35 37 39 41 38 38 30 27 26 30 32 38 38 41 42 43 43 38
47 45 49 59 52 52 54 55 55 51 48 45 42 40 37 36 35 35 36 36 36 39 42 37 32 35 37 33 40 40 37 32 34 38 40 42 44 42 41 36 37 39 41
40 41 45 46 44 44 51 54 53 50 49 47 44 40 39 38 38 39 40 39 39 42 44 48 49 46 45 46 44 36 34 43 44 43 48 42 42 42 35 40 42 45 40
40 44 49 51 50 43 41 48 52 50 49 48 45 43 42 41 42 42 41 41 41 41 43 46 50 50 47 47 48 46 43 40 44 41 45 48 41 37 40 42 37 37 41
37 45 44 42 46 45 41 36 42 46 47 47 45 44 41 42 43 43 43 45 43 46 44 46 49 53 49 48 45 44 49 52 48 49 48 49 49 51 42 39 40 40 43
28 33 40 46 45 46 41 43 44 46 47 41 39 38 38 41 42 44 45 47 48 50 52 51 51 54 54 48 46 44 42 45 46 48 44 44 43 39 39 38 39 42 44
36 30 33 35 43 41 44 39 45 48 47 46 43 46 46 47 49 49 49 46 47 51 53 50 50 52 50 43 38 38 39 35 35 44 42 44 43 44 53 58 54 57 46
42 38 35 40 39 43 46 48 44 42 43 45 46 47 50 48 49 49 50 50 51 52 49 40 38 49 42 48 57 49 45 44 48 48 46 43 42 46 44 45 44 43 43
43 43 37 37 42 44 45 48 49 51 49 49 51 50 46 46 43 42 43 42 41 42 44 43 47 54 44 40 38 38 38 38 40 41 39 39 39 40 41 42 43 44 46
40 44 43 42 44 45 41 41 41 41 43 42 42 43 45 42 37 33 34 34 34 33 37 41 44 45 39 34 32 32 34 36 38 39 40 40 41 43 45 46 47 49 49
36 44 45 45 43 42 42 41 39 35 35 37 36 38 35 35 30 28 25 27 31 31 31 30 31 30 30 32 36 37 38 41 42 44 45 47 48 48 51 52 53 52 52
29 35 39 36 35 38 40 40 40 37 36 35 33 32 32 30 29 28 28 29 29 29 29 33 36 37 36 37 39 41 43 46 47 47 49 50 51 52 53 54 53 53 51
26 30 35 33 35 35 36 35 33 33 33 33 33 32 32 30 27 27 29 31 33 34 35 36 37 37 38 41 44 47 49 51 51 51 51 50 51 52 52 50 50 49 49
16 20 26 30 32 32 33 33 32 33 34 34 34 32 31 29 30 33 35 36 35 35 36 38 38 39 40 44 46 48 49 49 49 49 48 47 46 47 45 45 43 42 42
22 19 18 21 24 27 29 31 32 32 33 33 33 32 33 35 37 38 36 36 37 37 38 38 39 41 42 43 43 43 43 45 45 45 45 43 41 38 40 42 42 41 40
26 27 25 23 25 26 28 29 30 31 32 33 34 35 35 36 36 36 37 39 40 40 40 40 40 40 41 41 40 40 40 40 41 41 41 39 39 40 41 41 39 38 39
25 26 27 29 30 29 30 31 32 32 34 35 35 35 35 36 38 40 40 40 40 40 40 39 39 38 38 36 36 37 37 37 37 38 39 38 37 34 34 35 35 35 36
25 29 31 33 33 35 37 36 36 37 38 37 37 37 37 38 38 38 38 38 39 40 40 39 38 38 37 37 38 36 35 36 37 38 35 35 35 32 33 34 32 35 32
21 26 24 21 22 29 34 37 37 37 36 37 39 39 40 41 41 42 41 40 40 41 40 39 37 37 37 37 38 37 37 36 36 37 37 36 35 35 32 31 32 34 33
35 33 34 34 29 27 29 31 33 36 38 39 38 38 39 40 40 40 40 40 39 38 38 39 37 37 38 37 38 37 38 36 35 36 35 34 35 32 35 37 34 31 33
39 39 37 40 36 33 31 33 33 33 34 35 35 36 36 37 36 36 36 35 34 34 36 37 37 38 37 37 37 36 36 35 34 33 34 33 32 31 31 29 28 28 32

GFSMW_500_spd_111.txt.gz
Wind_Speed
65 67 60 59 57 49 51 53 60 58 50 44 39 39 35 33 34 33 31 29 27 27 25 24 23 24 25 27 28 29 30 30 31 31 32 31 31 31 31 31 29 30 32
64 63 56 53 45 52 53 51 56 56 56 50 41 40 38 36 38 37 36 34 29 27 24 22 23 23 26 24 28 33 33 33 33 33 34 33 33 34 36 38 42 40 40
62 61 58 57 59 40 43 50 54 46 38 47 43 51 44 39 39 41 40 38 35 29 28 25 27 27 24 26 30 28 30 29 28 33 37 37 38 38 32 34 34 31 33
55 58 54 54 55 51 45 38 45 38 44 41 45 35 37 38 40 40 38 35 36 35 28 24 26 28 29 32 31 35 36 34 34 37 43 40 40 39 40 38 38 37 37
51 49 49 51 51 52 46 46 43 45 48 41 40 35 39 40 37 31 35 30 24 18 26 24 26 27 26 30 29 32 36 35 38 41 30 35 31 35 32 32 29 32 36
54 51 45 46 52 51 63 31 55 44 43 42 53 46 33 38 46 35 49 37 29 26 28 29 32 31 32 32 36 36 37 39 37 33 36 32 31 30 31 33 37 41 41
56 54 50 45 43 47 56 55 43 46 47 48 45 48 44 36 28 33 25 23 24 25 25 24 30 30 35 33 34 36 40 38 31 31 36 30 31 35 40 37 38 36 38
55 59 55 45 51 42 49 53 53 50 49 50 48 42 39 41 38 36 33 31 31 31 29 32 32 31 35 35 36 39 45 45 44 43 38 44 38 36 39 41 43 40 41
45 52 52 52 45 53 47 48 52 53 53 51 48 45 43 42 33 35 36 35 34 35 35 34 36 38 39 40 40 40 42 45 43 43 43 45 40 40 41 47 47 50 43
47 50 44 46 50 54 52 50 50 51 51 51 48 46 43 43 42 39 37 37 38 37 38 39 39 40 41 44 45 44 44 45 49 46 45 47 52 54 48 53 55 45 37
42 49 43 41 44 48 50 52 53 49 49 51 49 46 45 44 43 41 39 39 39 40 41 41 42 44 48 49 49 50 51 52 49 47 36 36 40 43 51 49 50 39 39
44 48 46 40 42 43 45 46 48 46 40 42 42 45 44 42 41 41 41 41 42 43 45 45 46 47 47 49 49 51 52 51 44 36 42 46 43 40 41 46 44 49 55
26 41 34 33 37 40 42 44 46 43 42 41 40 40 40 39 39 39 41 43 46 49 50 49 49 49 47 48 49 46 44 44 42 46 55 47 45 49 48 43 43 43 45
28 30 29 28 28 32 38 43 45 45 41 42 45 47 47 48 49 49 49 49 48 48 46 44 43 45 47 43 41 45 50 53 45 45 44 45 44 44 44 43 43 43 45
35 34 40 36 35 34 39 41 44 44 44 46 46 44 46 46 47 48 48 49 48 44 43 41 42 41 39 37 39 42 46 48 41 40 39 40 41 42 44 46 46 48 51
33 43 44 43 45 40 40 44 44 44 45 48 52 52 49 48 49 50 48 45 43 41 37 36 35 34 35 31 31 34 37 37 40 44 45 45 47 47 50 52 53 54 55
33 38 45 49 50 51 45 47 47 46 46 47 47 48 50 50 49 45 43 41 38 36 34 32 29 27 28 30 33 37 39 42 43 46 49 52 53 54 55 55 54 54 54
31 35 38 44 48 48 46 44 45 46 42 41 41 41 42 42 41 41 39 38 36 32 29 29 31 33 36 36 38 40 41 44 47 50 52 53 53 52 51 52 53 52 51
27 27 33 34 39 39 37 37 39 40 38 37 39 40 37 36 38 38 38 38 33 32 33 35 36 38 38 40 43 44 45 48 50 51 52 52 51 50 51 50 49 49 48
20 23 27 29 34 38 38 37 37 36 37 37 36 36 36 37 37 38 37 34 35 37 38 39 40 41 42 44 46 47 48 50 51 46 46 45 45 46 46 45 44 44 42
15 15 17 20 24 34 36 36 36 37 36 37 39 38 38 38 38 37 36 37 40 41 41 41 43 45 46 48 48 48 47 48 45 40 40 39 40 41 43 42 41 39 38
18 21 19 21 20 22 24 27 31 32 34 35 36 36 36 35 36 37 40 42 42 42 42 44 46 48 48 48 46 45 44 45 41 41 43 42 42 41 40 39 39 35 33
24 27 29 29 30 30 31 32 32 32 33 35 35 35 36 38 40 42 42 42 42 43 45 46 46 47 46 45 44 43 42 42 42 43 42 42 42 42 39 38 38 37 36
25 28 32 34 35 36 37 40 40 40 41 40 39 41 41 40 41 41 42 43 44 45 45 47 48 47 45 43 42 40 41 41 42 42 42 41 41 40 38 38 38 38 36
32 31 32 32 33 34 30 30 33 42 43 45 46 45 43 42 43 43 45 46 47 47 47 46 45 44 43 42 41 40 40 41 42 41 41 40 39 40 37 38 35 33 32
40 39 39 39 38 37 38 36 36 35 36 37 37 38 40 41 42 44 44 43 44 43 43 42 39 38 39 38 39 41 42 42 42 40 40 38 38 40 39 38 36 34 34

GFSMW_500_spd_114.txt.gz
Wind_Speed
60 67 61 62 52 55 62 61 59 51 54 59 48 41 39 36 32 31 31 31 31 31 29 28 29 28 25 23 22 22 23 24 22 22 24 24 24 26 28 29 29 31 30
78 69 64 62 58 51 51 67 71 53 51 51 44 42 39 37 35 34 32 31 29 29 30 30 30 27 24 21 20 23 21 23 27 30 30 26 26 27 32 35 35 32 29
76 70 66 63 62 60 52 39 65 53 53 48 52 50 45 44 41 37 35 34 34 35 35 34 32 27 25 22 21 23 25 27 28 26 27 26 27 31 35 35 35 33 35
73 70 66 61 62 56 55 44 40 65 56 53 54 53 47 41 40 39 39 38 38 40 39 36 33 24 27 30 29 30 27 26 25 29 32 32 36 37 31 36 35 37 41
64 65 64 59 59 53 47 33 33 38 43 50 60 57 54 48 45 44 42 37 37 38 33 39 40 29 23 21 25 25 26 34 29 30 31 36 40 36 36 32 28 27 30
64 63 60 55 55 52 50 49 37 42 47 48 42 53 56 51 46 47 45 37 35 42 36 31 29 27 24 24 23 22 22 28 26 26 30 29 30 27 38 32 29 31 31
64 65 60 55 54 56 54 53 46 38 46 30 51 52 51 61 49 40 55 39 34 41 34 29 30 23 25 18 20 21 27 27 27 29 33 38 39 37 38 35 37 35 32
49 55 57 56 56 52 51 53 51 41 25 31 44 37 56 34 39 23 25 25 35 26 23 23 21 24 23 18 20 24 28 29 31 34 33 34 35 38 31 43 40 47 39
46 48 53 50 47 45 48 48 51 54 54 33 27 29 30 23 25 32 26 25 26 27 26 26 20 21 24 24 26 31 33 33 34 35 37 38 39 42 43 43 47 51 45
47 47 46 45 45 40 42 40 41 44 43 41 33 32 31 30 30 33 33 27 22 19 26 28 28 27 28 30 33 36 39 39 39 39 39 39 41 44 45 45 43 45 46
45 38 46 46 44 45 44 41 39 43 39 38 40 42 36 39 37 36 39 33 31 30 32 33 31 30 33 36 38 40 44 41 43 43 43 46 44 40 43 38 39 45 43
37 43 47 51 46 47 47 48 45 42 44 39 41 44 44 38 37 33 33 34 36 37 36 34 35 36 39 39 40 47 45 43 44 45 47 44 43 38 42 45 53 47 45
47 37 39 44 47 45 45 45 45 47 49 49 47 46 43 36 37 34 34 35 37 38 36 36 38 45 46 46 47 44 40 43 47 48 47 44 45 47 44 46 46 46 48
25 33 37 48 45 39 37 36 36 35 37 40 42 40 38 36 33 31 32 32 32 35 38 45 45 43 42 41 40 38 41 42 42 43 43 43 43 44 44 45 45 47 48
12 30 39 42 35 36 36 38 39 40 41 41 38 37 40 40 39 39 40 42 43 42 41 42 44 45 43 39 38 42 39 39 36 33 34 37 39 39 40 43 47 51 53
20 20 21 24 27 28 30 32 36 38 41 43 43 40 41 43 43 41 40 40 41 43 43 45 45 42 40 38 37 38 32 29 29 30 32 35 36 38 42 46 51 55 57
26 27 28 29 30 33 32 32 32 35 38 41 41 41 42 43 44 45 46 47 48 48 48 46 41 40 39 38 34 29 29 31 33 34 37 38 41 45 48 51 53 54 55
22 25 32 35 37 37 40 43 42 41 39 40 41 42 44 45 46 45 44 46 46 46 46 44 41 40 38 33 31 32 33 35 36 39 42 44 47 49 52 54 55 55 55
23 30 33 38 42 44 48 51 52 54 53 51 48 43 43 43 43 39 39 39 39 39 38 38 37 37 36 33 35 36 37 38 40 43 45 48 50 50 51 50 47 47 48
23 17 27 32 37 41 46 51 50 51 50 50 46 43 43 44 42 42 40 40 39 38 39 38 39 38 37 37 39 40 41 42 45 47 49 51 50 49 46 43 42 43 43
15 17 18 25 30 33 40 43 46 48 47 47 42 39 39 39 40 42 44 43 42 41 41 40 41 40 39 41 40 42 45 47 50 50 50 49 48 46 45 46 45 44 44
13 15 18 18 22 24 31 36 39 41 43 42 40 38 38 41 41 41 42 42 41 41 41 41 41 41 42 41 44 47 49 49 48 48 48 46 44 45 46 45 45 44 44
18 19 23 22 22 21 21 23 32 40 42 41 41 42 42 41 41 40 40 40 39 39 40 41 42 42 43 46 48 49 48 48 49 49 46 44 44 44 43 43 43 43 42
24 25 27 27 28 29 30 30 29 30 33 34 34 34 35 36 37 37 38 38 40 40 40 42 42 43 46 49 49 50 51 50 49 46 43 44 44 43 42 41 40 42 41
33 34 30 31 33 34 37 37 37 40 41 39 39 40 41 41 42 42 43 43 44 44 43 43 42 45 48 48 49 49 47 45 43 41 42 43 43 43 41 41 41 40 41
33 36 39 38 37 38 38 40 40 39 38 37 39 43 47 49 48 48 48 48 47 46 47 48 48 47 45 45 45 43 42 41 41 39 40 41 42 42 42 42 40 38 38

GFSMW_500_spd_117.txt.gz
Wind_Speed
84 79 78 66 56 41 61 63 65 55 46 46 45 50 52 47 42 39 38 38 38 36 33 31 29 28 27 29 27 25 26 24 23 22 23 21 22 23 25 26 26 28 32
77 79 81 68 58 37 47 72 53 56 54 51 46 48 48 45 45 44 42 40 39 36 33 31 32 32 31 30 29 28 26 24 22 21 20 21 24 25 24 25 26 31 35
73 80 77 76 58 48 32 62 66 55 56 56 52 52 52 52 48 44 42 41 38 36 34 33 32 31 32 31 28 25 21 21 22 21 23 24 24 26 28 29 32 33 30
71 73 69 70 76 62 35 62 63 59 61 55 52 50 49 52 48 47 45 42 39 36 36 34 35 34 32 28 27 25 24 22 27 24 26 28 27 27 28 33 36 34 34
70 65 63 67 64 64 36 46 60 40 68 59 51 53 55 57 54 50 46 43 40 39 37 37 38 36 35 34 27 27 27 23 23 24 16 25 26 23 28 26 26 32 35
71 66 66 41 51 54 44 49 46 61 59 57 50 50 59 61 58 54 49 46 41 40 38 40 36 33 38 35 33 29 26 25 8 14 16 18 20 23 20 23 29 34 29
57 65 62 65 56 51 48 54 47 44 63 65 48 48 43 64 57 57 51 47 40 39 40 35 38 35 35 36 34 25 11 7 12 15 20 24 26 26 25 26 28 29 31
56 61 59 61 59 51 48 50 47 36 38 41 55 52 37 57 55 58 50 51 43 42 44 36 32 24 28 25 26 15 10 14 17 21 24 26 29 30 31 32 33 35 36
52 54 56 55 56 57 51 45 43 36 40 40 39 32 33 49 61 42 49 46 45 48 48 42 38 40 30 22 16 13 16 20 23 25 28 30 32 32 33 34 38 40 40
34 45 41 48 51 50 45 43 41 45 44 31 20 30 23 15 19 20 26 32 26 28 40 37 27 20 15 17 16 19 22 26 28 30 33 34 33 32 35 38 41 42 44
37 32 41 43 47 44 39 41 42 43 43 36 43 39 29 28 18 15 23 27 22 25 26 24 20 14 18 22 23 25 28 30 33 37 37 35 35 35 37 41 42 45 44
40 38 37 38 39 44 44 40 36 31 38 25 32 38 33 20 25 23 22 27 31 25 31 37 27 20 24 27 29 29 34 39 38 39 36 33 36 37 38 43 44 45 43
38 40 36 30 34 31 38 38 38 35 30 34 34 24 24 22 25 28 30 31 31 26 22 26 27 25 28 31 31 37 39 37 35 33 33 36 37 38 40 42 41 41 42
29 44 37 39 31 44 30 34 36 36 37 35 33 30 28 29 30 32 31 31 24 20 21 23 26 29 31 34 39 37 38 36 34 33 36 37 39 39 39 37 32 32 33
21 28 30 27 32 38 42 33 34 38 33 23 20 21 23 24 27 29 25 21 19 22 26 29 32 34 35 35 37 39 36 34 33 35 37 35 33 29 29 30 31 34 38
13 19 25 30 31 32 37 36 29 26 26 22 22 26 27 27 29 28 29 31 30 29 30 31 32 33 34 37 38 37 35 35 35 37 34 32 31 31 32 33 35 39 43
8 14 16 18 27 32 35 34 35 32 31 33 33 35 34 34 34 32 32 32 32 33 35 37 38 39 40 39 37 36 36 38 38 34 32 33 33 33 34 36 38 44 48
17 18 18 22 26 24 23 26 28 30 29 30 30 31 33 36 37 36 36 37 39 38 39 39 38 39 37 36 36 37 37 37 35 34 35 35 34 36 38 40 42 47 48
19 22 24 26 29 30 32 33 34 36 38 37 37 36 36 38 39 41 42 42 42 40 39 38 38 37 38 38 38 38 38 37 37 36 36 37 37 38 41 43 45 46 45
17 21 25 31 34 34 37 41 42 43 44 44 46 47 47 48 46 47 45 42 41 40 41 40 40 39 40 39 39 40 39 39 39 39 38 38 40 40 41 42 45 46 46
18 22 25 25 27 35 39 44 46 48 48 48 48 47 46 46 44 42 39 39 42 43 44 45 44 41 41 41 39 38 37 38 39 38 39 40 43 43 43 45 44 46 46
20 22 26 26 24 27 33 38 42 47 48 48 45 45 44 41 38 37 37 38 38 40 40 40 40 41 40 38 36 37 38 39 39 40 41 44 44 45 46 46 47 45 45
20 22 26 24 24 25 25 28 33 38 42 45 45 44 43 43 43 41 41 41 41 41 41 43 44 43 41 40 38 38 39 38 39 41 43 46 47 47 47 45 45 45 44
25 26 27 28 30 31 32 31 31 32 31 35 42 45 43 43 42 43 44 46 45 45 45 43 40 40 40 38 38 39 38 38 41 43 44 46 46 44 44 44 44 43 42
31 31 33 35 36 37 37 38 37 36 35 35 35 36 38 43 45 45 44 43 43 41 39 39 40 39 38 39 38 39 40 42 43 44 44 44 43 44 42 41 39 40 40
39 39 40 39 39 40 42 42 43 43 42 42 42 42 44 45 43 43 44 45 46 45 43 44 46 48 44 41 44 46 46 44 42 41 42 42 42 41 40 39 38 38 38